<?xml version="1.0" encoding="UTF-8" standalone="no" ?>
<gpx xmlns="http://www.topografix.com/GPX/1/1" xmlns:xsi="http://www.w3.org/2001/XMLSchema-instance" xsi:schemaLocation="http://www.topografix.com/GPX/1/1 http://www.topografix.com/GPX/1/1/gpx.xsd" version="1.1" creator="VisuGPX - https://www.visugpx.com">
  <metadata>
    <name>[CAF Albi] - Coume d'en Garcie - Refuge des Bésines - Aller Retour</name>
    <desc><![CDATA[Parking du col du Puymorens
Coume d'en Garcie  jusqu'au Refuge des Bésines 
Aller Retour]]></desc>
  </metadata>
  <trk>
    <name><![CDATA[2025-02-16 17:30:42]]></name>
    <extensions>
      <line xmlns="http://www.topografix.com/GPX/gpx_style/0/2">
        <color>0000FF</color>
        <width>4</width>
      </line>
    </extensions>
    <trkseg>
      <trkpt lat="42.56023" lon="1.81046">
        <ele>1938.64</ele>
        <time>2025-02-15T09:08:50Z</time>
      </trkpt>
      <trkpt lat="42.56024" lon="1.81046">
        <ele>1938.64</ele>
        <time>2025-02-15T09:08:51Z</time>
      </trkpt>
      <trkpt lat="42.56026" lon="1.81047">
        <ele>1939.12</ele>
        <time>2025-02-15T09:08:53Z</time>
      </trkpt>
      <trkpt lat="42.56028" lon="1.81048">
        <ele>1927.1</ele>
        <time>2025-02-15T09:08:56Z</time>
      </trkpt>
      <trkpt lat="42.56038" lon="1.81054">
        <ele>1927.58</ele>
        <time>2025-02-15T09:09:08Z</time>
      </trkpt>
      <trkpt lat="42.56046" lon="1.81055">
        <ele>1927.58</ele>
        <time>2025-02-15T09:09:17Z</time>
      </trkpt>
      <trkpt lat="42.56048" lon="1.81056">
        <ele>1929.02</ele>
        <time>2025-02-15T09:09:27Z</time>
      </trkpt>
      <trkpt lat="42.56048" lon="1.81052">
        <ele>1927.58</ele>
        <time>2025-02-15T09:09:36Z</time>
      </trkpt>
      <trkpt lat="42.56049" lon="1.81053">
        <ele>1927.58</ele>
        <time>2025-02-15T09:09:37Z</time>
      </trkpt>
      <trkpt lat="42.56051" lon="1.81052">
        <ele>1927.58</ele>
        <time>2025-02-15T09:09:39Z</time>
      </trkpt>
      <trkpt lat="42.56058" lon="1.81055">
        <ele>1929.02</ele>
        <time>2025-02-15T09:09:46Z</time>
      </trkpt>
      <trkpt lat="42.56063" lon="1.81059">
        <ele>1929.02</ele>
        <time>2025-02-15T09:09:54Z</time>
      </trkpt>
      <trkpt lat="42.56072" lon="1.81072">
        <ele>1929.98</ele>
        <time>2025-02-15T09:10:07Z</time>
      </trkpt>
      <trkpt lat="42.56086" lon="1.81084">
        <ele>1930.95</ele>
        <time>2025-02-15T09:10:24Z</time>
      </trkpt>
      <trkpt lat="42.56099" lon="1.81099">
        <ele>1931.43</ele>
        <time>2025-02-15T09:10:39Z</time>
      </trkpt>
      <trkpt lat="42.56112" lon="1.81112">
        <ele>1933.35</ele>
        <time>2025-02-15T09:10:57Z</time>
      </trkpt>
      <trkpt lat="42.56119" lon="1.8112">
        <ele>1933.35</ele>
        <time>2025-02-15T09:11:06Z</time>
      </trkpt>
      <trkpt lat="42.56133" lon="1.8114">
        <ele>1934.79</ele>
        <time>2025-02-15T09:11:27Z</time>
      </trkpt>
      <trkpt lat="42.56145" lon="1.81155">
        <ele>1936.71</ele>
        <time>2025-02-15T09:11:45Z</time>
      </trkpt>
      <trkpt lat="42.56159" lon="1.81165">
        <ele>1937.19</ele>
        <time>2025-02-15T09:12:02Z</time>
      </trkpt>
      <trkpt lat="42.56175" lon="1.81174">
        <ele>1937.19</ele>
        <time>2025-02-15T09:12:18Z</time>
      </trkpt>
      <trkpt lat="42.56192" lon="1.81174">
        <ele>1937.19</ele>
        <time>2025-02-15T09:12:35Z</time>
      </trkpt>
      <trkpt lat="42.56203" lon="1.81178">
        <ele>1937.19</ele>
        <time>2025-02-15T09:12:49Z</time>
      </trkpt>
      <trkpt lat="42.56214" lon="1.8118">
        <ele>1936.71</ele>
        <time>2025-02-15T09:13:03Z</time>
      </trkpt>
      <trkpt lat="42.56219" lon="1.81183">
        <ele>1935.75</ele>
        <time>2025-02-15T09:13:10Z</time>
      </trkpt>
      <trkpt lat="42.5622" lon="1.81182">
        <ele>1935.27</ele>
        <time>2025-02-15T09:13:26Z</time>
      </trkpt>
      <trkpt lat="42.56236" lon="1.81182">
        <ele>1935.27</ele>
        <time>2025-02-15T09:13:42Z</time>
      </trkpt>
      <trkpt lat="42.56243" lon="1.81184">
        <ele>1935.27</ele>
        <time>2025-02-15T09:13:56Z</time>
      </trkpt>
      <trkpt lat="42.56253" lon="1.81184">
        <ele>1933.83</ele>
        <time>2025-02-15T09:14:11Z</time>
      </trkpt>
      <trkpt lat="42.56269" lon="1.81189">
        <ele>1933.83</ele>
        <time>2025-02-15T09:14:32Z</time>
      </trkpt>
      <trkpt lat="42.56273" lon="1.81189">
        <ele>1935.27</ele>
        <time>2025-02-15T09:14:36Z</time>
      </trkpt>
      <trkpt lat="42.56282" lon="1.81191">
        <ele>1936.23</ele>
        <time>2025-02-15T09:14:51Z</time>
      </trkpt>
      <trkpt lat="42.56295" lon="1.81191">
        <ele>1937.67</ele>
        <time>2025-02-15T09:15:12Z</time>
      </trkpt>
      <trkpt lat="42.56305" lon="1.81195">
        <ele>1940.08</ele>
        <time>2025-02-15T09:15:32Z</time>
      </trkpt>
      <trkpt lat="42.56311" lon="1.81199">
        <ele>1941.52</ele>
        <time>2025-02-15T09:15:48Z</time>
      </trkpt>
      <trkpt lat="42.56309" lon="1.81204">
        <ele>1941.52</ele>
        <time>2025-02-15T09:16:09Z</time>
      </trkpt>
      <trkpt lat="42.56309" lon="1.81206">
        <ele>1942</ele>
        <time>2025-02-15T09:16:29Z</time>
      </trkpt>
      <trkpt lat="42.56311" lon="1.81203">
        <ele>1941.52</ele>
        <time>2025-02-15T09:16:59Z</time>
      </trkpt>
      <trkpt lat="42.5631" lon="1.81201">
        <ele>1941.52</ele>
        <time>2025-02-15T09:17:18Z</time>
      </trkpt>
      <trkpt lat="42.56311" lon="1.81202">
        <ele>1941.52</ele>
        <time>2025-02-15T09:17:37Z</time>
      </trkpt>
      <trkpt lat="42.56313" lon="1.81206">
        <ele>1940.08</ele>
        <time>2025-02-15T09:17:55Z</time>
      </trkpt>
      <trkpt lat="42.56313" lon="1.81202">
        <ele>1940.08</ele>
        <time>2025-02-15T09:18:08Z</time>
      </trkpt>
      <trkpt lat="42.56315" lon="1.81205">
        <ele>1941.52</ele>
        <time>2025-02-15T09:18:30Z</time>
      </trkpt>
      <trkpt lat="42.56312" lon="1.81204">
        <ele>1941.04</ele>
        <time>2025-02-15T09:18:44Z</time>
      </trkpt>
      <trkpt lat="42.56312" lon="1.81208">
        <ele>1940.08</ele>
        <time>2025-02-15T09:19:03Z</time>
      </trkpt>
      <trkpt lat="42.56313" lon="1.81204">
        <ele>1941.52</ele>
        <time>2025-02-15T09:19:09Z</time>
      </trkpt>
      <trkpt lat="42.56314" lon="1.81201">
        <ele>1941.52</ele>
        <time>2025-02-15T09:19:26Z</time>
      </trkpt>
      <trkpt lat="42.56314" lon="1.81201">
        <ele>1941.04</ele>
        <time>2025-02-15T09:19:50Z</time>
      </trkpt>
      <trkpt lat="42.56311" lon="1.81204">
        <ele>1941.04</ele>
        <time>2025-02-15T09:20:08Z</time>
      </trkpt>
      <trkpt lat="42.56313" lon="1.81207">
        <ele>1941.04</ele>
        <time>2025-02-15T09:20:34Z</time>
      </trkpt>
      <trkpt lat="42.56314" lon="1.81209">
        <ele>1941.52</ele>
        <time>2025-02-15T09:21:05Z</time>
      </trkpt>
      <trkpt lat="42.56312" lon="1.81204">
        <ele>1941.52</ele>
        <time>2025-02-15T09:21:32Z</time>
      </trkpt>
      <trkpt lat="42.56315" lon="1.81206">
        <ele>1942</ele>
        <time>2025-02-15T09:22:06Z</time>
      </trkpt>
      <trkpt lat="42.56311" lon="1.81201">
        <ele>1942</ele>
        <time>2025-02-15T09:22:33Z</time>
      </trkpt>
      <trkpt lat="42.56313" lon="1.81201">
        <ele>1942</ele>
        <time>2025-02-15T09:22:59Z</time>
      </trkpt>
      <trkpt lat="42.56319" lon="1.81208">
        <ele>1942.96</ele>
        <time>2025-02-15T09:23:18Z</time>
      </trkpt>
      <trkpt lat="42.56326" lon="1.81216">
        <ele>1945.36</ele>
        <time>2025-02-15T09:23:32Z</time>
      </trkpt>
      <trkpt lat="42.56336" lon="1.81226">
        <ele>1946.81</ele>
        <time>2025-02-15T09:23:47Z</time>
      </trkpt>
      <trkpt lat="42.56344" lon="1.81237">
        <ele>1948.25</ele>
        <time>2025-02-15T09:24:03Z</time>
      </trkpt>
      <trkpt lat="42.56351" lon="1.81248">
        <ele>1949.69</ele>
        <time>2025-02-15T09:24:16Z</time>
      </trkpt>
      <trkpt lat="42.56362" lon="1.81259">
        <ele>1951.13</ele>
        <time>2025-02-15T09:24:34Z</time>
      </trkpt>
      <trkpt lat="42.56371" lon="1.81271">
        <ele>1952.57</ele>
        <time>2025-02-15T09:24:51Z</time>
      </trkpt>
      <trkpt lat="42.56373" lon="1.81277">
        <ele>1952.57</ele>
        <time>2025-02-15T09:25:04Z</time>
      </trkpt>
      <trkpt lat="42.56374" lon="1.81273">
        <ele>1953.06</ele>
        <time>2025-02-15T09:25:24Z</time>
      </trkpt>
      <trkpt lat="42.56377" lon="1.81274">
        <ele>1952.09</ele>
        <time>2025-02-15T09:25:35Z</time>
      </trkpt>
      <trkpt lat="42.56376" lon="1.81276">
        <ele>1952.09</ele>
        <time>2025-02-15T09:26:01Z</time>
      </trkpt>
      <trkpt lat="42.56376" lon="1.81274">
        <ele>1952.09</ele>
        <time>2025-02-15T09:26:14Z</time>
      </trkpt>
      <trkpt lat="42.56377" lon="1.81273">
        <ele>1953.06</ele>
        <time>2025-02-15T09:26:26Z</time>
      </trkpt>
      <trkpt lat="42.56378" lon="1.81273">
        <ele>1953.06</ele>
        <time>2025-02-15T09:26:43Z</time>
      </trkpt>
      <trkpt lat="42.56379" lon="1.81273">
        <ele>1953.06</ele>
        <time>2025-02-15T09:26:48Z</time>
      </trkpt>
      <trkpt lat="42.56381" lon="1.81279">
        <ele>1953.06</ele>
        <time>2025-02-15T09:26:55Z</time>
      </trkpt>
      <trkpt lat="42.56384" lon="1.81281">
        <ele>1953.06</ele>
        <time>2025-02-15T09:26:59Z</time>
      </trkpt>
      <trkpt lat="42.5639" lon="1.81288">
        <ele>1953.54</ele>
        <time>2025-02-15T09:27:08Z</time>
      </trkpt>
      <trkpt lat="42.56395" lon="1.81294">
        <ele>1954.5</ele>
        <time>2025-02-15T09:27:14Z</time>
      </trkpt>
      <trkpt lat="42.56397" lon="1.81294">
        <ele>1954.5</ele>
        <time>2025-02-15T09:27:15Z</time>
      </trkpt>
      <trkpt lat="42.56404" lon="1.81297">
        <ele>1954.5</ele>
        <time>2025-02-15T09:27:23Z</time>
      </trkpt>
      <trkpt lat="42.56406" lon="1.81299">
        <ele>1954.98</ele>
        <time>2025-02-15T09:27:26Z</time>
      </trkpt>
      <trkpt lat="42.56408" lon="1.813">
        <ele>1954.98</ele>
        <time>2025-02-15T09:27:27Z</time>
      </trkpt>
      <trkpt lat="42.56413" lon="1.8131">
        <ele>1955.46</ele>
        <time>2025-02-15T09:27:37Z</time>
      </trkpt>
      <trkpt lat="42.56415" lon="1.81312">
        <ele>1955.46</ele>
        <time>2025-02-15T09:27:39Z</time>
      </trkpt>
      <trkpt lat="42.56426" lon="1.81324">
        <ele>1955.94</ele>
        <time>2025-02-15T09:27:54Z</time>
      </trkpt>
      <trkpt lat="42.56438" lon="1.81338">
        <ele>1957.38</ele>
        <time>2025-02-15T09:28:10Z</time>
      </trkpt>
      <trkpt lat="42.56453" lon="1.81346">
        <ele>1958.34</ele>
        <time>2025-02-15T09:28:26Z</time>
      </trkpt>
      <trkpt lat="42.56457" lon="1.81348">
        <ele>1958.34</ele>
        <time>2025-02-15T09:28:30Z</time>
      </trkpt>
      <trkpt lat="42.56466" lon="1.8135">
        <ele>1958.82</ele>
        <time>2025-02-15T09:28:43Z</time>
      </trkpt>
      <trkpt lat="42.56468" lon="1.81361">
        <ele>1959.78</ele>
        <time>2025-02-15T09:28:58Z</time>
      </trkpt>
      <trkpt lat="42.56474" lon="1.81363">
        <ele>1959.78</ele>
        <time>2025-02-15T09:29:21Z</time>
      </trkpt>
      <trkpt lat="42.56485" lon="1.81371">
        <ele>1960.27</ele>
        <time>2025-02-15T09:29:35Z</time>
      </trkpt>
      <trkpt lat="42.56497" lon="1.81387">
        <ele>1960.75</ele>
        <time>2025-02-15T09:29:52Z</time>
      </trkpt>
      <trkpt lat="42.56505" lon="1.81403">
        <ele>1961.23</ele>
        <time>2025-02-15T09:30:09Z</time>
      </trkpt>
      <trkpt lat="42.56517" lon="1.81412">
        <ele>1961.23</ele>
        <time>2025-02-15T09:30:24Z</time>
      </trkpt>
      <trkpt lat="42.56528" lon="1.81426">
        <ele>1961.71</ele>
        <time>2025-02-15T09:30:40Z</time>
      </trkpt>
      <trkpt lat="42.56536" lon="1.8144">
        <ele>1962.67</ele>
        <time>2025-02-15T09:30:55Z</time>
      </trkpt>
      <trkpt lat="42.56541" lon="1.81454">
        <ele>1964.11</ele>
        <time>2025-02-15T09:31:11Z</time>
      </trkpt>
      <trkpt lat="42.56547" lon="1.8147">
        <ele>1965.55</ele>
        <time>2025-02-15T09:31:29Z</time>
      </trkpt>
      <trkpt lat="42.56555" lon="1.81477">
        <ele>1966.51</ele>
        <time>2025-02-15T09:31:41Z</time>
      </trkpt>
      <trkpt lat="42.56558" lon="1.81481">
        <ele>1966.51</ele>
        <time>2025-02-15T09:31:45Z</time>
      </trkpt>
      <trkpt lat="42.56568" lon="1.8149">
        <ele>1966.51</ele>
        <time>2025-02-15T09:31:58Z</time>
      </trkpt>
      <trkpt lat="42.56578" lon="1.81503">
        <ele>1967.48</ele>
        <time>2025-02-15T09:32:13Z</time>
      </trkpt>
      <trkpt lat="42.56586" lon="1.81517">
        <ele>1968.44</ele>
        <time>2025-02-15T09:32:29Z</time>
      </trkpt>
      <trkpt lat="42.56592" lon="1.81528">
        <ele>1968.92</ele>
        <time>2025-02-15T09:32:42Z</time>
      </trkpt>
      <trkpt lat="42.56602" lon="1.8154">
        <ele>1969.88</ele>
        <time>2025-02-15T09:32:58Z</time>
      </trkpt>
      <trkpt lat="42.56612" lon="1.81553">
        <ele>1970.84</ele>
        <time>2025-02-15T09:33:13Z</time>
      </trkpt>
      <trkpt lat="42.5662" lon="1.81567">
        <ele>1971.8</ele>
        <time>2025-02-15T09:33:30Z</time>
      </trkpt>
      <trkpt lat="42.56628" lon="1.81578">
        <ele>1973.24</ele>
        <time>2025-02-15T09:33:46Z</time>
      </trkpt>
      <trkpt lat="42.56636" lon="1.81589">
        <ele>1974.2</ele>
        <time>2025-02-15T09:34:02Z</time>
      </trkpt>
      <trkpt lat="42.56641" lon="1.81598">
        <ele>1974.69</ele>
        <time>2025-02-15T09:34:17Z</time>
      </trkpt>
      <trkpt lat="42.56646" lon="1.81606">
        <ele>1975.17</ele>
        <time>2025-02-15T09:34:36Z</time>
      </trkpt>
      <trkpt lat="42.56654" lon="1.8162">
        <ele>1975.65</ele>
        <time>2025-02-15T09:34:52Z</time>
      </trkpt>
      <trkpt lat="42.56666" lon="1.81633">
        <ele>1976.61</ele>
        <time>2025-02-15T09:35:08Z</time>
      </trkpt>
      <trkpt lat="42.56676" lon="1.81644">
        <ele>1977.57</ele>
        <time>2025-02-15T09:35:23Z</time>
      </trkpt>
      <trkpt lat="42.56684" lon="1.81656">
        <ele>1978.53</ele>
        <time>2025-02-15T09:35:40Z</time>
      </trkpt>
      <trkpt lat="42.56692" lon="1.81667">
        <ele>1980.45</ele>
        <time>2025-02-15T09:35:55Z</time>
      </trkpt>
      <trkpt lat="42.56701" lon="1.81676">
        <ele>1981.41</ele>
        <time>2025-02-15T09:36:09Z</time>
      </trkpt>
      <trkpt lat="42.56713" lon="1.81686">
        <ele>1981.9</ele>
        <time>2025-02-15T09:36:25Z</time>
      </trkpt>
      <trkpt lat="42.5672" lon="1.81703">
        <ele>1982.86</ele>
        <time>2025-02-15T09:36:41Z</time>
      </trkpt>
      <trkpt lat="42.56727" lon="1.8171">
        <ele>1983.82</ele>
        <time>2025-02-15T09:36:55Z</time>
      </trkpt>
      <trkpt lat="42.56737" lon="1.81723">
        <ele>1985.26</ele>
        <time>2025-02-15T09:37:12Z</time>
      </trkpt>
      <trkpt lat="42.56744" lon="1.81736">
        <ele>1985.74</ele>
        <time>2025-02-15T09:37:28Z</time>
      </trkpt>
      <trkpt lat="42.56752" lon="1.81751">
        <ele>1987.66</ele>
        <time>2025-02-15T09:37:47Z</time>
      </trkpt>
      <trkpt lat="42.56756" lon="1.81762">
        <ele>1989.1</ele>
        <time>2025-02-15T09:38:03Z</time>
      </trkpt>
      <trkpt lat="42.56759" lon="1.8177">
        <ele>1990.55</ele>
        <time>2025-02-15T09:38:20Z</time>
      </trkpt>
      <trkpt lat="42.5677" lon="1.81778">
        <ele>1991.51</ele>
        <time>2025-02-15T09:38:36Z</time>
      </trkpt>
      <trkpt lat="42.56777" lon="1.81794">
        <ele>1991.51</ele>
        <time>2025-02-15T09:38:52Z</time>
      </trkpt>
      <trkpt lat="42.56781" lon="1.81806">
        <ele>1992.47</ele>
        <time>2025-02-15T09:39:06Z</time>
      </trkpt>
      <trkpt lat="42.56786" lon="1.81818">
        <ele>1994.87</ele>
        <time>2025-02-15T09:39:24Z</time>
      </trkpt>
      <trkpt lat="42.5679" lon="1.81826">
        <ele>1995.83</ele>
        <time>2025-02-15T09:39:39Z</time>
      </trkpt>
      <trkpt lat="42.56798" lon="1.81832">
        <ele>1996.32</ele>
        <time>2025-02-15T09:39:53Z</time>
      </trkpt>
      <trkpt lat="42.56808" lon="1.81835">
        <ele>1996.32</ele>
        <time>2025-02-15T09:40:07Z</time>
      </trkpt>
      <trkpt lat="42.56815" lon="1.81844">
        <ele>1996.8</ele>
        <time>2025-02-15T09:40:22Z</time>
      </trkpt>
      <trkpt lat="42.56822" lon="1.81841">
        <ele>1996.8</ele>
        <time>2025-02-15T09:40:29Z</time>
      </trkpt>
      <trkpt lat="42.56831" lon="1.81848">
        <ele>1996.8</ele>
        <time>2025-02-15T09:40:43Z</time>
      </trkpt>
      <trkpt lat="42.56838" lon="1.81858">
        <ele>1997.76</ele>
        <time>2025-02-15T09:40:59Z</time>
      </trkpt>
      <trkpt lat="42.56844" lon="1.8187">
        <ele>1998.72</ele>
        <time>2025-02-15T09:41:16Z</time>
      </trkpt>
      <trkpt lat="42.56851" lon="1.81886">
        <ele>2000.64</ele>
        <time>2025-02-15T09:41:35Z</time>
      </trkpt>
      <trkpt lat="42.56859" lon="1.81897">
        <ele>2002.08</ele>
        <time>2025-02-15T09:41:50Z</time>
      </trkpt>
      <trkpt lat="42.56866" lon="1.81912">
        <ele>2004.01</ele>
        <time>2025-02-15T09:42:07Z</time>
      </trkpt>
      <trkpt lat="42.56873" lon="1.81923">
        <ele>2004.97</ele>
        <time>2025-02-15T09:42:23Z</time>
      </trkpt>
      <trkpt lat="42.56878" lon="1.81935">
        <ele>2005.45</ele>
        <time>2025-02-15T09:42:37Z</time>
      </trkpt>
      <trkpt lat="42.56886" lon="1.81948">
        <ele>2007.85</ele>
        <time>2025-02-15T09:42:55Z</time>
      </trkpt>
      <trkpt lat="42.56894" lon="1.81957">
        <ele>2008.33</ele>
        <time>2025-02-15T09:43:10Z</time>
      </trkpt>
      <trkpt lat="42.56902" lon="1.81968">
        <ele>2009.29</ele>
        <time>2025-02-15T09:43:26Z</time>
      </trkpt>
      <trkpt lat="42.56905" lon="1.81981">
        <ele>2010.25</ele>
        <time>2025-02-15T09:43:40Z</time>
      </trkpt>
      <trkpt lat="42.56909" lon="1.81994">
        <ele>2012.18</ele>
        <time>2025-02-15T09:43:57Z</time>
      </trkpt>
      <trkpt lat="42.56915" lon="1.82009">
        <ele>2013.62</ele>
        <time>2025-02-15T09:44:12Z</time>
      </trkpt>
      <trkpt lat="42.56921" lon="1.82022">
        <ele>2014.58</ele>
        <time>2025-02-15T09:44:27Z</time>
      </trkpt>
      <trkpt lat="42.56931" lon="1.82032">
        <ele>2014.58</ele>
        <time>2025-02-15T09:44:44Z</time>
      </trkpt>
      <trkpt lat="42.5694" lon="1.8204">
        <ele>2016.02</ele>
        <time>2025-02-15T09:44:58Z</time>
      </trkpt>
      <trkpt lat="42.56946" lon="1.82053">
        <ele>2015.54</ele>
        <time>2025-02-15T09:45:14Z</time>
      </trkpt>
      <trkpt lat="42.56954" lon="1.82066">
        <ele>2016.02</ele>
        <time>2025-02-15T09:45:31Z</time>
      </trkpt>
      <trkpt lat="42.56961" lon="1.82082">
        <ele>2016.5</ele>
        <time>2025-02-15T09:45:48Z</time>
      </trkpt>
      <trkpt lat="42.5697" lon="1.82092">
        <ele>2017.46</ele>
        <time>2025-02-15T09:46:05Z</time>
      </trkpt>
      <trkpt lat="42.56978" lon="1.82105">
        <ele>2018.91</ele>
        <time>2025-02-15T09:46:23Z</time>
      </trkpt>
      <trkpt lat="42.56986" lon="1.82117">
        <ele>2019.87</ele>
        <time>2025-02-15T09:46:40Z</time>
      </trkpt>
      <trkpt lat="42.56991" lon="1.82128">
        <ele>2021.79</ele>
        <time>2025-02-15T09:46:57Z</time>
      </trkpt>
      <trkpt lat="42.56992" lon="1.82128">
        <ele>2022.27</ele>
        <time>2025-02-15T09:46:59Z</time>
      </trkpt>
      <trkpt lat="42.57006" lon="1.82131">
        <ele>2022.75</ele>
        <time>2025-02-15T09:47:13Z</time>
      </trkpt>
      <trkpt lat="42.57015" lon="1.82141">
        <ele>2023.23</ele>
        <time>2025-02-15T09:47:29Z</time>
      </trkpt>
      <trkpt lat="42.57024" lon="1.82152">
        <ele>2024.67</ele>
        <time>2025-02-15T09:47:45Z</time>
      </trkpt>
      <trkpt lat="42.57035" lon="1.82162">
        <ele>2025.64</ele>
        <time>2025-02-15T09:48:04Z</time>
      </trkpt>
      <trkpt lat="42.57046" lon="1.82172">
        <ele>2027.08</ele>
        <time>2025-02-15T09:48:23Z</time>
      </trkpt>
      <trkpt lat="42.57053" lon="1.82186">
        <ele>2029</ele>
        <time>2025-02-15T09:48:39Z</time>
      </trkpt>
      <trkpt lat="42.57055" lon="1.82199">
        <ele>2030.92</ele>
        <time>2025-02-15T09:48:57Z</time>
      </trkpt>
      <trkpt lat="42.5706" lon="1.8221">
        <ele>2032.84</ele>
        <time>2025-02-15T09:49:13Z</time>
      </trkpt>
      <trkpt lat="42.57058" lon="1.82223">
        <ele>2034.77</ele>
        <time>2025-02-15T09:49:27Z</time>
      </trkpt>
      <trkpt lat="42.57059" lon="1.82235">
        <ele>2035.73</ele>
        <time>2025-02-15T09:49:41Z</time>
      </trkpt>
      <trkpt lat="42.57059" lon="1.82247">
        <ele>2037.65</ele>
        <time>2025-02-15T09:49:56Z</time>
      </trkpt>
      <trkpt lat="42.57062" lon="1.82259">
        <ele>2039.09</ele>
        <time>2025-02-15T09:50:11Z</time>
      </trkpt>
      <trkpt lat="42.57068" lon="1.82271">
        <ele>2041.02</ele>
        <time>2025-02-15T09:50:29Z</time>
      </trkpt>
      <trkpt lat="42.57074" lon="1.82284">
        <ele>2041.98</ele>
        <time>2025-02-15T09:50:47Z</time>
      </trkpt>
      <trkpt lat="42.5708" lon="1.82298">
        <ele>2043.9</ele>
        <time>2025-02-15T09:51:06Z</time>
      </trkpt>
      <trkpt lat="42.57084" lon="1.82311">
        <ele>2045.34</ele>
        <time>2025-02-15T09:51:22Z</time>
      </trkpt>
      <trkpt lat="42.57091" lon="1.82323">
        <ele>2046.78</ele>
        <time>2025-02-15T09:51:40Z</time>
      </trkpt>
      <trkpt lat="42.57095" lon="1.82337">
        <ele>2049.19</ele>
        <time>2025-02-15T09:51:58Z</time>
      </trkpt>
      <trkpt lat="42.57099" lon="1.82346">
        <ele>2052.07</ele>
        <time>2025-02-15T09:52:14Z</time>
      </trkpt>
      <trkpt lat="42.57102" lon="1.82358">
        <ele>2052.55</ele>
        <time>2025-02-15T09:52:32Z</time>
      </trkpt>
      <trkpt lat="42.57102" lon="1.82369">
        <ele>2054.47</ele>
        <time>2025-02-15T09:52:48Z</time>
      </trkpt>
      <trkpt lat="42.57103" lon="1.82379">
        <ele>2055.92</ele>
        <time>2025-02-15T09:53:03Z</time>
      </trkpt>
      <trkpt lat="42.57107" lon="1.82388">
        <ele>2057.84</ele>
        <time>2025-02-15T09:53:17Z</time>
      </trkpt>
      <trkpt lat="42.57111" lon="1.82398">
        <ele>2059.28</ele>
        <time>2025-02-15T09:53:31Z</time>
      </trkpt>
      <trkpt lat="42.57118" lon="1.82412">
        <ele>2060.24</ele>
        <time>2025-02-15T09:53:49Z</time>
      </trkpt>
      <trkpt lat="42.57123" lon="1.82419">
        <ele>2062.17</ele>
        <time>2025-02-15T09:54:05Z</time>
      </trkpt>
      <trkpt lat="42.5713" lon="1.82427">
        <ele>2063.61</ele>
        <time>2025-02-15T09:54:24Z</time>
      </trkpt>
      <trkpt lat="42.57136" lon="1.82439">
        <ele>2064.09</ele>
        <time>2025-02-15T09:54:41Z</time>
      </trkpt>
      <trkpt lat="42.57141" lon="1.8245">
        <ele>2065.53</ele>
        <time>2025-02-15T09:54:57Z</time>
      </trkpt>
      <trkpt lat="42.5715" lon="1.8246">
        <ele>2066.49</ele>
        <time>2025-02-15T09:55:14Z</time>
      </trkpt>
      <trkpt lat="42.57151" lon="1.82468">
        <ele>2067.45</ele>
        <time>2025-02-15T09:55:27Z</time>
      </trkpt>
      <trkpt lat="42.57155" lon="1.8248">
        <ele>2070.34</ele>
        <time>2025-02-15T09:55:46Z</time>
      </trkpt>
      <trkpt lat="42.57159" lon="1.82489">
        <ele>2071.78</ele>
        <time>2025-02-15T09:56:03Z</time>
      </trkpt>
      <trkpt lat="42.57164" lon="1.82502">
        <ele>2073.22</ele>
        <time>2025-02-15T09:56:22Z</time>
      </trkpt>
      <trkpt lat="42.57164" lon="1.82514">
        <ele>2075.62</ele>
        <time>2025-02-15T09:56:41Z</time>
      </trkpt>
      <trkpt lat="42.57166" lon="1.82523">
        <ele>2076.59</ele>
        <time>2025-02-15T09:57:00Z</time>
      </trkpt>
      <trkpt lat="42.57166" lon="1.82524">
        <ele>2077.07</ele>
        <time>2025-02-15T09:57:17Z</time>
      </trkpt>
      <trkpt lat="42.57167" lon="1.82527">
        <ele>2077.55</ele>
        <time>2025-02-15T09:57:39Z</time>
      </trkpt>
      <trkpt lat="42.57166" lon="1.82528">
        <ele>2077.55</ele>
        <time>2025-02-15T09:58:01Z</time>
      </trkpt>
      <trkpt lat="42.57166" lon="1.82531">
        <ele>2077.55</ele>
        <time>2025-02-15T09:58:29Z</time>
      </trkpt>
      <trkpt lat="42.57162" lon="1.82529">
        <ele>2077.55</ele>
        <time>2025-02-15T09:59:00Z</time>
      </trkpt>
      <trkpt lat="42.57162" lon="1.82528">
        <ele>2078.03</ele>
        <time>2025-02-15T09:59:29Z</time>
      </trkpt>
      <trkpt lat="42.57162" lon="1.82528">
        <ele>2078.03</ele>
        <time>2025-02-15T09:59:59Z</time>
      </trkpt>
      <trkpt lat="42.57164" lon="1.82532">
        <ele>2078.03</ele>
        <time>2025-02-15T10:00:27Z</time>
      </trkpt>
      <trkpt lat="42.57164" lon="1.82528">
        <ele>2078.03</ele>
        <time>2025-02-15T10:00:58Z</time>
      </trkpt>
      <trkpt lat="42.57168" lon="1.82535">
        <ele>2078.51</ele>
        <time>2025-02-15T10:01:17Z</time>
      </trkpt>
      <trkpt lat="42.57174" lon="1.82543">
        <ele>2078.99</ele>
        <time>2025-02-15T10:01:35Z</time>
      </trkpt>
      <trkpt lat="42.57171" lon="1.82546">
        <ele>2078.99</ele>
        <time>2025-02-15T10:02:02Z</time>
      </trkpt>
      <trkpt lat="42.57172" lon="1.82549">
        <ele>2079.47</ele>
        <time>2025-02-15T10:02:25Z</time>
      </trkpt>
      <trkpt lat="42.57174" lon="1.82564">
        <ele>2081.39</ele>
        <time>2025-02-15T10:02:42Z</time>
      </trkpt>
      <trkpt lat="42.5718" lon="1.8258">
        <ele>2083.31</ele>
        <time>2025-02-15T10:03:01Z</time>
      </trkpt>
      <trkpt lat="42.57185" lon="1.82594">
        <ele>2084.76</ele>
        <time>2025-02-15T10:03:18Z</time>
      </trkpt>
      <trkpt lat="42.57192" lon="1.8261">
        <ele>2085.72</ele>
        <time>2025-02-15T10:03:37Z</time>
      </trkpt>
      <trkpt lat="42.572" lon="1.82624">
        <ele>2087.16</ele>
        <time>2025-02-15T10:03:55Z</time>
      </trkpt>
      <trkpt lat="42.57207" lon="1.82636">
        <ele>2088.12</ele>
        <time>2025-02-15T10:04:12Z</time>
      </trkpt>
      <trkpt lat="42.57212" lon="1.82647">
        <ele>2089.08</ele>
        <time>2025-02-15T10:04:26Z</time>
      </trkpt>
      <trkpt lat="42.57217" lon="1.8266">
        <ele>2090.04</ele>
        <time>2025-02-15T10:04:40Z</time>
      </trkpt>
      <trkpt lat="42.57226" lon="1.8267">
        <ele>2091</ele>
        <time>2025-02-15T10:04:55Z</time>
      </trkpt>
      <trkpt lat="42.57232" lon="1.8268">
        <ele>2091.97</ele>
        <time>2025-02-15T10:05:10Z</time>
      </trkpt>
      <trkpt lat="42.57238" lon="1.82695">
        <ele>2093.89</ele>
        <time>2025-02-15T10:05:28Z</time>
      </trkpt>
      <trkpt lat="42.57246" lon="1.82705">
        <ele>2095.33</ele>
        <time>2025-02-15T10:05:43Z</time>
      </trkpt>
      <trkpt lat="42.57252" lon="1.82722">
        <ele>2096.29</ele>
        <time>2025-02-15T10:06:01Z</time>
      </trkpt>
      <trkpt lat="42.57261" lon="1.82733">
        <ele>2097.73</ele>
        <time>2025-02-15T10:06:18Z</time>
      </trkpt>
      <trkpt lat="42.57267" lon="1.82749">
        <ele>2098.7</ele>
        <time>2025-02-15T10:06:36Z</time>
      </trkpt>
      <trkpt lat="42.57275" lon="1.82765">
        <ele>2100.62</ele>
        <time>2025-02-15T10:06:55Z</time>
      </trkpt>
      <trkpt lat="42.57283" lon="1.8278">
        <ele>2101.1</ele>
        <time>2025-02-15T10:07:13Z</time>
      </trkpt>
      <trkpt lat="42.57289" lon="1.8279">
        <ele>2102.54</ele>
        <time>2025-02-15T10:07:29Z</time>
      </trkpt>
      <trkpt lat="42.57297" lon="1.82805">
        <ele>2103.5</ele>
        <time>2025-02-15T10:07:47Z</time>
      </trkpt>
      <trkpt lat="42.57301" lon="1.8282">
        <ele>2104.46</ele>
        <time>2025-02-15T10:08:03Z</time>
      </trkpt>
      <trkpt lat="42.57308" lon="1.82835">
        <ele>2105.91</ele>
        <time>2025-02-15T10:08:21Z</time>
      </trkpt>
      <trkpt lat="42.57314" lon="1.82848">
        <ele>2106.87</ele>
        <time>2025-02-15T10:08:37Z</time>
      </trkpt>
      <trkpt lat="42.5732" lon="1.82858">
        <ele>2107.83</ele>
        <time>2025-02-15T10:08:54Z</time>
      </trkpt>
      <trkpt lat="42.57319" lon="1.82866">
        <ele>2108.79</ele>
        <time>2025-02-15T10:09:09Z</time>
      </trkpt>
      <trkpt lat="42.57323" lon="1.82873">
        <ele>2110.23</ele>
        <time>2025-02-15T10:09:26Z</time>
      </trkpt>
      <trkpt lat="42.57325" lon="1.82876">
        <ele>2110.71</ele>
        <time>2025-02-15T10:09:42Z</time>
      </trkpt>
      <trkpt lat="42.57329" lon="1.82888">
        <ele>2110.71</ele>
        <time>2025-02-15T10:10:02Z</time>
      </trkpt>
      <trkpt lat="42.57338" lon="1.8289">
        <ele>2112.63</ele>
        <time>2025-02-15T10:10:18Z</time>
      </trkpt>
      <trkpt lat="42.57348" lon="1.829">
        <ele>2115.04</ele>
        <time>2025-02-15T10:10:35Z</time>
      </trkpt>
      <trkpt lat="42.57351" lon="1.82908">
        <ele>2116.96</ele>
        <time>2025-02-15T10:10:51Z</time>
      </trkpt>
      <trkpt lat="42.57351" lon="1.82917">
        <ele>2118.88</ele>
        <time>2025-02-15T10:11:10Z</time>
      </trkpt>
      <trkpt lat="42.57354" lon="1.82917">
        <ele>2118.88</ele>
        <time>2025-02-15T10:11:24Z</time>
      </trkpt>
      <trkpt lat="42.57359" lon="1.82926">
        <ele>2120.32</ele>
        <time>2025-02-15T10:11:38Z</time>
      </trkpt>
      <trkpt lat="42.57363" lon="1.82941">
        <ele>2121.77</ele>
        <time>2025-02-15T10:11:57Z</time>
      </trkpt>
      <trkpt lat="42.57365" lon="1.82953">
        <ele>2122.73</ele>
        <time>2025-02-15T10:12:12Z</time>
      </trkpt>
      <trkpt lat="42.57368" lon="1.82966">
        <ele>2124.17</ele>
        <time>2025-02-15T10:12:28Z</time>
      </trkpt>
      <trkpt lat="42.57373" lon="1.82976">
        <ele>2125.13</ele>
        <time>2025-02-15T10:12:44Z</time>
      </trkpt>
      <trkpt lat="42.57377" lon="1.82987">
        <ele>2125.61</ele>
        <time>2025-02-15T10:13:03Z</time>
      </trkpt>
      <trkpt lat="42.57378" lon="1.83001">
        <ele>2126.57</ele>
        <time>2025-02-15T10:13:19Z</time>
      </trkpt>
      <trkpt lat="42.57384" lon="1.83014">
        <ele>2128.02</ele>
        <time>2025-02-15T10:13:36Z</time>
      </trkpt>
      <trkpt lat="42.57388" lon="1.83027">
        <ele>2129.46</ele>
        <time>2025-02-15T10:13:55Z</time>
      </trkpt>
      <trkpt lat="42.57393" lon="1.83043">
        <ele>2130.9</ele>
        <time>2025-02-15T10:14:13Z</time>
      </trkpt>
      <trkpt lat="42.57396" lon="1.83055">
        <ele>2132.34</ele>
        <time>2025-02-15T10:14:30Z</time>
      </trkpt>
      <trkpt lat="42.57399" lon="1.83063">
        <ele>2133.3</ele>
        <time>2025-02-15T10:14:49Z</time>
      </trkpt>
      <trkpt lat="42.574" lon="1.83069">
        <ele>2133.3</ele>
        <time>2025-02-15T10:15:07Z</time>
      </trkpt>
      <trkpt lat="42.57402" lon="1.83065">
        <ele>2133.3</ele>
        <time>2025-02-15T10:15:34Z</time>
      </trkpt>
      <trkpt lat="42.57404" lon="1.83069">
        <ele>2133.3</ele>
        <time>2025-02-15T10:16:05Z</time>
      </trkpt>
      <trkpt lat="42.57411" lon="1.83083">
        <ele>2135.23</ele>
        <time>2025-02-15T10:16:27Z</time>
      </trkpt>
      <trkpt lat="42.57418" lon="1.83094">
        <ele>2136.19</ele>
        <time>2025-02-15T10:16:44Z</time>
      </trkpt>
      <trkpt lat="42.5742" lon="1.83097">
        <ele>2137.15</ele>
        <time>2025-02-15T10:17:01Z</time>
      </trkpt>
      <trkpt lat="42.57425" lon="1.83107">
        <ele>2138.11</ele>
        <time>2025-02-15T10:17:21Z</time>
      </trkpt>
      <trkpt lat="42.57431" lon="1.83121">
        <ele>2139.07</ele>
        <time>2025-02-15T10:17:36Z</time>
      </trkpt>
      <trkpt lat="42.57435" lon="1.83125">
        <ele>2140.03</ele>
        <time>2025-02-15T10:17:47Z</time>
      </trkpt>
      <trkpt lat="42.57443" lon="1.83132">
        <ele>2140.99</ele>
        <time>2025-02-15T10:18:02Z</time>
      </trkpt>
      <trkpt lat="42.57453" lon="1.83142">
        <ele>2142.44</ele>
        <time>2025-02-15T10:18:22Z</time>
      </trkpt>
      <trkpt lat="42.57461" lon="1.83151">
        <ele>2143.4</ele>
        <time>2025-02-15T10:18:42Z</time>
      </trkpt>
      <trkpt lat="42.57462" lon="1.83157">
        <ele>2143.88</ele>
        <time>2025-02-15T10:18:57Z</time>
      </trkpt>
      <trkpt lat="42.57462" lon="1.83155">
        <ele>2143.88</ele>
        <time>2025-02-15T10:19:17Z</time>
      </trkpt>
      <trkpt lat="42.57462" lon="1.83153">
        <ele>2143.88</ele>
        <time>2025-02-15T10:19:34Z</time>
      </trkpt>
      <trkpt lat="42.57462" lon="1.83158">
        <ele>2144.36</ele>
        <time>2025-02-15T10:20:03Z</time>
      </trkpt>
      <trkpt lat="42.57463" lon="1.83163">
        <ele>2144.84</ele>
        <time>2025-02-15T10:20:25Z</time>
      </trkpt>
      <trkpt lat="42.57471" lon="1.83174">
        <ele>2144.84</ele>
        <time>2025-02-15T10:20:42Z</time>
      </trkpt>
      <trkpt lat="42.57481" lon="1.83182">
        <ele>2145.8</ele>
        <time>2025-02-15T10:20:58Z</time>
      </trkpt>
      <trkpt lat="42.5749" lon="1.83187">
        <ele>2146.76</ele>
        <time>2025-02-15T10:21:14Z</time>
      </trkpt>
      <trkpt lat="42.57497" lon="1.83196">
        <ele>2148.2</ele>
        <time>2025-02-15T10:21:33Z</time>
      </trkpt>
      <trkpt lat="42.57503" lon="1.83209">
        <ele>2149.16</ele>
        <time>2025-02-15T10:21:51Z</time>
      </trkpt>
      <trkpt lat="42.57503" lon="1.83216">
        <ele>2149.65</ele>
        <time>2025-02-15T10:22:06Z</time>
      </trkpt>
      <trkpt lat="42.57506" lon="1.83218">
        <ele>2150.13</ele>
        <time>2025-02-15T10:22:25Z</time>
      </trkpt>
      <trkpt lat="42.57508" lon="1.8323">
        <ele>2150.61</ele>
        <time>2025-02-15T10:22:41Z</time>
      </trkpt>
      <trkpt lat="42.5751" lon="1.83245">
        <ele>2151.09</ele>
        <time>2025-02-15T10:22:58Z</time>
      </trkpt>
      <trkpt lat="42.57517" lon="1.83258">
        <ele>2152.05</ele>
        <time>2025-02-15T10:23:14Z</time>
      </trkpt>
      <trkpt lat="42.57522" lon="1.83264">
        <ele>2152.05</ele>
        <time>2025-02-15T10:23:28Z</time>
      </trkpt>
      <trkpt lat="42.57525" lon="1.83265">
        <ele>2152.53</ele>
        <time>2025-02-15T10:23:49Z</time>
      </trkpt>
      <trkpt lat="42.57536" lon="1.83275">
        <ele>2153.49</ele>
        <time>2025-02-15T10:24:09Z</time>
      </trkpt>
      <trkpt lat="42.57547" lon="1.83286">
        <ele>2154.45</ele>
        <time>2025-02-15T10:24:27Z</time>
      </trkpt>
      <trkpt lat="42.5756" lon="1.83298">
        <ele>2155.41</ele>
        <time>2025-02-15T10:24:46Z</time>
      </trkpt>
      <trkpt lat="42.57569" lon="1.83307">
        <ele>2155.89</ele>
        <time>2025-02-15T10:25:01Z</time>
      </trkpt>
      <trkpt lat="42.57576" lon="1.83319">
        <ele>2156.86</ele>
        <time>2025-02-15T10:25:17Z</time>
      </trkpt>
      <trkpt lat="42.57583" lon="1.83332">
        <ele>2157.82</ele>
        <time>2025-02-15T10:25:35Z</time>
      </trkpt>
      <trkpt lat="42.57589" lon="1.83341">
        <ele>2158.78</ele>
        <time>2025-02-15T10:25:50Z</time>
      </trkpt>
      <trkpt lat="42.57596" lon="1.83352">
        <ele>2159.74</ele>
        <time>2025-02-15T10:26:08Z</time>
      </trkpt>
      <trkpt lat="42.57604" lon="1.83364">
        <ele>2161.18</ele>
        <time>2025-02-15T10:26:25Z</time>
      </trkpt>
      <trkpt lat="42.5761" lon="1.83377">
        <ele>2162.14</ele>
        <time>2025-02-15T10:26:40Z</time>
      </trkpt>
      <trkpt lat="42.57614" lon="1.83392">
        <ele>2163.1</ele>
        <time>2025-02-15T10:26:57Z</time>
      </trkpt>
      <trkpt lat="42.5762" lon="1.83409">
        <ele>2164.55</ele>
        <time>2025-02-15T10:27:15Z</time>
      </trkpt>
      <trkpt lat="42.57626" lon="1.83423">
        <ele>2166.47</ele>
        <time>2025-02-15T10:27:32Z</time>
      </trkpt>
      <trkpt lat="42.5763" lon="1.83435">
        <ele>2167.43</ele>
        <time>2025-02-15T10:27:48Z</time>
      </trkpt>
      <trkpt lat="42.57636" lon="1.83448">
        <ele>2168.39</ele>
        <time>2025-02-15T10:28:04Z</time>
      </trkpt>
      <trkpt lat="42.57643" lon="1.8346">
        <ele>2169.83</ele>
        <time>2025-02-15T10:28:20Z</time>
      </trkpt>
      <trkpt lat="42.57649" lon="1.83471">
        <ele>2171.76</ele>
        <time>2025-02-15T10:28:37Z</time>
      </trkpt>
      <trkpt lat="42.57656" lon="1.83481">
        <ele>2173.2</ele>
        <time>2025-02-15T10:28:55Z</time>
      </trkpt>
      <trkpt lat="42.57663" lon="1.83489">
        <ele>2174.16</ele>
        <time>2025-02-15T10:29:11Z</time>
      </trkpt>
      <trkpt lat="42.57671" lon="1.83498">
        <ele>2175.12</ele>
        <time>2025-02-15T10:29:26Z</time>
      </trkpt>
      <trkpt lat="42.57677" lon="1.83509">
        <ele>2176.08</ele>
        <time>2025-02-15T10:29:43Z</time>
      </trkpt>
      <trkpt lat="42.57683" lon="1.83518">
        <ele>2178</ele>
        <time>2025-02-15T10:30:03Z</time>
      </trkpt>
      <trkpt lat="42.57691" lon="1.83527">
        <ele>2179.45</ele>
        <time>2025-02-15T10:30:21Z</time>
      </trkpt>
      <trkpt lat="42.57696" lon="1.83532">
        <ele>2180.41</ele>
        <time>2025-02-15T10:30:37Z</time>
      </trkpt>
      <trkpt lat="42.57705" lon="1.83535">
        <ele>2181.37</ele>
        <time>2025-02-15T10:30:52Z</time>
      </trkpt>
      <trkpt lat="42.57712" lon="1.83536">
        <ele>2182.81</ele>
        <time>2025-02-15T10:31:07Z</time>
      </trkpt>
      <trkpt lat="42.57714" lon="1.83534">
        <ele>2183.29</ele>
        <time>2025-02-15T10:31:26Z</time>
      </trkpt>
      <trkpt lat="42.57714" lon="1.83537">
        <ele>2183.77</ele>
        <time>2025-02-15T10:31:38Z</time>
      </trkpt>
      <trkpt lat="42.57721" lon="1.83545">
        <ele>2185.21</ele>
        <time>2025-02-15T10:31:53Z</time>
      </trkpt>
      <trkpt lat="42.57727" lon="1.83546">
        <ele>2187.14</ele>
        <time>2025-02-15T10:32:10Z</time>
      </trkpt>
      <trkpt lat="42.57733" lon="1.83548">
        <ele>2188.58</ele>
        <time>2025-02-15T10:32:25Z</time>
      </trkpt>
      <trkpt lat="42.57741" lon="1.83553">
        <ele>2190.5</ele>
        <time>2025-02-15T10:32:40Z</time>
      </trkpt>
      <trkpt lat="42.57748" lon="1.83558">
        <ele>2191.94</ele>
        <time>2025-02-15T10:32:58Z</time>
      </trkpt>
      <trkpt lat="42.57753" lon="1.83563">
        <ele>2193.87</ele>
        <time>2025-02-15T10:33:13Z</time>
      </trkpt>
      <trkpt lat="42.57755" lon="1.83574">
        <ele>2195.31</ele>
        <time>2025-02-15T10:33:30Z</time>
      </trkpt>
      <trkpt lat="42.5776" lon="1.83583">
        <ele>2196.75</ele>
        <time>2025-02-15T10:33:45Z</time>
      </trkpt>
      <trkpt lat="42.57765" lon="1.83589">
        <ele>2198.19</ele>
        <time>2025-02-15T10:34:01Z</time>
      </trkpt>
      <trkpt lat="42.57769" lon="1.83592">
        <ele>2199.63</ele>
        <time>2025-02-15T10:34:16Z</time>
      </trkpt>
      <trkpt lat="42.57774" lon="1.83595">
        <ele>2201.08</ele>
        <time>2025-02-15T10:34:32Z</time>
      </trkpt>
      <trkpt lat="42.57779" lon="1.83606">
        <ele>2203</ele>
        <time>2025-02-15T10:34:49Z</time>
      </trkpt>
      <trkpt lat="42.5778" lon="1.83613">
        <ele>2203.48</ele>
        <time>2025-02-15T10:35:01Z</time>
      </trkpt>
      <trkpt lat="42.57789" lon="1.83618">
        <ele>2205.4</ele>
        <time>2025-02-15T10:35:18Z</time>
      </trkpt>
      <trkpt lat="42.57796" lon="1.83623">
        <ele>2207.32</ele>
        <time>2025-02-15T10:35:34Z</time>
      </trkpt>
      <trkpt lat="42.57801" lon="1.83627">
        <ele>2208.77</ele>
        <time>2025-02-15T10:35:50Z</time>
      </trkpt>
      <trkpt lat="42.57806" lon="1.83633">
        <ele>2211.17</ele>
        <time>2025-02-15T10:36:06Z</time>
      </trkpt>
      <trkpt lat="42.57812" lon="1.83639">
        <ele>2213.09</ele>
        <time>2025-02-15T10:36:23Z</time>
      </trkpt>
      <trkpt lat="42.57815" lon="1.83647">
        <ele>2214.53</ele>
        <time>2025-02-15T10:36:38Z</time>
      </trkpt>
      <trkpt lat="42.57818" lon="1.83655">
        <ele>2216.46</ele>
        <time>2025-02-15T10:36:55Z</time>
      </trkpt>
      <trkpt lat="42.57821" lon="1.83661">
        <ele>2218.38</ele>
        <time>2025-02-15T10:37:13Z</time>
      </trkpt>
      <trkpt lat="42.57826" lon="1.83671">
        <ele>2219.82</ele>
        <time>2025-02-15T10:37:30Z</time>
      </trkpt>
      <trkpt lat="42.57826" lon="1.83676">
        <ele>2220.78</ele>
        <time>2025-02-15T10:37:45Z</time>
      </trkpt>
      <trkpt lat="42.57829" lon="1.83685">
        <ele>2223.19</ele>
        <time>2025-02-15T10:38:02Z</time>
      </trkpt>
      <trkpt lat="42.57832" lon="1.83689">
        <ele>2224.63</ele>
        <time>2025-02-15T10:38:17Z</time>
      </trkpt>
      <trkpt lat="42.57838" lon="1.83692">
        <ele>2226.07</ele>
        <time>2025-02-15T10:38:32Z</time>
      </trkpt>
      <trkpt lat="42.57843" lon="1.83697">
        <ele>2227.51</ele>
        <time>2025-02-15T10:38:49Z</time>
      </trkpt>
      <trkpt lat="42.57848" lon="1.83704">
        <ele>2229.43</ele>
        <time>2025-02-15T10:39:06Z</time>
      </trkpt>
      <trkpt lat="42.57852" lon="1.8371">
        <ele>2230.4</ele>
        <time>2025-02-15T10:39:24Z</time>
      </trkpt>
      <trkpt lat="42.57854" lon="1.83717">
        <ele>2232.32</ele>
        <time>2025-02-15T10:39:40Z</time>
      </trkpt>
      <trkpt lat="42.57857" lon="1.83723">
        <ele>2233.76</ele>
        <time>2025-02-15T10:39:56Z</time>
      </trkpt>
      <trkpt lat="42.5786" lon="1.83731">
        <ele>2236.16</ele>
        <time>2025-02-15T10:40:14Z</time>
      </trkpt>
      <trkpt lat="42.57862" lon="1.83736">
        <ele>2237.61</ele>
        <time>2025-02-15T10:40:31Z</time>
      </trkpt>
      <trkpt lat="42.57867" lon="1.83743">
        <ele>2239.05</ele>
        <time>2025-02-15T10:40:44Z</time>
      </trkpt>
      <trkpt lat="42.5787" lon="1.83748">
        <ele>2240.01</ele>
        <time>2025-02-15T10:40:57Z</time>
      </trkpt>
      <trkpt lat="42.57874" lon="1.83755">
        <ele>2242.41</ele>
        <time>2025-02-15T10:41:16Z</time>
      </trkpt>
      <trkpt lat="42.57875" lon="1.83762">
        <ele>2243.37</ele>
        <time>2025-02-15T10:41:31Z</time>
      </trkpt>
      <trkpt lat="42.57874" lon="1.83773">
        <ele>2245.78</ele>
        <time>2025-02-15T10:41:49Z</time>
      </trkpt>
      <trkpt lat="42.57875" lon="1.8378">
        <ele>2247.22</ele>
        <time>2025-02-15T10:42:06Z</time>
      </trkpt>
      <trkpt lat="42.57878" lon="1.83784">
        <ele>2248.18</ele>
        <time>2025-02-15T10:42:21Z</time>
      </trkpt>
      <trkpt lat="42.57879" lon="1.83788">
        <ele>2249.62</ele>
        <time>2025-02-15T10:42:41Z</time>
      </trkpt>
      <trkpt lat="42.5788" lon="1.83793">
        <ele>2250.1</ele>
        <time>2025-02-15T10:42:57Z</time>
      </trkpt>
      <trkpt lat="42.5788" lon="1.83801">
        <ele>2252.03</ele>
        <time>2025-02-15T10:43:14Z</time>
      </trkpt>
      <trkpt lat="42.57881" lon="1.83809">
        <ele>2254.43</ele>
        <time>2025-02-15T10:43:32Z</time>
      </trkpt>
      <trkpt lat="42.57883" lon="1.83817">
        <ele>2255.87</ele>
        <time>2025-02-15T10:43:50Z</time>
      </trkpt>
      <trkpt lat="42.57885" lon="1.83825">
        <ele>2260.2</ele>
        <time>2025-02-15T10:44:07Z</time>
      </trkpt>
      <trkpt lat="42.57888" lon="1.83833">
        <ele>2260.2</ele>
        <time>2025-02-15T10:44:24Z</time>
      </trkpt>
      <trkpt lat="42.57889" lon="1.83843">
        <ele>2261.64</ele>
        <time>2025-02-15T10:44:41Z</time>
      </trkpt>
      <trkpt lat="42.5789" lon="1.83851">
        <ele>2263.56</ele>
        <time>2025-02-15T10:44:59Z</time>
      </trkpt>
      <trkpt lat="42.57891" lon="1.83857">
        <ele>2265.48</ele>
        <time>2025-02-15T10:45:15Z</time>
      </trkpt>
      <trkpt lat="42.57895" lon="1.83864">
        <ele>2266.93</ele>
        <time>2025-02-15T10:45:33Z</time>
      </trkpt>
      <trkpt lat="42.57897" lon="1.83869">
        <ele>2267.41</ele>
        <time>2025-02-15T10:45:48Z</time>
      </trkpt>
      <trkpt lat="42.579" lon="1.83882">
        <ele>2270.29</ele>
        <time>2025-02-15T10:46:10Z</time>
      </trkpt>
      <trkpt lat="42.57903" lon="1.83891">
        <ele>2271.73</ele>
        <time>2025-02-15T10:46:27Z</time>
      </trkpt>
      <trkpt lat="42.57905" lon="1.83901">
        <ele>2274.14</ele>
        <time>2025-02-15T10:46:49Z</time>
      </trkpt>
      <trkpt lat="42.57909" lon="1.83909">
        <ele>2275.58</ele>
        <time>2025-02-15T10:47:06Z</time>
      </trkpt>
      <trkpt lat="42.57906" lon="1.8391">
        <ele>2276.06</ele>
        <time>2025-02-15T10:47:26Z</time>
      </trkpt>
      <trkpt lat="42.57908" lon="1.83913">
        <ele>2277.02</ele>
        <time>2025-02-15T10:47:53Z</time>
      </trkpt>
      <trkpt lat="42.5791" lon="1.8392">
        <ele>2277.98</ele>
        <time>2025-02-15T10:48:11Z</time>
      </trkpt>
      <trkpt lat="42.5791" lon="1.83929">
        <ele>2279.42</ele>
        <time>2025-02-15T10:48:26Z</time>
      </trkpt>
      <trkpt lat="42.57912" lon="1.83939">
        <ele>2281.35</ele>
        <time>2025-02-15T10:48:44Z</time>
      </trkpt>
      <trkpt lat="42.57914" lon="1.83948">
        <ele>2283.27</ele>
        <time>2025-02-15T10:49:03Z</time>
      </trkpt>
      <trkpt lat="42.57916" lon="1.83959">
        <ele>2285.19</ele>
        <time>2025-02-15T10:49:24Z</time>
      </trkpt>
      <trkpt lat="42.57918" lon="1.8397">
        <ele>2287.59</ele>
        <time>2025-02-15T10:49:46Z</time>
      </trkpt>
      <trkpt lat="42.57918" lon="1.83984">
        <ele>2289.52</ele>
        <time>2025-02-15T10:50:07Z</time>
      </trkpt>
      <trkpt lat="42.57917" lon="1.8399">
        <ele>2290.48</ele>
        <time>2025-02-15T10:50:20Z</time>
      </trkpt>
      <trkpt lat="42.57918" lon="1.83997">
        <ele>2291.92</ele>
        <time>2025-02-15T10:50:39Z</time>
      </trkpt>
      <trkpt lat="42.57921" lon="1.84001">
        <ele>2293.36</ele>
        <time>2025-02-15T10:50:58Z</time>
      </trkpt>
      <trkpt lat="42.5792" lon="1.84">
        <ele>2293.36</ele>
        <time>2025-02-15T10:51:28Z</time>
      </trkpt>
      <trkpt lat="42.57918" lon="1.84">
        <ele>2293.36</ele>
        <time>2025-02-15T10:52:02Z</time>
      </trkpt>
      <trkpt lat="42.57919" lon="1.84002">
        <ele>2293.84</ele>
        <time>2025-02-15T10:52:32Z</time>
      </trkpt>
      <trkpt lat="42.57924" lon="1.84008">
        <ele>2295.77</ele>
        <time>2025-02-15T10:52:48Z</time>
      </trkpt>
      <trkpt lat="42.57927" lon="1.84012">
        <ele>2297.69</ele>
        <time>2025-02-15T10:53:06Z</time>
      </trkpt>
      <trkpt lat="42.57929" lon="1.84021">
        <ele>2300.57</ele>
        <time>2025-02-15T10:53:26Z</time>
      </trkpt>
      <trkpt lat="42.5793" lon="1.84023">
        <ele>2302.01</ele>
        <time>2025-02-15T10:53:48Z</time>
      </trkpt>
      <trkpt lat="42.57935" lon="1.84027">
        <ele>2302.98</ele>
        <time>2025-02-15T10:54:11Z</time>
      </trkpt>
      <trkpt lat="42.57936" lon="1.84037">
        <ele>2304.9</ele>
        <time>2025-02-15T10:54:30Z</time>
      </trkpt>
      <trkpt lat="42.57936" lon="1.84045">
        <ele>2307.78</ele>
        <time>2025-02-15T10:54:51Z</time>
      </trkpt>
      <trkpt lat="42.57938" lon="1.84052">
        <ele>2309.22</ele>
        <time>2025-02-15T10:55:08Z</time>
      </trkpt>
      <trkpt lat="42.57941" lon="1.84059">
        <ele>2311.63</ele>
        <time>2025-02-15T10:55:27Z</time>
      </trkpt>
      <trkpt lat="42.5794" lon="1.84065">
        <ele>2313.07</ele>
        <time>2025-02-15T10:55:44Z</time>
      </trkpt>
      <trkpt lat="42.57941" lon="1.84071">
        <ele>2314.51</ele>
        <time>2025-02-15T10:56:00Z</time>
      </trkpt>
      <trkpt lat="42.57944" lon="1.84077">
        <ele>2316.43</ele>
        <time>2025-02-15T10:56:21Z</time>
      </trkpt>
      <trkpt lat="42.57944" lon="1.84084">
        <ele>2318.84</ele>
        <time>2025-02-15T10:56:37Z</time>
      </trkpt>
      <trkpt lat="42.5795" lon="1.84089">
        <ele>2320.28</ele>
        <time>2025-02-15T10:56:52Z</time>
      </trkpt>
      <trkpt lat="42.57953" lon="1.84095">
        <ele>2321.72</ele>
        <time>2025-02-15T10:57:10Z</time>
      </trkpt>
      <trkpt lat="42.57954" lon="1.84099">
        <ele>2323.16</ele>
        <time>2025-02-15T10:57:27Z</time>
      </trkpt>
      <trkpt lat="42.57952" lon="1.84102">
        <ele>2324.61</ele>
        <time>2025-02-15T10:57:43Z</time>
      </trkpt>
      <trkpt lat="42.57953" lon="1.8411">
        <ele>2327.01</ele>
        <time>2025-02-15T10:58:04Z</time>
      </trkpt>
      <trkpt lat="42.57954" lon="1.84121">
        <ele>2328.93</ele>
        <time>2025-02-15T10:58:27Z</time>
      </trkpt>
      <trkpt lat="42.57956" lon="1.84126">
        <ele>2330.85</ele>
        <time>2025-02-15T10:58:41Z</time>
      </trkpt>
      <trkpt lat="42.57959" lon="1.8413">
        <ele>2332.78</ele>
        <time>2025-02-15T10:59:01Z</time>
      </trkpt>
      <trkpt lat="42.57963" lon="1.84136">
        <ele>2334.7</ele>
        <time>2025-02-15T10:59:17Z</time>
      </trkpt>
      <trkpt lat="42.57962" lon="1.84141">
        <ele>2335.18</ele>
        <time>2025-02-15T10:59:34Z</time>
      </trkpt>
      <trkpt lat="42.57962" lon="1.84141">
        <ele>2335.66</ele>
        <time>2025-02-15T10:59:59Z</time>
      </trkpt>
      <trkpt lat="42.57964" lon="1.84151">
        <ele>2337.1</ele>
        <time>2025-02-15T11:00:18Z</time>
      </trkpt>
      <trkpt lat="42.57962" lon="1.84156">
        <ele>2339.02</ele>
        <time>2025-02-15T11:00:32Z</time>
      </trkpt>
      <trkpt lat="42.57964" lon="1.8416">
        <ele>2340.47</ele>
        <time>2025-02-15T11:00:50Z</time>
      </trkpt>
      <trkpt lat="42.57965" lon="1.84169">
        <ele>2342.39</ele>
        <time>2025-02-15T11:01:10Z</time>
      </trkpt>
      <trkpt lat="42.57967" lon="1.84172">
        <ele>2343.35</ele>
        <time>2025-02-15T11:01:28Z</time>
      </trkpt>
      <trkpt lat="42.57966" lon="1.84175">
        <ele>2344.31</ele>
        <time>2025-02-15T11:01:49Z</time>
      </trkpt>
      <trkpt lat="42.57965" lon="1.84179">
        <ele>2345.75</ele>
        <time>2025-02-15T11:02:11Z</time>
      </trkpt>
      <trkpt lat="42.57963" lon="1.84181">
        <ele>2346.72</ele>
        <time>2025-02-15T11:02:30Z</time>
      </trkpt>
      <trkpt lat="42.57962" lon="1.84179">
        <ele>2347.68</ele>
        <time>2025-02-15T11:02:52Z</time>
      </trkpt>
      <trkpt lat="42.5796" lon="1.84182">
        <ele>2349.12</ele>
        <time>2025-02-15T11:03:13Z</time>
      </trkpt>
      <trkpt lat="42.57962" lon="1.84186">
        <ele>2350.56</ele>
        <time>2025-02-15T11:03:35Z</time>
      </trkpt>
      <trkpt lat="42.57965" lon="1.84191">
        <ele>2352</ele>
        <time>2025-02-15T11:03:53Z</time>
      </trkpt>
      <trkpt lat="42.57964" lon="1.84195">
        <ele>2353.93</ele>
        <time>2025-02-15T11:04:12Z</time>
      </trkpt>
      <trkpt lat="42.57966" lon="1.84204">
        <ele>2355.85</ele>
        <time>2025-02-15T11:04:34Z</time>
      </trkpt>
      <trkpt lat="42.57968" lon="1.84209">
        <ele>2357.29</ele>
        <time>2025-02-15T11:04:50Z</time>
      </trkpt>
      <trkpt lat="42.57971" lon="1.84214">
        <ele>2358.73</ele>
        <time>2025-02-15T11:05:07Z</time>
      </trkpt>
      <trkpt lat="42.57972" lon="1.84219">
        <ele>2361.14</ele>
        <time>2025-02-15T11:05:27Z</time>
      </trkpt>
      <trkpt lat="42.57974" lon="1.84225">
        <ele>2362.58</ele>
        <time>2025-02-15T11:05:45Z</time>
      </trkpt>
      <trkpt lat="42.57974" lon="1.84235">
        <ele>2364.5</ele>
        <time>2025-02-15T11:06:05Z</time>
      </trkpt>
      <trkpt lat="42.57974" lon="1.84242">
        <ele>2366.42</ele>
        <time>2025-02-15T11:06:24Z</time>
      </trkpt>
      <trkpt lat="42.57976" lon="1.84249">
        <ele>2367.86</ele>
        <time>2025-02-15T11:06:43Z</time>
      </trkpt>
      <trkpt lat="42.57977" lon="1.84258">
        <ele>2369.31</ele>
        <time>2025-02-15T11:07:02Z</time>
      </trkpt>
      <trkpt lat="42.57979" lon="1.84269">
        <ele>2370.75</ele>
        <time>2025-02-15T11:07:24Z</time>
      </trkpt>
      <trkpt lat="42.57975" lon="1.84275">
        <ele>2373.15</ele>
        <time>2025-02-15T11:07:45Z</time>
      </trkpt>
      <trkpt lat="42.57975" lon="1.84283">
        <ele>2375.07</ele>
        <time>2025-02-15T11:08:06Z</time>
      </trkpt>
      <trkpt lat="42.57974" lon="1.84291">
        <ele>2377</ele>
        <time>2025-02-15T11:08:26Z</time>
      </trkpt>
      <trkpt lat="42.57976" lon="1.84298">
        <ele>2379.4</ele>
        <time>2025-02-15T11:08:49Z</time>
      </trkpt>
      <trkpt lat="42.57975" lon="1.84304">
        <ele>2381.32</ele>
        <time>2025-02-15T11:09:08Z</time>
      </trkpt>
      <trkpt lat="42.57976" lon="1.84309">
        <ele>2382.76</ele>
        <time>2025-02-15T11:09:29Z</time>
      </trkpt>
      <trkpt lat="42.57975" lon="1.84324">
        <ele>2384.69</ele>
        <time>2025-02-15T11:09:51Z</time>
      </trkpt>
      <trkpt lat="42.57974" lon="1.84337">
        <ele>2386.61</ele>
        <time>2025-02-15T11:10:11Z</time>
      </trkpt>
      <trkpt lat="42.57973" lon="1.84348">
        <ele>2388.05</ele>
        <time>2025-02-15T11:10:29Z</time>
      </trkpt>
      <trkpt lat="42.57974" lon="1.84362">
        <ele>2389.49</ele>
        <time>2025-02-15T11:10:52Z</time>
      </trkpt>
      <trkpt lat="42.57972" lon="1.84372">
        <ele>2391.42</ele>
        <time>2025-02-15T11:11:12Z</time>
      </trkpt>
      <trkpt lat="42.57971" lon="1.84383">
        <ele>2392.86</ele>
        <time>2025-02-15T11:11:32Z</time>
      </trkpt>
      <trkpt lat="42.5797" lon="1.84389">
        <ele>2395.26</ele>
        <time>2025-02-15T11:11:53Z</time>
      </trkpt>
      <trkpt lat="42.57965" lon="1.84405">
        <ele>2396.7</ele>
        <time>2025-02-15T11:12:13Z</time>
      </trkpt>
      <trkpt lat="42.57971" lon="1.84421">
        <ele>2396.7</ele>
        <time>2025-02-15T11:12:30Z</time>
      </trkpt>
      <trkpt lat="42.57979" lon="1.84437">
        <ele>2396.7</ele>
        <time>2025-02-15T11:12:47Z</time>
      </trkpt>
      <trkpt lat="42.57981" lon="1.84449">
        <ele>2397.67</ele>
        <time>2025-02-15T11:13:06Z</time>
      </trkpt>
      <trkpt lat="42.57986" lon="1.84461">
        <ele>2398.15</ele>
        <time>2025-02-15T11:13:27Z</time>
      </trkpt>
      <trkpt lat="42.57992" lon="1.84471">
        <ele>2399.11</ele>
        <time>2025-02-15T11:13:42Z</time>
      </trkpt>
      <trkpt lat="42.57997" lon="1.84479">
        <ele>2399.59</ele>
        <time>2025-02-15T11:13:56Z</time>
      </trkpt>
      <trkpt lat="42.58004" lon="1.84488">
        <ele>2401.03</ele>
        <time>2025-02-15T11:14:14Z</time>
      </trkpt>
      <trkpt lat="42.58005" lon="1.84499">
        <ele>2402.47</ele>
        <time>2025-02-15T11:14:34Z</time>
      </trkpt>
      <trkpt lat="42.58007" lon="1.84511">
        <ele>2404.88</ele>
        <time>2025-02-15T11:14:55Z</time>
      </trkpt>
      <trkpt lat="42.58012" lon="1.84521">
        <ele>2405.36</ele>
        <time>2025-02-15T11:15:11Z</time>
      </trkpt>
      <trkpt lat="42.58019" lon="1.84531">
        <ele>2406.8</ele>
        <time>2025-02-15T11:15:28Z</time>
      </trkpt>
      <trkpt lat="42.58021" lon="1.8454">
        <ele>2408.24</ele>
        <time>2025-02-15T11:15:44Z</time>
      </trkpt>
      <trkpt lat="42.58023" lon="1.84546">
        <ele>2410.16</ele>
        <time>2025-02-15T11:16:01Z</time>
      </trkpt>
      <trkpt lat="42.58025" lon="1.84557">
        <ele>2411.12</ele>
        <time>2025-02-15T11:16:21Z</time>
      </trkpt>
      <trkpt lat="42.58027" lon="1.84569">
        <ele>2413.05</ele>
        <time>2025-02-15T11:16:41Z</time>
      </trkpt>
      <trkpt lat="42.58034" lon="1.84579">
        <ele>2414.01</ele>
        <time>2025-02-15T11:17:01Z</time>
      </trkpt>
      <trkpt lat="42.5804" lon="1.84584">
        <ele>2415.45</ele>
        <time>2025-02-15T11:17:18Z</time>
      </trkpt>
      <trkpt lat="42.58047" lon="1.84595">
        <ele>2416.41</ele>
        <time>2025-02-15T11:17:37Z</time>
      </trkpt>
      <trkpt lat="42.58056" lon="1.84606">
        <ele>2416.89</ele>
        <time>2025-02-15T11:17:53Z</time>
      </trkpt>
      <trkpt lat="42.58062" lon="1.84613">
        <ele>2416.89</ele>
        <time>2025-02-15T11:18:10Z</time>
      </trkpt>
      <trkpt lat="42.58059" lon="1.84613">
        <ele>2416.89</ele>
        <time>2025-02-15T11:18:23Z</time>
      </trkpt>
      <trkpt lat="42.5807" lon="1.84628">
        <ele>2416.89</ele>
        <time>2025-02-15T11:18:40Z</time>
      </trkpt>
      <trkpt lat="42.58073" lon="1.84643">
        <ele>2417.37</ele>
        <time>2025-02-15T11:18:55Z</time>
      </trkpt>
      <trkpt lat="42.58077" lon="1.8465">
        <ele>2417.85</ele>
        <time>2025-02-15T11:19:05Z</time>
      </trkpt>
      <trkpt lat="42.58081" lon="1.84661">
        <ele>2417.85</ele>
        <time>2025-02-15T11:19:20Z</time>
      </trkpt>
      <trkpt lat="42.58086" lon="1.84674">
        <ele>2418.33</ele>
        <time>2025-02-15T11:19:36Z</time>
      </trkpt>
      <trkpt lat="42.58091" lon="1.84691">
        <ele>2418.81</ele>
        <time>2025-02-15T11:19:53Z</time>
      </trkpt>
      <trkpt lat="42.58088" lon="1.84705">
        <ele>2420.26</ele>
        <time>2025-02-15T11:20:12Z</time>
      </trkpt>
      <trkpt lat="42.58095" lon="1.84718">
        <ele>2421.22</ele>
        <time>2025-02-15T11:20:31Z</time>
      </trkpt>
      <trkpt lat="42.58101" lon="1.84728">
        <ele>2422.18</ele>
        <time>2025-02-15T11:20:49Z</time>
      </trkpt>
      <trkpt lat="42.58103" lon="1.84738">
        <ele>2423.62</ele>
        <time>2025-02-15T11:21:08Z</time>
      </trkpt>
      <trkpt lat="42.58108" lon="1.84748">
        <ele>2424.1</ele>
        <time>2025-02-15T11:21:24Z</time>
      </trkpt>
      <trkpt lat="42.58115" lon="1.84764">
        <ele>2425.54</ele>
        <time>2025-02-15T11:21:44Z</time>
      </trkpt>
      <trkpt lat="42.5812" lon="1.8478">
        <ele>2426.02</ele>
        <time>2025-02-15T11:22:04Z</time>
      </trkpt>
      <trkpt lat="42.58121" lon="1.84789">
        <ele>2426.5</ele>
        <time>2025-02-15T11:22:22Z</time>
      </trkpt>
      <trkpt lat="42.58124" lon="1.8479">
        <ele>2426.99</ele>
        <time>2025-02-15T11:22:43Z</time>
      </trkpt>
      <trkpt lat="42.58125" lon="1.8479">
        <ele>2426.99</ele>
        <time>2025-02-15T11:23:09Z</time>
      </trkpt>
      <trkpt lat="42.58123" lon="1.84791">
        <ele>2426.99</ele>
        <time>2025-02-15T11:23:27Z</time>
      </trkpt>
      <trkpt lat="42.58121" lon="1.8479">
        <ele>2426.99</ele>
        <time>2025-02-15T11:23:52Z</time>
      </trkpt>
      <trkpt lat="42.58119" lon="1.84789">
        <ele>2426.99</ele>
        <time>2025-02-15T11:24:17Z</time>
      </trkpt>
      <trkpt lat="42.58121" lon="1.84791">
        <ele>2426.5</ele>
        <time>2025-02-15T11:24:49Z</time>
      </trkpt>
      <trkpt lat="42.5812" lon="1.84791">
        <ele>2426.5</ele>
        <time>2025-02-15T11:25:11Z</time>
      </trkpt>
      <trkpt lat="42.5812" lon="1.84791">
        <ele>2426.99</ele>
        <time>2025-02-15T11:25:43Z</time>
      </trkpt>
      <trkpt lat="42.5812" lon="1.84794">
        <ele>2426.99</ele>
        <time>2025-02-15T11:26:14Z</time>
      </trkpt>
      <trkpt lat="42.5812" lon="1.84795">
        <ele>2426.99</ele>
        <time>2025-02-15T11:26:42Z</time>
      </trkpt>
      <trkpt lat="42.58121" lon="1.84793">
        <ele>2426.99</ele>
        <time>2025-02-15T11:27:11Z</time>
      </trkpt>
      <trkpt lat="42.58127" lon="1.84791">
        <ele>2426.99</ele>
        <time>2025-02-15T11:27:38Z</time>
      </trkpt>
      <trkpt lat="42.58127" lon="1.84791">
        <ele>2426.99</ele>
        <time>2025-02-15T11:27:55Z</time>
      </trkpt>
      <trkpt lat="42.58126" lon="1.84793">
        <ele>2426.5</ele>
        <time>2025-02-15T11:28:27Z</time>
      </trkpt>
      <trkpt lat="42.58126" lon="1.84794">
        <ele>2426.99</ele>
        <time>2025-02-15T11:28:54Z</time>
      </trkpt>
      <trkpt lat="42.58124" lon="1.84793">
        <ele>2426.99</ele>
        <time>2025-02-15T11:29:30Z</time>
      </trkpt>
      <trkpt lat="42.58125" lon="1.84796">
        <ele>2426.99</ele>
        <time>2025-02-15T11:29:59Z</time>
      </trkpt>
      <trkpt lat="42.58132" lon="1.84804">
        <ele>2427.95</ele>
        <time>2025-02-15T11:30:15Z</time>
      </trkpt>
      <trkpt lat="42.58135" lon="1.84818">
        <ele>2428.91</ele>
        <time>2025-02-15T11:30:33Z</time>
      </trkpt>
      <trkpt lat="42.5814" lon="1.84834">
        <ele>2429.39</ele>
        <time>2025-02-15T11:30:52Z</time>
      </trkpt>
      <trkpt lat="42.58147" lon="1.84849">
        <ele>2430.35</ele>
        <time>2025-02-15T11:31:11Z</time>
      </trkpt>
      <trkpt lat="42.58154" lon="1.84864">
        <ele>2430.35</ele>
        <time>2025-02-15T11:31:30Z</time>
      </trkpt>
      <trkpt lat="42.5816" lon="1.84878">
        <ele>2431.31</ele>
        <time>2025-02-15T11:31:49Z</time>
      </trkpt>
      <trkpt lat="42.58165" lon="1.84891">
        <ele>2432.75</ele>
        <time>2025-02-15T11:32:08Z</time>
      </trkpt>
      <trkpt lat="42.58168" lon="1.84904">
        <ele>2433.71</ele>
        <time>2025-02-15T11:32:28Z</time>
      </trkpt>
      <trkpt lat="42.58173" lon="1.84913">
        <ele>2435.64</ele>
        <time>2025-02-15T11:32:46Z</time>
      </trkpt>
      <trkpt lat="42.58174" lon="1.84923">
        <ele>2436.6</ele>
        <time>2025-02-15T11:33:02Z</time>
      </trkpt>
      <trkpt lat="42.58177" lon="1.84935">
        <ele>2438.04</ele>
        <time>2025-02-15T11:33:23Z</time>
      </trkpt>
      <trkpt lat="42.58175" lon="1.84952">
        <ele>2439</ele>
        <time>2025-02-15T11:33:45Z</time>
      </trkpt>
      <trkpt lat="42.58177" lon="1.84966">
        <ele>2440.44</ele>
        <time>2025-02-15T11:34:06Z</time>
      </trkpt>
      <trkpt lat="42.58177" lon="1.84983">
        <ele>2441.89</ele>
        <time>2025-02-15T11:34:30Z</time>
      </trkpt>
      <trkpt lat="42.58179" lon="1.84998">
        <ele>2442.37</ele>
        <time>2025-02-15T11:34:49Z</time>
      </trkpt>
      <trkpt lat="42.58182" lon="1.85007">
        <ele>2443.81</ele>
        <time>2025-02-15T11:35:05Z</time>
      </trkpt>
      <trkpt lat="42.58185" lon="1.85015">
        <ele>2444.77</ele>
        <time>2025-02-15T11:35:21Z</time>
      </trkpt>
      <trkpt lat="42.58188" lon="1.85025">
        <ele>2445.73</ele>
        <time>2025-02-15T11:35:37Z</time>
      </trkpt>
      <trkpt lat="42.58196" lon="1.8503">
        <ele>2447.65</ele>
        <time>2025-02-15T11:35:58Z</time>
      </trkpt>
      <trkpt lat="42.58202" lon="1.85039">
        <ele>2449.58</ele>
        <time>2025-02-15T11:36:16Z</time>
      </trkpt>
      <trkpt lat="42.58204" lon="1.85047">
        <ele>2449.58</ele>
        <time>2025-02-15T11:36:31Z</time>
      </trkpt>
      <trkpt lat="42.58207" lon="1.8505">
        <ele>2450.54</ele>
        <time>2025-02-15T11:36:44Z</time>
      </trkpt>
      <trkpt lat="42.58213" lon="1.8505">
        <ele>2451.02</ele>
        <time>2025-02-15T11:37:04Z</time>
      </trkpt>
      <trkpt lat="42.58215" lon="1.85052">
        <ele>2451.5</ele>
        <time>2025-02-15T11:37:25Z</time>
      </trkpt>
      <trkpt lat="42.5821" lon="1.85059">
        <ele>2452.94</ele>
        <time>2025-02-15T11:37:40Z</time>
      </trkpt>
      <trkpt lat="42.58207" lon="1.85067">
        <ele>2454.86</ele>
        <time>2025-02-15T11:37:58Z</time>
      </trkpt>
      <trkpt lat="42.58205" lon="1.85072">
        <ele>2457.27</ele>
        <time>2025-02-15T11:38:18Z</time>
      </trkpt>
      <trkpt lat="42.58205" lon="1.85079">
        <ele>2458.71</ele>
        <time>2025-02-15T11:38:37Z</time>
      </trkpt>
      <trkpt lat="42.58211" lon="1.85086">
        <ele>2461.11</ele>
        <time>2025-02-15T11:38:58Z</time>
      </trkpt>
      <trkpt lat="42.58215" lon="1.8509">
        <ele>2462.07</ele>
        <time>2025-02-15T11:39:16Z</time>
      </trkpt>
      <trkpt lat="42.58219" lon="1.85092">
        <ele>2464</ele>
        <time>2025-02-15T11:39:36Z</time>
      </trkpt>
      <trkpt lat="42.58223" lon="1.85095">
        <ele>2465.44</ele>
        <time>2025-02-15T11:39:52Z</time>
      </trkpt>
      <trkpt lat="42.58226" lon="1.851">
        <ele>2466.88</ele>
        <time>2025-02-15T11:40:11Z</time>
      </trkpt>
      <trkpt lat="42.58225" lon="1.85106">
        <ele>2468.32</ele>
        <time>2025-02-15T11:40:27Z</time>
      </trkpt>
      <trkpt lat="42.58221" lon="1.85115">
        <ele>2470.24</ele>
        <time>2025-02-15T11:40:49Z</time>
      </trkpt>
      <trkpt lat="42.58226" lon="1.85119">
        <ele>2471.69</ele>
        <time>2025-02-15T11:41:06Z</time>
      </trkpt>
      <trkpt lat="42.58229" lon="1.85124">
        <ele>2473.13</ele>
        <time>2025-02-15T11:41:23Z</time>
      </trkpt>
      <trkpt lat="42.58231" lon="1.85131">
        <ele>2474.57</ele>
        <time>2025-02-15T11:41:42Z</time>
      </trkpt>
      <trkpt lat="42.58233" lon="1.85138">
        <ele>2476.49</ele>
        <time>2025-02-15T11:42:00Z</time>
      </trkpt>
      <trkpt lat="42.58234" lon="1.85141">
        <ele>2478.42</ele>
        <time>2025-02-15T11:42:17Z</time>
      </trkpt>
      <trkpt lat="42.58239" lon="1.85147">
        <ele>2480.34</ele>
        <time>2025-02-15T11:42:34Z</time>
      </trkpt>
      <trkpt lat="42.58245" lon="1.85151">
        <ele>2481.3</ele>
        <time>2025-02-15T11:42:52Z</time>
      </trkpt>
      <trkpt lat="42.5825" lon="1.85158">
        <ele>2483.22</ele>
        <time>2025-02-15T11:43:10Z</time>
      </trkpt>
      <trkpt lat="42.58253" lon="1.85165">
        <ele>2484.66</ele>
        <time>2025-02-15T11:43:29Z</time>
      </trkpt>
      <trkpt lat="42.58256" lon="1.85169">
        <ele>2486.59</ele>
        <time>2025-02-15T11:43:47Z</time>
      </trkpt>
      <trkpt lat="42.58261" lon="1.85174">
        <ele>2487.55</ele>
        <time>2025-02-15T11:44:03Z</time>
      </trkpt>
      <trkpt lat="42.58263" lon="1.85178">
        <ele>2489.47</ele>
        <time>2025-02-15T11:44:21Z</time>
      </trkpt>
      <trkpt lat="42.5826" lon="1.85183">
        <ele>2490.43</ele>
        <time>2025-02-15T11:44:36Z</time>
      </trkpt>
      <trkpt lat="42.58256" lon="1.8519">
        <ele>2492.36</ele>
        <time>2025-02-15T11:44:53Z</time>
      </trkpt>
      <trkpt lat="42.58255" lon="1.85199">
        <ele>2493.32</ele>
        <time>2025-02-15T11:45:13Z</time>
      </trkpt>
      <trkpt lat="42.58257" lon="1.852">
        <ele>2494.28</ele>
        <time>2025-02-15T11:45:38Z</time>
      </trkpt>
      <trkpt lat="42.58258" lon="1.85205">
        <ele>2495.24</ele>
        <time>2025-02-15T11:45:56Z</time>
      </trkpt>
      <trkpt lat="42.5825" lon="1.8521">
        <ele>2497.16</ele>
        <time>2025-02-15T11:46:17Z</time>
      </trkpt>
      <trkpt lat="42.5825" lon="1.85215">
        <ele>2498.6</ele>
        <time>2025-02-15T11:46:37Z</time>
      </trkpt>
      <trkpt lat="42.58252" lon="1.8522">
        <ele>2500.05</ele>
        <time>2025-02-15T11:46:56Z</time>
      </trkpt>
      <trkpt lat="42.58253" lon="1.85223">
        <ele>2501.49</ele>
        <time>2025-02-15T11:47:16Z</time>
      </trkpt>
      <trkpt lat="42.58253" lon="1.85228">
        <ele>2503.41</ele>
        <time>2025-02-15T11:47:36Z</time>
      </trkpt>
      <trkpt lat="42.5825" lon="1.85234">
        <ele>2504.85</ele>
        <time>2025-02-15T11:47:57Z</time>
      </trkpt>
      <trkpt lat="42.58244" lon="1.8524">
        <ele>2506.77</ele>
        <time>2025-02-15T11:48:20Z</time>
      </trkpt>
      <trkpt lat="42.58242" lon="1.85244">
        <ele>2508.22</ele>
        <time>2025-02-15T11:48:36Z</time>
      </trkpt>
      <trkpt lat="42.58239" lon="1.85248">
        <ele>2509.18</ele>
        <time>2025-02-15T11:48:59Z</time>
      </trkpt>
      <trkpt lat="42.5824" lon="1.85255">
        <ele>2511.58</ele>
        <time>2025-02-15T11:49:20Z</time>
      </trkpt>
      <trkpt lat="42.5824" lon="1.85261">
        <ele>2513.02</ele>
        <time>2025-02-15T11:49:39Z</time>
      </trkpt>
      <trkpt lat="42.58239" lon="1.85267">
        <ele>2513.98</ele>
        <time>2025-02-15T11:50:03Z</time>
      </trkpt>
      <trkpt lat="42.5824" lon="1.85275">
        <ele>2515.91</ele>
        <time>2025-02-15T11:50:23Z</time>
      </trkpt>
      <trkpt lat="42.58239" lon="1.85282">
        <ele>2517.35</ele>
        <time>2025-02-15T11:50:40Z</time>
      </trkpt>
      <trkpt lat="42.58237" lon="1.8529">
        <ele>2519.27</ele>
        <time>2025-02-15T11:51:02Z</time>
      </trkpt>
      <trkpt lat="42.58235" lon="1.85297">
        <ele>2521.19</ele>
        <time>2025-02-15T11:51:23Z</time>
      </trkpt>
      <trkpt lat="42.58236" lon="1.85303">
        <ele>2522.64</ele>
        <time>2025-02-15T11:51:42Z</time>
      </trkpt>
      <trkpt lat="42.58234" lon="1.85307">
        <ele>2523.6</ele>
        <time>2025-02-15T11:52:02Z</time>
      </trkpt>
      <trkpt lat="42.58234" lon="1.85308">
        <ele>2525.04</ele>
        <time>2025-02-15T11:52:25Z</time>
      </trkpt>
      <trkpt lat="42.58233" lon="1.85313">
        <ele>2525.52</ele>
        <time>2025-02-15T11:52:49Z</time>
      </trkpt>
      <trkpt lat="42.58233" lon="1.85313">
        <ele>2525.52</ele>
        <time>2025-02-15T11:52:52Z</time>
      </trkpt>
      <trkpt lat="42.58234" lon="1.85315">
        <ele>2526</ele>
        <time>2025-02-15T11:53:04Z</time>
      </trkpt>
      <trkpt lat="42.58234" lon="1.85318">
        <ele>2526.48</ele>
        <time>2025-02-15T11:53:22Z</time>
      </trkpt>
      <trkpt lat="42.58236" lon="1.85317">
        <ele>2526.48</ele>
        <time>2025-02-15T11:53:49Z</time>
      </trkpt>
      <trkpt lat="42.58233" lon="1.85317">
        <ele>2526.48</ele>
        <time>2025-02-15T11:54:23Z</time>
      </trkpt>
      <trkpt lat="42.58231" lon="1.85319">
        <ele>2526.48</ele>
        <time>2025-02-15T11:54:52Z</time>
      </trkpt>
      <trkpt lat="42.58232" lon="1.8532">
        <ele>2526.48</ele>
        <time>2025-02-15T11:55:22Z</time>
      </trkpt>
      <trkpt lat="42.58233" lon="1.85317">
        <ele>2526.48</ele>
        <time>2025-02-15T11:55:53Z</time>
      </trkpt>
      <trkpt lat="42.58234" lon="1.85318">
        <ele>2526.48</ele>
        <time>2025-02-15T11:56:25Z</time>
      </trkpt>
      <trkpt lat="42.58234" lon="1.85316">
        <ele>2526.48</ele>
        <time>2025-02-15T11:56:54Z</time>
      </trkpt>
      <trkpt lat="42.58236" lon="1.85318">
        <ele>2526.48</ele>
        <time>2025-02-15T11:57:16Z</time>
      </trkpt>
      <trkpt lat="42.58237" lon="1.85315">
        <ele>2526.96</ele>
        <time>2025-02-15T11:57:42Z</time>
      </trkpt>
      <trkpt lat="42.58237" lon="1.85317">
        <ele>2526</ele>
        <time>2025-02-15T11:58:00Z</time>
      </trkpt>
      <trkpt lat="42.58238" lon="1.85316">
        <ele>2526</ele>
        <time>2025-02-15T11:58:26Z</time>
      </trkpt>
      <trkpt lat="42.58238" lon="1.85316">
        <ele>2526</ele>
        <time>2025-02-15T11:59:02Z</time>
      </trkpt>
      <trkpt lat="42.58237" lon="1.85316">
        <ele>2526</ele>
        <time>2025-02-15T11:59:32Z</time>
      </trkpt>
      <trkpt lat="42.58239" lon="1.85317">
        <ele>2526.48</ele>
        <time>2025-02-15T11:59:59Z</time>
      </trkpt>
      <trkpt lat="42.58238" lon="1.85316">
        <ele>2526.48</ele>
        <time>2025-02-15T12:00:30Z</time>
      </trkpt>
      <trkpt lat="42.58238" lon="1.85317">
        <ele>2526.48</ele>
        <time>2025-02-15T12:01:03Z</time>
      </trkpt>
      <trkpt lat="42.58238" lon="1.85317">
        <ele>2526.48</ele>
        <time>2025-02-15T12:01:41Z</time>
      </trkpt>
      <trkpt lat="42.58235" lon="1.85317">
        <ele>2526.48</ele>
        <time>2025-02-15T12:02:24Z</time>
      </trkpt>
      <trkpt lat="42.58234" lon="1.85317">
        <ele>2526.48</ele>
        <time>2025-02-15T12:03:03Z</time>
      </trkpt>
      <trkpt lat="42.58235" lon="1.85317">
        <ele>2526.96</ele>
        <time>2025-02-15T12:03:40Z</time>
      </trkpt>
      <trkpt lat="42.58238" lon="1.85317">
        <ele>2526.96</ele>
        <time>2025-02-15T12:04:27Z</time>
      </trkpt>
      <trkpt lat="42.58237" lon="1.85318">
        <ele>2527.44</ele>
        <time>2025-02-15T12:05:04Z</time>
      </trkpt>
      <trkpt lat="42.58238" lon="1.85317">
        <ele>2527.92</ele>
        <time>2025-02-15T12:05:52Z</time>
      </trkpt>
      <trkpt lat="42.5824" lon="1.85317">
        <ele>2527.92</ele>
        <time>2025-02-15T12:06:29Z</time>
      </trkpt>
      <trkpt lat="42.58238" lon="1.85319">
        <ele>2528.4</ele>
        <time>2025-02-15T12:07:11Z</time>
      </trkpt>
      <trkpt lat="42.58239" lon="1.85318">
        <ele>2528.4</ele>
        <time>2025-02-15T12:07:50Z</time>
      </trkpt>
      <trkpt lat="42.58239" lon="1.85319">
        <ele>2528.89</ele>
        <time>2025-02-15T12:08:30Z</time>
      </trkpt>
      <trkpt lat="42.58238" lon="1.8532">
        <ele>2528.89</ele>
        <time>2025-02-15T12:09:17Z</time>
      </trkpt>
      <trkpt lat="42.58237" lon="1.8532">
        <ele>2529.37</ele>
        <time>2025-02-15T12:09:56Z</time>
      </trkpt>
      <trkpt lat="42.5824" lon="1.8532">
        <ele>2529.37</ele>
        <time>2025-02-15T12:10:31Z</time>
      </trkpt>
      <trkpt lat="42.58237" lon="1.85319">
        <ele>2529.85</ele>
        <time>2025-02-15T12:11:13Z</time>
      </trkpt>
      <trkpt lat="42.58235" lon="1.85317">
        <ele>2529.85</ele>
        <time>2025-02-15T12:11:46Z</time>
      </trkpt>
      <trkpt lat="42.58233" lon="1.85316">
        <ele>2529.85</ele>
        <time>2025-02-15T12:12:16Z</time>
      </trkpt>
      <trkpt lat="42.58233" lon="1.85317">
        <ele>2529.85</ele>
        <time>2025-02-15T12:12:41Z</time>
      </trkpt>
      <trkpt lat="42.58231" lon="1.85317">
        <ele>2530.33</ele>
        <time>2025-02-15T12:13:04Z</time>
      </trkpt>
      <trkpt lat="42.58229" lon="1.85315">
        <ele>2530.33</ele>
        <time>2025-02-15T12:13:28Z</time>
      </trkpt>
      <trkpt lat="42.58234" lon="1.85319">
        <ele>2530.33</ele>
        <time>2025-02-15T12:13:53Z</time>
      </trkpt>
      <trkpt lat="42.58237" lon="1.85323">
        <ele>2530.33</ele>
        <time>2025-02-15T12:14:32Z</time>
      </trkpt>
      <trkpt lat="42.58239" lon="1.85321">
        <ele>2530.33</ele>
        <time>2025-02-15T12:15:14Z</time>
      </trkpt>
      <trkpt lat="42.58238" lon="1.8532">
        <ele>2530.33</ele>
        <time>2025-02-15T12:15:51Z</time>
      </trkpt>
      <trkpt lat="42.58238" lon="1.85318">
        <ele>2530.33</ele>
        <time>2025-02-15T12:16:37Z</time>
      </trkpt>
      <trkpt lat="42.58238" lon="1.85319">
        <ele>2530.33</ele>
        <time>2025-02-15T12:17:19Z</time>
      </trkpt>
      <trkpt lat="42.58238" lon="1.8532">
        <ele>2530.81</ele>
        <time>2025-02-15T12:18:03Z</time>
      </trkpt>
      <trkpt lat="42.58237" lon="1.85317">
        <ele>2530.81</ele>
        <time>2025-02-15T12:18:42Z</time>
      </trkpt>
      <trkpt lat="42.58237" lon="1.85316">
        <ele>2530.81</ele>
        <time>2025-02-15T12:19:23Z</time>
      </trkpt>
      <trkpt lat="42.58236" lon="1.85316">
        <ele>2531.29</ele>
        <time>2025-02-15T12:19:57Z</time>
      </trkpt>
      <trkpt lat="42.58236" lon="1.85316">
        <ele>2531.29</ele>
        <time>2025-02-15T12:20:36Z</time>
      </trkpt>
      <trkpt lat="42.58238" lon="1.85316">
        <ele>2531.29</ele>
        <time>2025-02-15T12:21:10Z</time>
      </trkpt>
      <trkpt lat="42.58238" lon="1.85317">
        <ele>2531.29</ele>
        <time>2025-02-15T12:21:43Z</time>
      </trkpt>
      <trkpt lat="42.58239" lon="1.85319">
        <ele>2531.77</ele>
        <time>2025-02-15T12:22:10Z</time>
      </trkpt>
      <trkpt lat="42.5824" lon="1.85318">
        <ele>2531.77</ele>
        <time>2025-02-15T12:22:41Z</time>
      </trkpt>
      <trkpt lat="42.58239" lon="1.85316">
        <ele>2531.77</ele>
        <time>2025-02-15T12:23:11Z</time>
      </trkpt>
      <trkpt lat="42.58238" lon="1.85315">
        <ele>2531.77</ele>
        <time>2025-02-15T12:23:32Z</time>
      </trkpt>
      <trkpt lat="42.58237" lon="1.85317">
        <ele>2531.77</ele>
        <time>2025-02-15T12:24:07Z</time>
      </trkpt>
      <trkpt lat="42.58238" lon="1.85316">
        <ele>2533.21</ele>
        <time>2025-02-15T12:24:25Z</time>
      </trkpt>
      <trkpt lat="42.58236" lon="1.85315">
        <ele>2533.69</ele>
        <time>2025-02-15T12:24:36Z</time>
      </trkpt>
      <trkpt lat="42.58236" lon="1.85315">
        <ele>2533.69</ele>
        <time>2025-02-15T12:24:56Z</time>
      </trkpt>
      <trkpt lat="42.58236" lon="1.85316">
        <ele>2533.69</ele>
        <time>2025-02-15T12:25:39Z</time>
      </trkpt>
      <trkpt lat="42.58236" lon="1.85317">
        <ele>2534.17</ele>
        <time>2025-02-15T12:25:52Z</time>
      </trkpt>
      <trkpt lat="42.58236" lon="1.85316">
        <ele>2534.17</ele>
        <time>2025-02-15T12:26:11Z</time>
      </trkpt>
      <trkpt lat="42.58238" lon="1.85317">
        <ele>2534.17</ele>
        <time>2025-02-15T12:26:38Z</time>
      </trkpt>
      <trkpt lat="42.58238" lon="1.85318">
        <ele>2534.17</ele>
        <time>2025-02-15T12:27:02Z</time>
      </trkpt>
      <trkpt lat="42.58237" lon="1.85317">
        <ele>2534.17</ele>
        <time>2025-02-15T12:27:18Z</time>
      </trkpt>
      <trkpt lat="42.58235" lon="1.85317">
        <ele>2534.17</ele>
        <time>2025-02-15T12:27:34Z</time>
      </trkpt>
      <trkpt lat="42.58235" lon="1.85319">
        <ele>2534.17</ele>
        <time>2025-02-15T12:27:50Z</time>
      </trkpt>
      <trkpt lat="42.58235" lon="1.85317">
        <ele>2534.65</ele>
        <time>2025-02-15T12:28:20Z</time>
      </trkpt>
      <trkpt lat="42.58237" lon="1.85316">
        <ele>2534.65</ele>
        <time>2025-02-15T12:28:35Z</time>
      </trkpt>
      <trkpt lat="42.58237" lon="1.85316">
        <ele>2534.17</ele>
        <time>2025-02-15T12:28:40Z</time>
      </trkpt>
      <trkpt lat="42.58237" lon="1.85316">
        <ele>2536.58</ele>
        <time>2025-02-15T12:28:43Z</time>
      </trkpt>
      <trkpt lat="42.58238" lon="1.85316">
        <ele>2534.65</ele>
        <time>2025-02-15T12:28:46Z</time>
      </trkpt>
      <trkpt lat="42.58236" lon="1.85318">
        <ele>2534.65</ele>
        <time>2025-02-15T12:29:10Z</time>
      </trkpt>
      <trkpt lat="42.58237" lon="1.8532">
        <ele>2534.17</ele>
        <time>2025-02-15T12:29:41Z</time>
      </trkpt>
      <trkpt lat="42.58235" lon="1.85329">
        <ele>2533.21</ele>
        <time>2025-02-15T12:29:54Z</time>
      </trkpt>
      <trkpt lat="42.58237" lon="1.85338">
        <ele>2531.77</ele>
        <time>2025-02-15T12:30:07Z</time>
      </trkpt>
      <trkpt lat="42.5824" lon="1.85343">
        <ele>2530.81</ele>
        <time>2025-02-15T12:30:28Z</time>
      </trkpt>
      <trkpt lat="42.58246" lon="1.85352">
        <ele>2528.4</ele>
        <time>2025-02-15T12:30:43Z</time>
      </trkpt>
      <trkpt lat="42.58252" lon="1.8536">
        <ele>2526</ele>
        <time>2025-02-15T12:30:58Z</time>
      </trkpt>
      <trkpt lat="42.58259" lon="1.85371">
        <ele>2523.12</ele>
        <time>2025-02-15T12:31:15Z</time>
      </trkpt>
      <trkpt lat="42.58264" lon="1.8538">
        <ele>2520.71</ele>
        <time>2025-02-15T12:31:31Z</time>
      </trkpt>
      <trkpt lat="42.58271" lon="1.85389">
        <ele>2517.35</ele>
        <time>2025-02-15T12:31:47Z</time>
      </trkpt>
      <trkpt lat="42.58278" lon="1.85398">
        <ele>2514.95</ele>
        <time>2025-02-15T12:32:04Z</time>
      </trkpt>
      <trkpt lat="42.58285" lon="1.85405">
        <ele>2512.54</ele>
        <time>2025-02-15T12:32:21Z</time>
      </trkpt>
      <trkpt lat="42.58288" lon="1.85411">
        <ele>2510.14</ele>
        <time>2025-02-15T12:32:35Z</time>
      </trkpt>
      <trkpt lat="42.58291" lon="1.85415">
        <ele>2509.18</ele>
        <time>2025-02-15T12:32:50Z</time>
      </trkpt>
      <trkpt lat="42.58295" lon="1.85421">
        <ele>2507.26</ele>
        <time>2025-02-15T12:33:05Z</time>
      </trkpt>
      <trkpt lat="42.58298" lon="1.85427">
        <ele>2504.85</ele>
        <time>2025-02-15T12:33:20Z</time>
      </trkpt>
      <trkpt lat="42.58303" lon="1.85432">
        <ele>2501.97</ele>
        <time>2025-02-15T12:33:36Z</time>
      </trkpt>
      <trkpt lat="42.58308" lon="1.8544">
        <ele>2498.6</ele>
        <time>2025-02-15T12:33:52Z</time>
      </trkpt>
      <trkpt lat="42.58311" lon="1.8545">
        <ele>2496.2</ele>
        <time>2025-02-15T12:34:09Z</time>
      </trkpt>
      <trkpt lat="42.58315" lon="1.85457">
        <ele>2493.32</ele>
        <time>2025-02-15T12:34:22Z</time>
      </trkpt>
      <trkpt lat="42.58321" lon="1.85462">
        <ele>2489.95</ele>
        <time>2025-02-15T12:34:36Z</time>
      </trkpt>
      <trkpt lat="42.58327" lon="1.8547">
        <ele>2487.07</ele>
        <time>2025-02-15T12:34:53Z</time>
      </trkpt>
      <trkpt lat="42.5833" lon="1.85481">
        <ele>2484.18</ele>
        <time>2025-02-15T12:35:09Z</time>
      </trkpt>
      <trkpt lat="42.58335" lon="1.85491">
        <ele>2481.78</ele>
        <time>2025-02-15T12:35:23Z</time>
      </trkpt>
      <trkpt lat="42.58343" lon="1.855">
        <ele>2478.9</ele>
        <time>2025-02-15T12:35:40Z</time>
      </trkpt>
      <trkpt lat="42.58352" lon="1.85504">
        <ele>2476.01</ele>
        <time>2025-02-15T12:35:55Z</time>
      </trkpt>
      <trkpt lat="42.58362" lon="1.85509">
        <ele>2473.13</ele>
        <time>2025-02-15T12:36:10Z</time>
      </trkpt>
      <trkpt lat="42.58373" lon="1.8551">
        <ele>2470.24</ele>
        <time>2025-02-15T12:36:26Z</time>
      </trkpt>
      <trkpt lat="42.58374" lon="1.85511">
        <ele>2469.76</ele>
        <time>2025-02-15T12:36:28Z</time>
      </trkpt>
      <trkpt lat="42.58382" lon="1.85518">
        <ele>2467.84</ele>
        <time>2025-02-15T12:36:41Z</time>
      </trkpt>
      <trkpt lat="42.58384" lon="1.85524">
        <ele>2466.4</ele>
        <time>2025-02-15T12:36:49Z</time>
      </trkpt>
      <trkpt lat="42.58387" lon="1.85541">
        <ele>2464</ele>
        <time>2025-02-15T12:37:05Z</time>
      </trkpt>
      <trkpt lat="42.58391" lon="1.85549">
        <ele>2460.63</ele>
        <time>2025-02-15T12:37:19Z</time>
      </trkpt>
      <trkpt lat="42.58394" lon="1.85558">
        <ele>2458.23</ele>
        <time>2025-02-15T12:37:32Z</time>
      </trkpt>
      <trkpt lat="42.58396" lon="1.85568">
        <ele>2455.82</ele>
        <time>2025-02-15T12:37:45Z</time>
      </trkpt>
      <trkpt lat="42.58399" lon="1.85581">
        <ele>2453.42</ele>
        <time>2025-02-15T12:37:59Z</time>
      </trkpt>
      <trkpt lat="42.58401" lon="1.85592">
        <ele>2451.5</ele>
        <time>2025-02-15T12:38:10Z</time>
      </trkpt>
      <trkpt lat="42.58404" lon="1.85606">
        <ele>2449.1</ele>
        <time>2025-02-15T12:38:25Z</time>
      </trkpt>
      <trkpt lat="42.58406" lon="1.85612">
        <ele>2448.62</ele>
        <time>2025-02-15T12:38:38Z</time>
      </trkpt>
      <trkpt lat="42.58412" lon="1.85628">
        <ele>2448.13</ele>
        <time>2025-02-15T12:38:53Z</time>
      </trkpt>
      <trkpt lat="42.58414" lon="1.85633">
        <ele>2447.65</ele>
        <time>2025-02-15T12:38:58Z</time>
      </trkpt>
      <trkpt lat="42.58424" lon="1.85646">
        <ele>2447.65</ele>
        <time>2025-02-15T12:39:15Z</time>
      </trkpt>
      <trkpt lat="42.58433" lon="1.8566">
        <ele>2447.65</ele>
        <time>2025-02-15T12:39:31Z</time>
      </trkpt>
      <trkpt lat="42.58439" lon="1.85664">
        <ele>2447.65</ele>
        <time>2025-02-15T12:39:38Z</time>
      </trkpt>
      <trkpt lat="42.58447" lon="1.85668">
        <ele>2446.69</ele>
        <time>2025-02-15T12:39:48Z</time>
      </trkpt>
      <trkpt lat="42.58449" lon="1.8567">
        <ele>2446.69</ele>
        <time>2025-02-15T12:39:50Z</time>
      </trkpt>
      <trkpt lat="42.58461" lon="1.85678">
        <ele>2445.25</ele>
        <time>2025-02-15T12:40:06Z</time>
      </trkpt>
      <trkpt lat="42.58471" lon="1.85682">
        <ele>2443.81</ele>
        <time>2025-02-15T12:40:21Z</time>
      </trkpt>
      <trkpt lat="42.58478" lon="1.85685">
        <ele>2442.37</ele>
        <time>2025-02-15T12:40:37Z</time>
      </trkpt>
      <trkpt lat="42.58487" lon="1.85689">
        <ele>2439.96</ele>
        <time>2025-02-15T12:40:53Z</time>
      </trkpt>
      <trkpt lat="42.58495" lon="1.85691">
        <ele>2438.04</ele>
        <time>2025-02-15T12:41:05Z</time>
      </trkpt>
      <trkpt lat="42.58506" lon="1.85698">
        <ele>2435.64</ele>
        <time>2025-02-15T12:41:21Z</time>
      </trkpt>
      <trkpt lat="42.58517" lon="1.85706">
        <ele>2433.71</ele>
        <time>2025-02-15T12:41:34Z</time>
      </trkpt>
      <trkpt lat="42.58529" lon="1.85714">
        <ele>2430.83</ele>
        <time>2025-02-15T12:41:50Z</time>
      </trkpt>
      <trkpt lat="42.58538" lon="1.85718">
        <ele>2428.91</ele>
        <time>2025-02-15T12:42:04Z</time>
      </trkpt>
      <trkpt lat="42.58542" lon="1.85722">
        <ele>2426.02</ele>
        <time>2025-02-15T12:42:19Z</time>
      </trkpt>
      <trkpt lat="42.58547" lon="1.8573">
        <ele>2423.62</ele>
        <time>2025-02-15T12:42:33Z</time>
      </trkpt>
      <trkpt lat="42.58552" lon="1.85733">
        <ele>2420.26</ele>
        <time>2025-02-15T12:42:47Z</time>
      </trkpt>
      <trkpt lat="42.58559" lon="1.85738">
        <ele>2417.37</ele>
        <time>2025-02-15T12:43:01Z</time>
      </trkpt>
      <trkpt lat="42.58567" lon="1.8574">
        <ele>2415.45</ele>
        <time>2025-02-15T12:43:15Z</time>
      </trkpt>
      <trkpt lat="42.58576" lon="1.85743">
        <ele>2412.57</ele>
        <time>2025-02-15T12:43:29Z</time>
      </trkpt>
      <trkpt lat="42.58586" lon="1.8575">
        <ele>2411.12</ele>
        <time>2025-02-15T12:43:43Z</time>
      </trkpt>
      <trkpt lat="42.58598" lon="1.85757">
        <ele>2409.2</ele>
        <time>2025-02-15T12:43:58Z</time>
      </trkpt>
      <trkpt lat="42.58609" lon="1.85762">
        <ele>2407.76</ele>
        <time>2025-02-15T12:44:12Z</time>
      </trkpt>
      <trkpt lat="42.58619" lon="1.85767">
        <ele>2406.32</ele>
        <time>2025-02-15T12:44:24Z</time>
      </trkpt>
      <trkpt lat="42.58627" lon="1.85771">
        <ele>2404.88</ele>
        <time>2025-02-15T12:44:39Z</time>
      </trkpt>
      <trkpt lat="42.58638" lon="1.85774">
        <ele>2402.95</ele>
        <time>2025-02-15T12:44:53Z</time>
      </trkpt>
      <trkpt lat="42.5865" lon="1.85779">
        <ele>2401.03</ele>
        <time>2025-02-15T12:45:08Z</time>
      </trkpt>
      <trkpt lat="42.58661" lon="1.85781">
        <ele>2400.07</ele>
        <time>2025-02-15T12:45:21Z</time>
      </trkpt>
      <trkpt lat="42.58672" lon="1.85785">
        <ele>2398.63</ele>
        <time>2025-02-15T12:45:35Z</time>
      </trkpt>
      <trkpt lat="42.58685" lon="1.8579">
        <ele>2396.22</ele>
        <time>2025-02-15T12:45:52Z</time>
      </trkpt>
      <trkpt lat="42.58688" lon="1.85791">
        <ele>2396.22</ele>
        <time>2025-02-15T12:45:55Z</time>
      </trkpt>
      <trkpt lat="42.58702" lon="1.85795">
        <ele>2393.82</ele>
        <time>2025-02-15T12:46:10Z</time>
      </trkpt>
      <trkpt lat="42.58711" lon="1.85797">
        <ele>2391.42</ele>
        <time>2025-02-15T12:46:22Z</time>
      </trkpt>
      <trkpt lat="42.58722" lon="1.85801">
        <ele>2389.97</ele>
        <time>2025-02-15T12:46:36Z</time>
      </trkpt>
      <trkpt lat="42.58734" lon="1.85806">
        <ele>2388.05</ele>
        <time>2025-02-15T12:46:51Z</time>
      </trkpt>
      <trkpt lat="42.58744" lon="1.85811">
        <ele>2387.09</ele>
        <time>2025-02-15T12:47:05Z</time>
      </trkpt>
      <trkpt lat="42.58749" lon="1.85817">
        <ele>2386.13</ele>
        <time>2025-02-15T12:47:18Z</time>
      </trkpt>
      <trkpt lat="42.58749" lon="1.85814">
        <ele>2386.13</ele>
        <time>2025-02-15T12:47:35Z</time>
      </trkpt>
      <trkpt lat="42.58751" lon="1.85817">
        <ele>2386.13</ele>
        <time>2025-02-15T12:48:03Z</time>
      </trkpt>
      <trkpt lat="42.58751" lon="1.85815">
        <ele>2386.13</ele>
        <time>2025-02-15T12:48:28Z</time>
      </trkpt>
      <trkpt lat="42.58751" lon="1.85818">
        <ele>2385.65</ele>
        <time>2025-02-15T12:49:03Z</time>
      </trkpt>
      <trkpt lat="42.58753" lon="1.85819">
        <ele>2385.65</ele>
        <time>2025-02-15T12:49:31Z</time>
      </trkpt>
      <trkpt lat="42.58751" lon="1.85818">
        <ele>2385.65</ele>
        <time>2025-02-15T12:49:56Z</time>
      </trkpt>
      <trkpt lat="42.58749" lon="1.85816">
        <ele>2385.17</ele>
        <time>2025-02-15T12:50:28Z</time>
      </trkpt>
      <trkpt lat="42.58747" lon="1.85815">
        <ele>2385.17</ele>
        <time>2025-02-15T12:50:53Z</time>
      </trkpt>
      <trkpt lat="42.58747" lon="1.85817">
        <ele>2385.17</ele>
        <time>2025-02-15T12:51:24Z</time>
      </trkpt>
      <trkpt lat="42.58755" lon="1.85822">
        <ele>2384.21</ele>
        <time>2025-02-15T12:51:43Z</time>
      </trkpt>
      <trkpt lat="42.58764" lon="1.85826">
        <ele>2382.28</ele>
        <time>2025-02-15T12:51:57Z</time>
      </trkpt>
      <trkpt lat="42.58774" lon="1.85832">
        <ele>2379.4</ele>
        <time>2025-02-15T12:52:12Z</time>
      </trkpt>
      <trkpt lat="42.58784" lon="1.85837">
        <ele>2377</ele>
        <time>2025-02-15T12:52:26Z</time>
      </trkpt>
      <trkpt lat="42.58791" lon="1.85841">
        <ele>2375.55</ele>
        <time>2025-02-15T12:52:39Z</time>
      </trkpt>
      <trkpt lat="42.58798" lon="1.85844">
        <ele>2374.11</ele>
        <time>2025-02-15T12:52:47Z</time>
      </trkpt>
      <trkpt lat="42.58803" lon="1.85847">
        <ele>2373.15</ele>
        <time>2025-02-15T12:52:54Z</time>
      </trkpt>
      <trkpt lat="42.58812" lon="1.85853">
        <ele>2371.23</ele>
        <time>2025-02-15T12:53:07Z</time>
      </trkpt>
      <trkpt lat="42.58824" lon="1.85857">
        <ele>2369.31</ele>
        <time>2025-02-15T12:53:20Z</time>
      </trkpt>
      <trkpt lat="42.58837" lon="1.8586">
        <ele>2366.9</ele>
        <time>2025-02-15T12:53:36Z</time>
      </trkpt>
      <trkpt lat="42.58848" lon="1.8586">
        <ele>2364.5</ele>
        <time>2025-02-15T12:53:50Z</time>
      </trkpt>
      <trkpt lat="42.58853" lon="1.85861">
        <ele>2363.54</ele>
        <time>2025-02-15T12:53:56Z</time>
      </trkpt>
      <trkpt lat="42.58855" lon="1.85862">
        <ele>2363.54</ele>
        <time>2025-02-15T12:53:58Z</time>
      </trkpt>
      <trkpt lat="42.58858" lon="1.85863">
        <ele>2363.06</ele>
        <time>2025-02-15T12:54:02Z</time>
      </trkpt>
      <trkpt lat="42.5887" lon="1.85867">
        <ele>2362.1</ele>
        <time>2025-02-15T12:54:16Z</time>
      </trkpt>
      <trkpt lat="42.5888" lon="1.85871">
        <ele>2360.65</ele>
        <time>2025-02-15T12:54:29Z</time>
      </trkpt>
      <trkpt lat="42.58887" lon="1.85876">
        <ele>2358.73</ele>
        <time>2025-02-15T12:54:44Z</time>
      </trkpt>
      <trkpt lat="42.5889" lon="1.8588">
        <ele>2356.81</ele>
        <time>2025-02-15T12:54:59Z</time>
      </trkpt>
      <trkpt lat="42.58893" lon="1.85883">
        <ele>2355.37</ele>
        <time>2025-02-15T12:55:10Z</time>
      </trkpt>
      <trkpt lat="42.58897" lon="1.85887">
        <ele>2353.44</ele>
        <time>2025-02-15T12:55:23Z</time>
      </trkpt>
      <trkpt lat="42.58899" lon="1.8589">
        <ele>2351.52</ele>
        <time>2025-02-15T12:55:35Z</time>
      </trkpt>
      <trkpt lat="42.58903" lon="1.85897">
        <ele>2348.64</ele>
        <time>2025-02-15T12:55:49Z</time>
      </trkpt>
      <trkpt lat="42.58906" lon="1.85902">
        <ele>2346.23</ele>
        <time>2025-02-15T12:56:02Z</time>
      </trkpt>
      <trkpt lat="42.5891" lon="1.85907">
        <ele>2344.31</ele>
        <time>2025-02-15T12:56:15Z</time>
      </trkpt>
      <trkpt lat="42.58914" lon="1.85912">
        <ele>2342.87</ele>
        <time>2025-02-15T12:56:26Z</time>
      </trkpt>
      <trkpt lat="42.58919" lon="1.85917">
        <ele>2340.95</ele>
        <time>2025-02-15T12:56:38Z</time>
      </trkpt>
      <trkpt lat="42.58925" lon="1.85922">
        <ele>2339.51</ele>
        <time>2025-02-15T12:56:52Z</time>
      </trkpt>
      <trkpt lat="42.5893" lon="1.8593">
        <ele>2337.1</ele>
        <time>2025-02-15T12:57:06Z</time>
      </trkpt>
      <trkpt lat="42.58935" lon="1.85936">
        <ele>2335.18</ele>
        <time>2025-02-15T12:57:20Z</time>
      </trkpt>
      <trkpt lat="42.58939" lon="1.85947">
        <ele>2332.78</ele>
        <time>2025-02-15T12:57:34Z</time>
      </trkpt>
      <trkpt lat="42.58943" lon="1.85955">
        <ele>2329.41</ele>
        <time>2025-02-15T12:57:46Z</time>
      </trkpt>
      <trkpt lat="42.58951" lon="1.85962">
        <ele>2327.01</ele>
        <time>2025-02-15T12:58:01Z</time>
      </trkpt>
      <trkpt lat="42.58957" lon="1.8597">
        <ele>2323.64</ele>
        <time>2025-02-15T12:58:19Z</time>
      </trkpt>
      <trkpt lat="42.58963" lon="1.85979">
        <ele>2322.2</ele>
        <time>2025-02-15T12:58:34Z</time>
      </trkpt>
      <trkpt lat="42.58966" lon="1.85983">
        <ele>2320.76</ele>
        <time>2025-02-15T12:58:50Z</time>
      </trkpt>
      <trkpt lat="42.58969" lon="1.85985">
        <ele>2321.24</ele>
        <time>2025-02-15T12:59:15Z</time>
      </trkpt>
      <trkpt lat="42.58971" lon="1.85981">
        <ele>2321.24</ele>
        <time>2025-02-15T12:59:46Z</time>
      </trkpt>
      <trkpt lat="42.58973" lon="1.85983">
        <ele>2320.76</ele>
        <time>2025-02-15T13:00:10Z</time>
      </trkpt>
      <trkpt lat="42.58973" lon="1.85983">
        <ele>2320.28</ele>
        <time>2025-02-15T13:00:28Z</time>
      </trkpt>
      <trkpt lat="42.58974" lon="1.85983">
        <ele>2320.28</ele>
        <time>2025-02-15T13:00:51Z</time>
      </trkpt>
      <trkpt lat="42.58975" lon="1.85986">
        <ele>2320.28</ele>
        <time>2025-02-15T13:01:31Z</time>
      </trkpt>
      <trkpt lat="42.58981" lon="1.85989">
        <ele>2319.32</ele>
        <time>2025-02-15T13:01:48Z</time>
      </trkpt>
      <trkpt lat="42.58991" lon="1.85991">
        <ele>2315.95</ele>
        <time>2025-02-15T13:02:03Z</time>
      </trkpt>
      <trkpt lat="42.59" lon="1.85991">
        <ele>2313.55</ele>
        <time>2025-02-15T13:02:17Z</time>
      </trkpt>
      <trkpt lat="42.59004" lon="1.85988">
        <ele>2312.11</ele>
        <time>2025-02-15T13:02:32Z</time>
      </trkpt>
      <trkpt lat="42.59011" lon="1.85988">
        <ele>2309.22</ele>
        <time>2025-02-15T13:02:47Z</time>
      </trkpt>
      <trkpt lat="42.59017" lon="1.8599">
        <ele>2307.3</ele>
        <time>2025-02-15T13:03:02Z</time>
      </trkpt>
      <trkpt lat="42.59024" lon="1.85991">
        <ele>2304.42</ele>
        <time>2025-02-15T13:03:14Z</time>
      </trkpt>
      <trkpt lat="42.59031" lon="1.85995">
        <ele>2301.53</ele>
        <time>2025-02-15T13:03:29Z</time>
      </trkpt>
      <trkpt lat="42.59038" lon="1.86001">
        <ele>2299.13</ele>
        <time>2025-02-15T13:03:43Z</time>
      </trkpt>
      <trkpt lat="42.59042" lon="1.86009">
        <ele>2296.73</ele>
        <time>2025-02-15T13:03:57Z</time>
      </trkpt>
      <trkpt lat="42.59049" lon="1.86012">
        <ele>2293.36</ele>
        <time>2025-02-15T13:04:11Z</time>
      </trkpt>
      <trkpt lat="42.59058" lon="1.86016">
        <ele>2290.48</ele>
        <time>2025-02-15T13:04:27Z</time>
      </trkpt>
      <trkpt lat="42.59066" lon="1.86016">
        <ele>2287.11</ele>
        <time>2025-02-15T13:04:42Z</time>
      </trkpt>
      <trkpt lat="42.59074" lon="1.86019">
        <ele>2284.23</ele>
        <time>2025-02-15T13:04:56Z</time>
      </trkpt>
      <trkpt lat="42.59082" lon="1.8602">
        <ele>2280.87</ele>
        <time>2025-02-15T13:05:12Z</time>
      </trkpt>
      <trkpt lat="42.59092" lon="1.8602">
        <ele>2278.46</ele>
        <time>2025-02-15T13:05:27Z</time>
      </trkpt>
      <trkpt lat="42.59101" lon="1.86022">
        <ele>2276.06</ele>
        <time>2025-02-15T13:05:42Z</time>
      </trkpt>
      <trkpt lat="42.59111" lon="1.86025">
        <ele>2273.66</ele>
        <time>2025-02-15T13:05:58Z</time>
      </trkpt>
      <trkpt lat="42.59121" lon="1.86028">
        <ele>2272.69</ele>
        <time>2025-02-15T13:06:11Z</time>
      </trkpt>
      <trkpt lat="42.59132" lon="1.86027">
        <ele>2270.29</ele>
        <time>2025-02-15T13:06:25Z</time>
      </trkpt>
      <trkpt lat="42.59134" lon="1.86026">
        <ele>2270.29</ele>
        <time>2025-02-15T13:06:28Z</time>
      </trkpt>
      <trkpt lat="42.59139" lon="1.86027">
        <ele>2270.29</ele>
        <time>2025-02-15T13:06:44Z</time>
      </trkpt>
      <trkpt lat="42.5914" lon="1.86027">
        <ele>2269.81</ele>
        <time>2025-02-15T13:07:01Z</time>
      </trkpt>
      <trkpt lat="42.59143" lon="1.86029">
        <ele>2269.81</ele>
        <time>2025-02-15T13:07:37Z</time>
      </trkpt>
      <trkpt lat="42.5915" lon="1.86024">
        <ele>2268.85</ele>
        <time>2025-02-15T13:07:53Z</time>
      </trkpt>
      <trkpt lat="42.59157" lon="1.86023">
        <ele>2268.37</ele>
        <time>2025-02-15T13:08:07Z</time>
      </trkpt>
      <trkpt lat="42.5916" lon="1.86024">
        <ele>2267.89</ele>
        <time>2025-02-15T13:08:21Z</time>
      </trkpt>
      <trkpt lat="42.59173" lon="1.86031">
        <ele>2266.45</ele>
        <time>2025-02-15T13:08:35Z</time>
      </trkpt>
      <trkpt lat="42.59188" lon="1.86036">
        <ele>2265.96</ele>
        <time>2025-02-15T13:08:51Z</time>
      </trkpt>
      <trkpt lat="42.59204" lon="1.86043">
        <ele>2264.52</ele>
        <time>2025-02-15T13:09:09Z</time>
      </trkpt>
      <trkpt lat="42.59215" lon="1.86049">
        <ele>2264.04</ele>
        <time>2025-02-15T13:09:23Z</time>
      </trkpt>
      <trkpt lat="42.5922" lon="1.8605">
        <ele>2264.04</ele>
        <time>2025-02-15T13:09:28Z</time>
      </trkpt>
      <trkpt lat="42.59232" lon="1.86051">
        <ele>2263.08</ele>
        <time>2025-02-15T13:09:42Z</time>
      </trkpt>
      <trkpt lat="42.59242" lon="1.86054">
        <ele>2262.6</ele>
        <time>2025-02-15T13:09:54Z</time>
      </trkpt>
      <trkpt lat="42.59256" lon="1.86058">
        <ele>2262.12</ele>
        <time>2025-02-15T13:10:11Z</time>
      </trkpt>
      <trkpt lat="42.59267" lon="1.86061">
        <ele>2262.12</ele>
        <time>2025-02-15T13:10:25Z</time>
      </trkpt>
      <trkpt lat="42.59269" lon="1.86062">
        <ele>2261.64</ele>
        <time>2025-02-15T13:10:28Z</time>
      </trkpt>
      <trkpt lat="42.59273" lon="1.86065">
        <ele>2261.16</ele>
        <time>2025-02-15T13:10:33Z</time>
      </trkpt>
      <trkpt lat="42.59281" lon="1.86073">
        <ele>2259.24</ele>
        <time>2025-02-15T13:10:46Z</time>
      </trkpt>
      <trkpt lat="42.59292" lon="1.86079">
        <ele>2255.87</ele>
        <time>2025-02-15T13:11:02Z</time>
      </trkpt>
      <trkpt lat="42.59293" lon="1.86079">
        <ele>2255.87</ele>
        <time>2025-02-15T13:11:03Z</time>
      </trkpt>
      <trkpt lat="42.59303" lon="1.86087">
        <ele>2253.47</ele>
        <time>2025-02-15T13:11:16Z</time>
      </trkpt>
      <trkpt lat="42.59313" lon="1.86092">
        <ele>2252.51</ele>
        <time>2025-02-15T13:11:28Z</time>
      </trkpt>
      <trkpt lat="42.59328" lon="1.86098">
        <ele>2251.54</ele>
        <time>2025-02-15T13:11:43Z</time>
      </trkpt>
      <trkpt lat="42.59336" lon="1.86101">
        <ele>2251.54</ele>
        <time>2025-02-15T13:11:56Z</time>
      </trkpt>
      <trkpt lat="42.59346" lon="1.86105">
        <ele>2251.54</ele>
        <time>2025-02-15T13:12:09Z</time>
      </trkpt>
      <trkpt lat="42.59358" lon="1.86111">
        <ele>2251.54</ele>
        <time>2025-02-15T13:12:24Z</time>
      </trkpt>
      <trkpt lat="42.59368" lon="1.86117">
        <ele>2251.54</ele>
        <time>2025-02-15T13:12:39Z</time>
      </trkpt>
      <trkpt lat="42.59378" lon="1.86122">
        <ele>2250.1</ele>
        <time>2025-02-15T13:12:53Z</time>
      </trkpt>
      <trkpt lat="42.59386" lon="1.86127">
        <ele>2247.7</ele>
        <time>2025-02-15T13:13:06Z</time>
      </trkpt>
      <trkpt lat="42.59394" lon="1.8613">
        <ele>2246.26</ele>
        <time>2025-02-15T13:13:19Z</time>
      </trkpt>
      <trkpt lat="42.59405" lon="1.86136">
        <ele>2244.82</ele>
        <time>2025-02-15T13:13:34Z</time>
      </trkpt>
      <trkpt lat="42.59416" lon="1.86142">
        <ele>2242.89</ele>
        <time>2025-02-15T13:13:50Z</time>
      </trkpt>
      <trkpt lat="42.59422" lon="1.86148">
        <ele>2240.97</ele>
        <time>2025-02-15T13:14:02Z</time>
      </trkpt>
      <trkpt lat="42.59425" lon="1.86151">
        <ele>2240.01</ele>
        <time>2025-02-15T13:14:17Z</time>
      </trkpt>
      <trkpt lat="42.59432" lon="1.86157">
        <ele>2238.57</ele>
        <time>2025-02-15T13:14:32Z</time>
      </trkpt>
      <trkpt lat="42.59439" lon="1.86161">
        <ele>2237.61</ele>
        <time>2025-02-15T13:14:42Z</time>
      </trkpt>
      <trkpt lat="42.5945" lon="1.86169">
        <ele>2236.64</ele>
        <time>2025-02-15T13:14:58Z</time>
      </trkpt>
      <trkpt lat="42.59457" lon="1.86177">
        <ele>2233.76</ele>
        <time>2025-02-15T13:15:13Z</time>
      </trkpt>
      <trkpt lat="42.59466" lon="1.86184">
        <ele>2230.4</ele>
        <time>2025-02-15T13:15:28Z</time>
      </trkpt>
      <trkpt lat="42.59475" lon="1.86193">
        <ele>2228.47</ele>
        <time>2025-02-15T13:15:42Z</time>
      </trkpt>
      <trkpt lat="42.59485" lon="1.862">
        <ele>2226.55</ele>
        <time>2025-02-15T13:15:56Z</time>
      </trkpt>
      <trkpt lat="42.59489" lon="1.86203">
        <ele>2224.63</ele>
        <time>2025-02-15T13:16:02Z</time>
      </trkpt>
      <trkpt lat="42.59497" lon="1.86214">
        <ele>2222.22</ele>
        <time>2025-02-15T13:16:17Z</time>
      </trkpt>
      <trkpt lat="42.595" lon="1.86217">
        <ele>2222.22</ele>
        <time>2025-02-15T13:16:21Z</time>
      </trkpt>
      <trkpt lat="42.5951" lon="1.8623">
        <ele>2221.26</ele>
        <time>2025-02-15T13:16:34Z</time>
      </trkpt>
      <trkpt lat="42.5952" lon="1.86242">
        <ele>2220.3</ele>
        <time>2025-02-15T13:16:50Z</time>
      </trkpt>
      <trkpt lat="42.59529" lon="1.86256">
        <ele>2219.34</ele>
        <time>2025-02-15T13:17:05Z</time>
      </trkpt>
      <trkpt lat="42.59536" lon="1.86266">
        <ele>2217.9</ele>
        <time>2025-02-15T13:17:17Z</time>
      </trkpt>
      <trkpt lat="42.59542" lon="1.86274">
        <ele>2216.94</ele>
        <time>2025-02-15T13:17:33Z</time>
      </trkpt>
      <trkpt lat="42.59542" lon="1.86273">
        <ele>2216.94</ele>
        <time>2025-02-15T13:18:03Z</time>
      </trkpt>
      <trkpt lat="42.59542" lon="1.86274">
        <ele>2216.46</ele>
        <time>2025-02-15T13:18:28Z</time>
      </trkpt>
      <trkpt lat="42.59546" lon="1.86288">
        <ele>2215.98</ele>
        <time>2025-02-15T13:18:42Z</time>
      </trkpt>
      <trkpt lat="42.59547" lon="1.86289">
        <ele>2215.98</ele>
        <time>2025-02-15T13:18:43Z</time>
      </trkpt>
      <trkpt lat="42.5955" lon="1.86301">
        <ele>2215.98</ele>
        <time>2025-02-15T13:18:56Z</time>
      </trkpt>
      <trkpt lat="42.59556" lon="1.86316">
        <ele>2215.5</ele>
        <time>2025-02-15T13:19:10Z</time>
      </trkpt>
      <trkpt lat="42.59557" lon="1.8632">
        <ele>2215.5</ele>
        <time>2025-02-15T13:19:14Z</time>
      </trkpt>
      <trkpt lat="42.59562" lon="1.86336">
        <ele>2215.01</ele>
        <time>2025-02-15T13:19:29Z</time>
      </trkpt>
      <trkpt lat="42.59564" lon="1.86344">
        <ele>2215.01</ele>
        <time>2025-02-15T13:19:41Z</time>
      </trkpt>
      <trkpt lat="42.59565" lon="1.86346">
        <ele>2216.46</ele>
        <time>2025-02-15T13:19:44Z</time>
      </trkpt>
      <trkpt lat="42.59567" lon="1.86355">
        <ele>2217.9</ele>
        <time>2025-02-15T13:19:59Z</time>
      </trkpt>
      <trkpt lat="42.59573" lon="1.86364">
        <ele>2218.86</ele>
        <time>2025-02-15T13:20:15Z</time>
      </trkpt>
      <trkpt lat="42.59581" lon="1.86371">
        <ele>2219.34</ele>
        <time>2025-02-15T13:20:29Z</time>
      </trkpt>
      <trkpt lat="42.59586" lon="1.86377">
        <ele>2220.78</ele>
        <time>2025-02-15T13:20:43Z</time>
      </trkpt>
      <trkpt lat="42.59593" lon="1.86384">
        <ele>2221.26</ele>
        <time>2025-02-15T13:20:56Z</time>
      </trkpt>
      <trkpt lat="42.59598" lon="1.86391">
        <ele>2221.26</ele>
        <time>2025-02-15T13:21:10Z</time>
      </trkpt>
      <trkpt lat="42.59599" lon="1.86393">
        <ele>2221.26</ele>
        <time>2025-02-15T13:21:30Z</time>
      </trkpt>
      <trkpt lat="42.59599" lon="1.86396">
        <ele>2221.26</ele>
        <time>2025-02-15T13:22:01Z</time>
      </trkpt>
      <trkpt lat="42.59601" lon="1.86398">
        <ele>2219.82</ele>
        <time>2025-02-15T13:22:20Z</time>
      </trkpt>
      <trkpt lat="42.596" lon="1.86399">
        <ele>2219.82</ele>
        <time>2025-02-15T13:22:59Z</time>
      </trkpt>
      <trkpt lat="42.59601" lon="1.86399">
        <ele>2219.82</ele>
        <time>2025-02-15T13:23:35Z</time>
      </trkpt>
      <trkpt lat="42.59604" lon="1.86404">
        <ele>2218.86</ele>
        <time>2025-02-15T13:23:56Z</time>
      </trkpt>
      <trkpt lat="42.59609" lon="1.86409">
        <ele>2216.94</ele>
        <time>2025-02-15T13:24:10Z</time>
      </trkpt>
      <trkpt lat="42.59616" lon="1.86416">
        <ele>2215.01</ele>
        <time>2025-02-15T13:24:25Z</time>
      </trkpt>
      <trkpt lat="42.59621" lon="1.8642">
        <ele>2212.61</ele>
        <time>2025-02-15T13:24:39Z</time>
      </trkpt>
      <trkpt lat="42.59624" lon="1.86419">
        <ele>2211.17</ele>
        <time>2025-02-15T13:24:51Z</time>
      </trkpt>
      <trkpt lat="42.59629" lon="1.86419">
        <ele>2208.29</ele>
        <time>2025-02-15T13:25:05Z</time>
      </trkpt>
      <trkpt lat="42.59636" lon="1.86417">
        <ele>2204.92</ele>
        <time>2025-02-15T13:25:16Z</time>
      </trkpt>
      <trkpt lat="42.59644" lon="1.86417">
        <ele>2202.04</ele>
        <time>2025-02-15T13:25:30Z</time>
      </trkpt>
      <trkpt lat="42.5965" lon="1.86418">
        <ele>2199.15</ele>
        <time>2025-02-15T13:25:43Z</time>
      </trkpt>
      <trkpt lat="42.59658" lon="1.86421">
        <ele>2196.75</ele>
        <time>2025-02-15T13:25:57Z</time>
      </trkpt>
      <trkpt lat="42.59663" lon="1.86423">
        <ele>2195.31</ele>
        <time>2025-02-15T13:26:11Z</time>
      </trkpt>
      <trkpt lat="42.59669" lon="1.86422">
        <ele>2192.9</ele>
        <time>2025-02-15T13:26:25Z</time>
      </trkpt>
      <trkpt lat="42.59677" lon="1.86423">
        <ele>2189.54</ele>
        <time>2025-02-15T13:26:40Z</time>
      </trkpt>
      <trkpt lat="42.59682" lon="1.86422">
        <ele>2189.06</ele>
        <time>2025-02-15T13:26:52Z</time>
      </trkpt>
      <trkpt lat="42.59691" lon="1.86422">
        <ele>2187.14</ele>
        <time>2025-02-15T13:27:05Z</time>
      </trkpt>
      <trkpt lat="42.597" lon="1.86427">
        <ele>2186.18</ele>
        <time>2025-02-15T13:27:19Z</time>
      </trkpt>
      <trkpt lat="42.59708" lon="1.8643">
        <ele>2183.77</ele>
        <time>2025-02-15T13:27:31Z</time>
      </trkpt>
      <trkpt lat="42.59717" lon="1.86433">
        <ele>2182.81</ele>
        <time>2025-02-15T13:27:45Z</time>
      </trkpt>
      <trkpt lat="42.59722" lon="1.8644">
        <ele>2182.81</ele>
        <time>2025-02-15T13:28:00Z</time>
      </trkpt>
      <trkpt lat="42.59728" lon="1.8645">
        <ele>2182.81</ele>
        <time>2025-02-15T13:28:17Z</time>
      </trkpt>
      <trkpt lat="42.59732" lon="1.86457">
        <ele>2182.81</ele>
        <time>2025-02-15T13:28:30Z</time>
      </trkpt>
      <trkpt lat="42.59735" lon="1.86465">
        <ele>2182.81</ele>
        <time>2025-02-15T13:28:43Z</time>
      </trkpt>
      <trkpt lat="42.59737" lon="1.86469">
        <ele>2182.81</ele>
        <time>2025-02-15T13:29:01Z</time>
      </trkpt>
      <trkpt lat="42.59742" lon="1.86474">
        <ele>2182.81</ele>
        <time>2025-02-15T13:29:13Z</time>
      </trkpt>
      <trkpt lat="42.59747" lon="1.8648">
        <ele>2180.89</ele>
        <time>2025-02-15T13:29:26Z</time>
      </trkpt>
      <trkpt lat="42.59757" lon="1.86479">
        <ele>2178.97</ele>
        <time>2025-02-15T13:29:41Z</time>
      </trkpt>
      <trkpt lat="42.59763" lon="1.86482">
        <ele>2177.04</ele>
        <time>2025-02-15T13:29:53Z</time>
      </trkpt>
      <trkpt lat="42.59772" lon="1.86487">
        <ele>2175.6</ele>
        <time>2025-02-15T13:30:08Z</time>
      </trkpt>
      <trkpt lat="42.59778" lon="1.86493">
        <ele>2174.64</ele>
        <time>2025-02-15T13:30:21Z</time>
      </trkpt>
      <trkpt lat="42.59784" lon="1.86499">
        <ele>2174.16</ele>
        <time>2025-02-15T13:30:35Z</time>
      </trkpt>
      <trkpt lat="42.59786" lon="1.86502">
        <ele>2173.68</ele>
        <time>2025-02-15T13:30:48Z</time>
      </trkpt>
      <trkpt lat="42.59791" lon="1.86511">
        <ele>2173.68</ele>
        <time>2025-02-15T13:31:02Z</time>
      </trkpt>
      <trkpt lat="42.59796" lon="1.86517">
        <ele>2173.68</ele>
        <time>2025-02-15T13:31:16Z</time>
      </trkpt>
      <trkpt lat="42.59799" lon="1.86519">
        <ele>2173.2</ele>
        <time>2025-02-15T13:31:29Z</time>
      </trkpt>
      <trkpt lat="42.59804" lon="1.86525">
        <ele>2173.2</ele>
        <time>2025-02-15T13:31:46Z</time>
      </trkpt>
      <trkpt lat="42.59808" lon="1.86529">
        <ele>2172.72</ele>
        <time>2025-02-15T13:31:57Z</time>
      </trkpt>
      <trkpt lat="42.59811" lon="1.86532">
        <ele>2172.24</ele>
        <time>2025-02-15T13:32:10Z</time>
      </trkpt>
      <trkpt lat="42.59813" lon="1.86533">
        <ele>2172.24</ele>
        <time>2025-02-15T13:32:20Z</time>
      </trkpt>
      <trkpt lat="42.59815" lon="1.86537">
        <ele>2172.24</ele>
        <time>2025-02-15T13:32:30Z</time>
      </trkpt>
      <trkpt lat="42.59819" lon="1.86544">
        <ele>2172.24</ele>
        <time>2025-02-15T13:32:45Z</time>
      </trkpt>
      <trkpt lat="42.59823" lon="1.8655">
        <ele>2172.24</ele>
        <time>2025-02-15T13:32:59Z</time>
      </trkpt>
      <trkpt lat="42.59826" lon="1.86553">
        <ele>2171.76</ele>
        <time>2025-02-15T13:33:10Z</time>
      </trkpt>
      <trkpt lat="42.59828" lon="1.86558">
        <ele>2171.76</ele>
        <time>2025-02-15T13:33:29Z</time>
      </trkpt>
      <trkpt lat="42.59832" lon="1.86561">
        <ele>2171.76</ele>
        <time>2025-02-15T13:33:40Z</time>
      </trkpt>
      <trkpt lat="42.59836" lon="1.86565">
        <ele>2171.76</ele>
        <time>2025-02-15T13:33:54Z</time>
      </trkpt>
      <trkpt lat="42.5984" lon="1.8657">
        <ele>2171.76</ele>
        <time>2025-02-15T13:34:09Z</time>
      </trkpt>
      <trkpt lat="42.59847" lon="1.86575">
        <ele>2171.76</ele>
        <time>2025-02-15T13:34:24Z</time>
      </trkpt>
      <trkpt lat="42.59849" lon="1.86578">
        <ele>2173.2</ele>
        <time>2025-02-15T13:34:32Z</time>
      </trkpt>
      <trkpt lat="42.59856" lon="1.86579">
        <ele>2173.68</ele>
        <time>2025-02-15T13:34:47Z</time>
      </trkpt>
      <trkpt lat="42.59854" lon="1.86581">
        <ele>2173.68</ele>
        <time>2025-02-15T13:35:25Z</time>
      </trkpt>
      <trkpt lat="42.59857" lon="1.86587">
        <ele>2174.16</ele>
        <time>2025-02-15T13:35:41Z</time>
      </trkpt>
      <trkpt lat="42.59859" lon="1.86592">
        <ele>2174.64</ele>
        <time>2025-02-15T13:35:56Z</time>
      </trkpt>
      <trkpt lat="42.59863" lon="1.86597">
        <ele>2174.64</ele>
        <time>2025-02-15T13:36:09Z</time>
      </trkpt>
      <trkpt lat="42.59865" lon="1.86599">
        <ele>2173.68</ele>
        <time>2025-02-15T13:36:14Z</time>
      </trkpt>
      <trkpt lat="42.59871" lon="1.86603">
        <ele>2171.76</ele>
        <time>2025-02-15T13:36:27Z</time>
      </trkpt>
      <trkpt lat="42.59876" lon="1.86608">
        <ele>2171.27</ele>
        <time>2025-02-15T13:36:39Z</time>
      </trkpt>
      <trkpt lat="42.59882" lon="1.86613">
        <ele>2169.83</ele>
        <time>2025-02-15T13:36:57Z</time>
      </trkpt>
      <trkpt lat="42.59888" lon="1.86617">
        <ele>2168.87</ele>
        <time>2025-02-15T13:37:12Z</time>
      </trkpt>
      <trkpt lat="42.5989" lon="1.86619">
        <ele>2167.91</ele>
        <time>2025-02-15T13:37:26Z</time>
      </trkpt>
      <trkpt lat="42.59897" lon="1.86622">
        <ele>2166.47</ele>
        <time>2025-02-15T13:37:41Z</time>
      </trkpt>
      <trkpt lat="42.59903" lon="1.86624">
        <ele>2164.55</ele>
        <time>2025-02-15T13:37:56Z</time>
      </trkpt>
      <trkpt lat="42.59912" lon="1.86627">
        <ele>2163.1</ele>
        <time>2025-02-15T13:38:10Z</time>
      </trkpt>
      <trkpt lat="42.59919" lon="1.8663">
        <ele>2160.7</ele>
        <time>2025-02-15T13:38:24Z</time>
      </trkpt>
      <trkpt lat="42.59923" lon="1.86632">
        <ele>2159.26</ele>
        <time>2025-02-15T13:38:31Z</time>
      </trkpt>
      <trkpt lat="42.59936" lon="1.86633">
        <ele>2158.78</ele>
        <time>2025-02-15T13:38:47Z</time>
      </trkpt>
      <trkpt lat="42.59944" lon="1.86639">
        <ele>2156.37</ele>
        <time>2025-02-15T13:39:03Z</time>
      </trkpt>
      <trkpt lat="42.59949" lon="1.86648">
        <ele>2154.93</ele>
        <time>2025-02-15T13:39:18Z</time>
      </trkpt>
      <trkpt lat="42.59958" lon="1.86658">
        <ele>2153.49</ele>
        <time>2025-02-15T13:39:33Z</time>
      </trkpt>
      <trkpt lat="42.59968" lon="1.86664">
        <ele>2152.05</ele>
        <time>2025-02-15T13:39:47Z</time>
      </trkpt>
      <trkpt lat="42.59975" lon="1.86662">
        <ele>2151.09</ele>
        <time>2025-02-15T13:40:01Z</time>
      </trkpt>
      <trkpt lat="42.59986" lon="1.86668">
        <ele>2149.65</ele>
        <time>2025-02-15T13:40:17Z</time>
      </trkpt>
      <trkpt lat="42.59994" lon="1.86675">
        <ele>2148.2</ele>
        <time>2025-02-15T13:40:30Z</time>
      </trkpt>
      <trkpt lat="42.60001" lon="1.86679">
        <ele>2146.28</ele>
        <time>2025-02-15T13:40:45Z</time>
      </trkpt>
      <trkpt lat="42.6001" lon="1.86683">
        <ele>2144.84</ele>
        <time>2025-02-15T13:41:00Z</time>
      </trkpt>
      <trkpt lat="42.60013" lon="1.86686">
        <ele>2143.88</ele>
        <time>2025-02-15T13:41:13Z</time>
      </trkpt>
      <trkpt lat="42.60017" lon="1.86691">
        <ele>2142.92</ele>
        <time>2025-02-15T13:41:40Z</time>
      </trkpt>
      <trkpt lat="42.60022" lon="1.86692">
        <ele>2140.99</ele>
        <time>2025-02-15T13:41:53Z</time>
      </trkpt>
      <trkpt lat="42.60027" lon="1.86696">
        <ele>2139.07</ele>
        <time>2025-02-15T13:42:06Z</time>
      </trkpt>
      <trkpt lat="42.60032" lon="1.86703">
        <ele>2137.63</ele>
        <time>2025-02-15T13:42:21Z</time>
      </trkpt>
      <trkpt lat="42.60037" lon="1.86708">
        <ele>2134.74</ele>
        <time>2025-02-15T13:42:35Z</time>
      </trkpt>
      <trkpt lat="42.60042" lon="1.86711">
        <ele>2133.78</ele>
        <time>2025-02-15T13:42:46Z</time>
      </trkpt>
      <trkpt lat="42.60046" lon="1.86715">
        <ele>2131.86</ele>
        <time>2025-02-15T13:42:59Z</time>
      </trkpt>
      <trkpt lat="42.60051" lon="1.86719">
        <ele>2129.94</ele>
        <time>2025-02-15T13:43:15Z</time>
      </trkpt>
      <trkpt lat="42.60056" lon="1.86723">
        <ele>2128.02</ele>
        <time>2025-02-15T13:43:30Z</time>
      </trkpt>
      <trkpt lat="42.6006" lon="1.86728">
        <ele>2127.05</ele>
        <time>2025-02-15T13:43:44Z</time>
      </trkpt>
      <trkpt lat="42.60064" lon="1.86732">
        <ele>2125.61</ele>
        <time>2025-02-15T13:43:57Z</time>
      </trkpt>
      <trkpt lat="42.60071" lon="1.86738">
        <ele>2124.65</ele>
        <time>2025-02-15T13:44:14Z</time>
      </trkpt>
      <trkpt lat="42.60076" lon="1.86743">
        <ele>2124.17</ele>
        <time>2025-02-15T13:44:29Z</time>
      </trkpt>
      <trkpt lat="42.60081" lon="1.86746">
        <ele>2123.21</ele>
        <time>2025-02-15T13:44:40Z</time>
      </trkpt>
      <trkpt lat="42.60086" lon="1.8675">
        <ele>2121.29</ele>
        <time>2025-02-15T13:44:54Z</time>
      </trkpt>
      <trkpt lat="42.60093" lon="1.86757">
        <ele>2121.29</ele>
        <time>2025-02-15T13:45:07Z</time>
      </trkpt>
      <trkpt lat="42.60096" lon="1.86764">
        <ele>2121.29</ele>
        <time>2025-02-15T13:45:20Z</time>
      </trkpt>
      <trkpt lat="42.60097" lon="1.86772">
        <ele>2123.21</ele>
        <time>2025-02-15T13:45:37Z</time>
      </trkpt>
      <trkpt lat="42.60099" lon="1.86777">
        <ele>2123.69</ele>
        <time>2025-02-15T13:45:55Z</time>
      </trkpt>
      <trkpt lat="42.60102" lon="1.86784">
        <ele>2123.69</ele>
        <time>2025-02-15T13:46:09Z</time>
      </trkpt>
      <trkpt lat="42.60103" lon="1.86789">
        <ele>2124.17</ele>
        <time>2025-02-15T13:46:21Z</time>
      </trkpt>
      <trkpt lat="42.60103" lon="1.86794">
        <ele>2124.65</ele>
        <time>2025-02-15T13:46:36Z</time>
      </trkpt>
      <trkpt lat="42.60103" lon="1.868">
        <ele>2125.13</ele>
        <time>2025-02-15T13:46:50Z</time>
      </trkpt>
      <trkpt lat="42.60104" lon="1.86805">
        <ele>2125.13</ele>
        <time>2025-02-15T13:47:02Z</time>
      </trkpt>
      <trkpt lat="42.60107" lon="1.86806">
        <ele>2125.61</ele>
        <time>2025-02-15T13:47:14Z</time>
      </trkpt>
      <trkpt lat="42.60107" lon="1.8681">
        <ele>2126.09</ele>
        <time>2025-02-15T13:47:27Z</time>
      </trkpt>
      <trkpt lat="42.60106" lon="1.8681">
        <ele>2126.57</ele>
        <time>2025-02-15T13:47:40Z</time>
      </trkpt>
      <trkpt lat="42.60108" lon="1.86813">
        <ele>2126.57</ele>
        <time>2025-02-15T13:47:53Z</time>
      </trkpt>
      <trkpt lat="42.60112" lon="1.86818">
        <ele>2126.57</ele>
        <time>2025-02-15T13:48:05Z</time>
      </trkpt>
      <trkpt lat="42.60114" lon="1.86821">
        <ele>2125.61</ele>
        <time>2025-02-15T13:48:19Z</time>
      </trkpt>
      <trkpt lat="42.60116" lon="1.86821">
        <ele>2124.17</ele>
        <time>2025-02-15T13:48:32Z</time>
      </trkpt>
      <trkpt lat="42.60119" lon="1.86823">
        <ele>2123.69</ele>
        <time>2025-02-15T13:48:46Z</time>
      </trkpt>
      <trkpt lat="42.60121" lon="1.86826">
        <ele>2123.69</ele>
        <time>2025-02-15T13:49:00Z</time>
      </trkpt>
      <trkpt lat="42.60123" lon="1.86829">
        <ele>2123.69</ele>
        <time>2025-02-15T13:49:12Z</time>
      </trkpt>
      <trkpt lat="42.60123" lon="1.86833">
        <ele>2123.69</ele>
        <time>2025-02-15T13:49:23Z</time>
      </trkpt>
      <trkpt lat="42.60124" lon="1.86839">
        <ele>2123.69</ele>
        <time>2025-02-15T13:49:36Z</time>
      </trkpt>
      <trkpt lat="42.60125" lon="1.86843">
        <ele>2123.69</ele>
        <time>2025-02-15T13:49:49Z</time>
      </trkpt>
      <trkpt lat="42.60127" lon="1.86847">
        <ele>2123.69</ele>
        <time>2025-02-15T13:50:03Z</time>
      </trkpt>
      <trkpt lat="42.60129" lon="1.86851">
        <ele>2122.73</ele>
        <time>2025-02-15T13:50:19Z</time>
      </trkpt>
      <trkpt lat="42.60129" lon="1.8686">
        <ele>2122.25</ele>
        <time>2025-02-15T13:50:33Z</time>
      </trkpt>
      <trkpt lat="42.60127" lon="1.86865">
        <ele>2121.29</ele>
        <time>2025-02-15T13:50:48Z</time>
      </trkpt>
      <trkpt lat="42.60129" lon="1.86866">
        <ele>2120.32</ele>
        <time>2025-02-15T13:51:05Z</time>
      </trkpt>
      <trkpt lat="42.60133" lon="1.86868">
        <ele>2119.84</ele>
        <time>2025-02-15T13:51:22Z</time>
      </trkpt>
      <trkpt lat="42.60132" lon="1.86874">
        <ele>2119.36</ele>
        <time>2025-02-15T13:51:41Z</time>
      </trkpt>
      <trkpt lat="42.60132" lon="1.86874">
        <ele>2118.88</ele>
        <time>2025-02-15T13:52:00Z</time>
      </trkpt>
      <trkpt lat="42.60134" lon="1.86875">
        <ele>2118.4</ele>
        <time>2025-02-15T13:52:16Z</time>
      </trkpt>
      <trkpt lat="42.60133" lon="1.86878">
        <ele>2117.44</ele>
        <time>2025-02-15T13:52:30Z</time>
      </trkpt>
      <trkpt lat="42.6013" lon="1.86882">
        <ele>2116.96</ele>
        <time>2025-02-15T13:52:41Z</time>
      </trkpt>
      <trkpt lat="42.6013" lon="1.86887">
        <ele>2116.96</ele>
        <time>2025-02-15T13:52:53Z</time>
      </trkpt>
      <trkpt lat="42.6013" lon="1.86891">
        <ele>2116.48</ele>
        <time>2025-02-15T13:53:05Z</time>
      </trkpt>
      <trkpt lat="42.60131" lon="1.86896">
        <ele>2116</ele>
        <time>2025-02-15T13:53:15Z</time>
      </trkpt>
      <trkpt lat="42.60131" lon="1.869">
        <ele>2116</ele>
        <time>2025-02-15T13:53:28Z</time>
      </trkpt>
      <trkpt lat="42.60132" lon="1.86905">
        <ele>2115.52</ele>
        <time>2025-02-15T13:53:40Z</time>
      </trkpt>
      <trkpt lat="42.60132" lon="1.86908">
        <ele>2115.04</ele>
        <time>2025-02-15T13:53:55Z</time>
      </trkpt>
      <trkpt lat="42.60133" lon="1.86917">
        <ele>2114.56</ele>
        <time>2025-02-15T13:54:08Z</time>
      </trkpt>
      <trkpt lat="42.60132" lon="1.86919">
        <ele>2113.12</ele>
        <time>2025-02-15T13:54:21Z</time>
      </trkpt>
      <trkpt lat="42.60132" lon="1.86923">
        <ele>2111.67</ele>
        <time>2025-02-15T13:54:34Z</time>
      </trkpt>
      <trkpt lat="42.60133" lon="1.86925">
        <ele>2111.19</ele>
        <time>2025-02-15T13:54:52Z</time>
      </trkpt>
      <trkpt lat="42.60134" lon="1.86926">
        <ele>2110.23</ele>
        <time>2025-02-15T13:55:06Z</time>
      </trkpt>
      <trkpt lat="42.60135" lon="1.86928">
        <ele>2109.75</ele>
        <time>2025-02-15T13:55:20Z</time>
      </trkpt>
      <trkpt lat="42.60135" lon="1.86927">
        <ele>2109.27</ele>
        <time>2025-02-15T13:55:44Z</time>
      </trkpt>
      <trkpt lat="42.60138" lon="1.86931">
        <ele>2107.83</ele>
        <time>2025-02-15T13:55:59Z</time>
      </trkpt>
      <trkpt lat="42.6014" lon="1.86937">
        <ele>2106.39</ele>
        <time>2025-02-15T13:56:15Z</time>
      </trkpt>
      <trkpt lat="42.60141" lon="1.8694">
        <ele>2105.42</ele>
        <time>2025-02-15T13:56:31Z</time>
      </trkpt>
      <trkpt lat="42.6014" lon="1.86944">
        <ele>2103.98</ele>
        <time>2025-02-15T13:56:48Z</time>
      </trkpt>
      <trkpt lat="42.60143" lon="1.86947">
        <ele>2103.02</ele>
        <time>2025-02-15T13:57:03Z</time>
      </trkpt>
      <trkpt lat="42.60145" lon="1.86951">
        <ele>2101.58</ele>
        <time>2025-02-15T13:57:16Z</time>
      </trkpt>
      <trkpt lat="42.60148" lon="1.86954">
        <ele>2100.14</ele>
        <time>2025-02-15T13:57:30Z</time>
      </trkpt>
      <trkpt lat="42.60148" lon="1.86955">
        <ele>2099.18</ele>
        <time>2025-02-15T13:57:45Z</time>
      </trkpt>
      <trkpt lat="42.6015" lon="1.86958">
        <ele>2098.21</ele>
        <time>2025-02-15T13:58:02Z</time>
      </trkpt>
      <trkpt lat="42.60153" lon="1.86959">
        <ele>2096.77</ele>
        <time>2025-02-15T13:58:18Z</time>
      </trkpt>
      <trkpt lat="42.60155" lon="1.8696">
        <ele>2096.29</ele>
        <time>2025-02-15T13:58:32Z</time>
      </trkpt>
      <trkpt lat="42.60156" lon="1.86962">
        <ele>2095.81</ele>
        <time>2025-02-15T13:58:46Z</time>
      </trkpt>
      <trkpt lat="42.60155" lon="1.86962">
        <ele>2095.33</ele>
        <time>2025-02-15T13:59:01Z</time>
      </trkpt>
      <trkpt lat="42.60157" lon="1.86961">
        <ele>2094.85</ele>
        <time>2025-02-15T13:59:15Z</time>
      </trkpt>
      <trkpt lat="42.60158" lon="1.86963">
        <ele>2094.37</ele>
        <time>2025-02-15T13:59:29Z</time>
      </trkpt>
      <trkpt lat="42.60157" lon="1.86964">
        <ele>2093.89</ele>
        <time>2025-02-15T13:59:45Z</time>
      </trkpt>
      <trkpt lat="42.60156" lon="1.86965">
        <ele>2093.89</ele>
        <time>2025-02-15T13:59:59Z</time>
      </trkpt>
      <trkpt lat="42.60157" lon="1.86963">
        <ele>2093.41</ele>
        <time>2025-02-15T14:00:13Z</time>
      </trkpt>
      <trkpt lat="42.60159" lon="1.86965">
        <ele>2092.45</ele>
        <time>2025-02-15T14:00:27Z</time>
      </trkpt>
      <trkpt lat="42.60161" lon="1.86963">
        <ele>2091.97</ele>
        <time>2025-02-15T14:00:43Z</time>
      </trkpt>
      <trkpt lat="42.60163" lon="1.86965">
        <ele>2090.52</ele>
        <time>2025-02-15T14:00:58Z</time>
      </trkpt>
      <trkpt lat="42.60164" lon="1.86967">
        <ele>2089.56</ele>
        <time>2025-02-15T14:01:11Z</time>
      </trkpt>
      <trkpt lat="42.60166" lon="1.86969">
        <ele>2088.6</ele>
        <time>2025-02-15T14:01:28Z</time>
      </trkpt>
      <trkpt lat="42.60168" lon="1.86969">
        <ele>2087.16</ele>
        <time>2025-02-15T14:01:45Z</time>
      </trkpt>
      <trkpt lat="42.60168" lon="1.8697">
        <ele>2087.16</ele>
        <time>2025-02-15T14:02:00Z</time>
      </trkpt>
      <trkpt lat="42.60168" lon="1.86971">
        <ele>2087.16</ele>
        <time>2025-02-15T14:02:24Z</time>
      </trkpt>
      <trkpt lat="42.60168" lon="1.86971">
        <ele>2086.68</ele>
        <time>2025-02-15T14:02:47Z</time>
      </trkpt>
      <trkpt lat="42.60171" lon="1.86971">
        <ele>2085.24</ele>
        <time>2025-02-15T14:03:03Z</time>
      </trkpt>
      <trkpt lat="42.60176" lon="1.86973">
        <ele>2082.83</ele>
        <time>2025-02-15T14:03:17Z</time>
      </trkpt>
      <trkpt lat="42.60179" lon="1.86974">
        <ele>2081.39</ele>
        <time>2025-02-15T14:03:32Z</time>
      </trkpt>
      <trkpt lat="42.60181" lon="1.86978">
        <ele>2079.95</ele>
        <time>2025-02-15T14:03:47Z</time>
      </trkpt>
      <trkpt lat="42.60184" lon="1.86981">
        <ele>2078.99</ele>
        <time>2025-02-15T14:04:02Z</time>
      </trkpt>
      <trkpt lat="42.60186" lon="1.86983">
        <ele>2078.03</ele>
        <time>2025-02-15T14:04:16Z</time>
      </trkpt>
      <trkpt lat="42.60188" lon="1.86983">
        <ele>2077.07</ele>
        <time>2025-02-15T14:04:29Z</time>
      </trkpt>
      <trkpt lat="42.60189" lon="1.86984">
        <ele>2076.59</ele>
        <time>2025-02-15T14:04:44Z</time>
      </trkpt>
      <trkpt lat="42.60192" lon="1.86985">
        <ele>2075.14</ele>
        <time>2025-02-15T14:05:00Z</time>
      </trkpt>
      <trkpt lat="42.60193" lon="1.86986">
        <ele>2074.66</ele>
        <time>2025-02-15T14:05:14Z</time>
      </trkpt>
      <trkpt lat="42.60196" lon="1.86988">
        <ele>2073.7</ele>
        <time>2025-02-15T14:05:28Z</time>
      </trkpt>
      <trkpt lat="42.60197" lon="1.86987">
        <ele>2073.22</ele>
        <time>2025-02-15T14:05:42Z</time>
      </trkpt>
      <trkpt lat="42.602" lon="1.86989">
        <ele>2071.3</ele>
        <time>2025-02-15T14:05:57Z</time>
      </trkpt>
      <trkpt lat="42.60203" lon="1.8699">
        <ele>2070.34</ele>
        <time>2025-02-15T14:06:11Z</time>
      </trkpt>
      <trkpt lat="42.60207" lon="1.86993">
        <ele>2068.41</ele>
        <time>2025-02-15T14:06:27Z</time>
      </trkpt>
      <trkpt lat="42.60207" lon="1.86993">
        <ele>2066.49</ele>
        <time>2025-02-15T14:06:43Z</time>
      </trkpt>
      <trkpt lat="42.60209" lon="1.86994">
        <ele>2066.49</ele>
        <time>2025-02-15T14:06:58Z</time>
      </trkpt>
      <trkpt lat="42.60209" lon="1.86991">
        <ele>2065.05</ele>
        <time>2025-02-15T14:07:13Z</time>
      </trkpt>
      <trkpt lat="42.60212" lon="1.86989">
        <ele>2064.09</ele>
        <time>2025-02-15T14:07:26Z</time>
      </trkpt>
      <trkpt lat="42.60215" lon="1.86987">
        <ele>2062.65</ele>
        <time>2025-02-15T14:07:40Z</time>
      </trkpt>
      <trkpt lat="42.60219" lon="1.86989">
        <ele>2060.72</ele>
        <time>2025-02-15T14:07:53Z</time>
      </trkpt>
      <trkpt lat="42.60223" lon="1.86987">
        <ele>2057.84</ele>
        <time>2025-02-15T14:08:07Z</time>
      </trkpt>
      <trkpt lat="42.60228" lon="1.86987">
        <ele>2055.92</ele>
        <time>2025-02-15T14:08:21Z</time>
      </trkpt>
      <trkpt lat="42.60232" lon="1.86988">
        <ele>2054.47</ele>
        <time>2025-02-15T14:08:32Z</time>
      </trkpt>
      <trkpt lat="42.60241" lon="1.86988">
        <ele>2053.99</ele>
        <time>2025-02-15T14:08:46Z</time>
      </trkpt>
      <trkpt lat="42.60249" lon="1.8699">
        <ele>2053.99</ele>
        <time>2025-02-15T14:09:03Z</time>
      </trkpt>
      <trkpt lat="42.60258" lon="1.8699">
        <ele>2053.99</ele>
        <time>2025-02-15T14:09:15Z</time>
      </trkpt>
      <trkpt lat="42.60262" lon="1.86994">
        <ele>2053.51</ele>
        <time>2025-02-15T14:09:29Z</time>
      </trkpt>
      <trkpt lat="42.6027" lon="1.86997">
        <ele>2054.47</ele>
        <time>2025-02-15T14:09:44Z</time>
      </trkpt>
      <trkpt lat="42.60271" lon="1.86998">
        <ele>2054.96</ele>
        <time>2025-02-15T14:09:56Z</time>
      </trkpt>
      <trkpt lat="42.60275" lon="1.86998">
        <ele>2054.96</ele>
        <time>2025-02-15T14:10:11Z</time>
      </trkpt>
      <trkpt lat="42.60278" lon="1.86997">
        <ele>2055.92</ele>
        <time>2025-02-15T14:10:25Z</time>
      </trkpt>
      <trkpt lat="42.60281" lon="1.86991">
        <ele>2057.36</ele>
        <time>2025-02-15T14:10:41Z</time>
      </trkpt>
      <trkpt lat="42.60284" lon="1.86986">
        <ele>2057.36</ele>
        <time>2025-02-15T14:10:54Z</time>
      </trkpt>
      <trkpt lat="42.60286" lon="1.86975">
        <ele>2057.36</ele>
        <time>2025-02-15T14:11:08Z</time>
      </trkpt>
      <trkpt lat="42.60285" lon="1.86964">
        <ele>2056.4</ele>
        <time>2025-02-15T14:11:23Z</time>
      </trkpt>
      <trkpt lat="42.60287" lon="1.86955">
        <ele>2054.47</ele>
        <time>2025-02-15T14:11:38Z</time>
      </trkpt>
      <trkpt lat="42.60286" lon="1.86948">
        <ele>2053.51</ele>
        <time>2025-02-15T14:11:54Z</time>
      </trkpt>
      <trkpt lat="42.60289" lon="1.86944">
        <ele>2053.03</ele>
        <time>2025-02-15T14:12:08Z</time>
      </trkpt>
      <trkpt lat="42.6029" lon="1.8694">
        <ele>2052.55</ele>
        <time>2025-02-15T14:12:23Z</time>
      </trkpt>
      <trkpt lat="42.60292" lon="1.86934">
        <ele>2053.51</ele>
        <time>2025-02-15T14:12:39Z</time>
      </trkpt>
      <trkpt lat="42.60296" lon="1.86924">
        <ele>2054.47</ele>
        <time>2025-02-15T14:12:55Z</time>
      </trkpt>
      <trkpt lat="42.60299" lon="1.86918">
        <ele>2055.44</ele>
        <time>2025-02-15T14:13:07Z</time>
      </trkpt>
      <trkpt lat="42.60301" lon="1.8691">
        <ele>2056.88</ele>
        <time>2025-02-15T14:13:22Z</time>
      </trkpt>
      <trkpt lat="42.603" lon="1.86913">
        <ele>2056.88</ele>
        <time>2025-02-15T14:13:43Z</time>
      </trkpt>
      <trkpt lat="42.60303" lon="1.8691">
        <ele>2058.32</ele>
        <time>2025-02-15T14:13:58Z</time>
      </trkpt>
      <trkpt lat="42.60307" lon="1.86906">
        <ele>2058.8</ele>
        <time>2025-02-15T14:14:18Z</time>
      </trkpt>
      <trkpt lat="42.60308" lon="1.86902">
        <ele>2059.76</ele>
        <time>2025-02-15T14:14:32Z</time>
      </trkpt>
      <trkpt lat="42.6031" lon="1.86895">
        <ele>2061.2</ele>
        <time>2025-02-15T14:14:49Z</time>
      </trkpt>
      <trkpt lat="42.60311" lon="1.86893">
        <ele>2061.68</ele>
        <time>2025-02-15T14:15:11Z</time>
      </trkpt>
      <trkpt lat="42.60314" lon="1.86883">
        <ele>2062.65</ele>
        <time>2025-02-15T14:15:32Z</time>
      </trkpt>
      <trkpt lat="42.60316" lon="1.86877">
        <ele>2064.09</ele>
        <time>2025-02-15T14:15:45Z</time>
      </trkpt>
      <trkpt lat="42.60319" lon="1.86869">
        <ele>2066.01</ele>
        <time>2025-02-15T14:16:01Z</time>
      </trkpt>
      <trkpt lat="42.60321" lon="1.86864">
        <ele>2066.97</ele>
        <time>2025-02-15T14:16:15Z</time>
      </trkpt>
      <trkpt lat="42.60324" lon="1.86859">
        <ele>2068.89</ele>
        <time>2025-02-15T14:16:32Z</time>
      </trkpt>
      <trkpt lat="42.60326" lon="1.86853">
        <ele>2069.86</ele>
        <time>2025-02-15T14:16:45Z</time>
      </trkpt>
      <trkpt lat="42.60326" lon="1.86848">
        <ele>2070.82</ele>
        <time>2025-02-15T14:16:58Z</time>
      </trkpt>
      <trkpt lat="42.60329" lon="1.86841">
        <ele>2071.3</ele>
        <time>2025-02-15T14:17:14Z</time>
      </trkpt>
      <trkpt lat="42.60332" lon="1.86835">
        <ele>2072.74</ele>
        <time>2025-02-15T14:17:26Z</time>
      </trkpt>
      <trkpt lat="42.60334" lon="1.8683">
        <ele>2073.7</ele>
        <time>2025-02-15T14:17:40Z</time>
      </trkpt>
      <trkpt lat="42.60337" lon="1.86825">
        <ele>2075.14</ele>
        <time>2025-02-15T14:17:55Z</time>
      </trkpt>
      <trkpt lat="42.60339" lon="1.86829">
        <ele>2076.59</ele>
        <time>2025-02-15T14:18:09Z</time>
      </trkpt>
      <trkpt lat="42.60342" lon="1.86834">
        <ele>2078.03</ele>
        <time>2025-02-15T14:18:27Z</time>
      </trkpt>
      <trkpt lat="42.60346" lon="1.86829">
        <ele>2079.47</ele>
        <time>2025-02-15T14:18:42Z</time>
      </trkpt>
      <trkpt lat="42.60349" lon="1.86825">
        <ele>2080.43</ele>
        <time>2025-02-15T14:18:55Z</time>
      </trkpt>
      <trkpt lat="42.60352" lon="1.86821">
        <ele>2081.39</ele>
        <time>2025-02-15T14:19:08Z</time>
      </trkpt>
      <trkpt lat="42.60356" lon="1.86815">
        <ele>2081.87</ele>
        <time>2025-02-15T14:19:21Z</time>
      </trkpt>
      <trkpt lat="42.6036" lon="1.8681">
        <ele>2083.31</ele>
        <time>2025-02-15T14:19:34Z</time>
      </trkpt>
      <trkpt lat="42.60364" lon="1.86809">
        <ele>2084.76</ele>
        <time>2025-02-15T14:19:49Z</time>
      </trkpt>
      <trkpt lat="42.60367" lon="1.86813">
        <ele>2087.16</ele>
        <time>2025-02-15T14:20:05Z</time>
      </trkpt>
      <trkpt lat="42.60369" lon="1.86816">
        <ele>2088.12</ele>
        <time>2025-02-15T14:20:19Z</time>
      </trkpt>
      <trkpt lat="42.60371" lon="1.8682">
        <ele>2089.56</ele>
        <time>2025-02-15T14:20:32Z</time>
      </trkpt>
      <trkpt lat="42.60372" lon="1.86825">
        <ele>2091.97</ele>
        <time>2025-02-15T14:20:48Z</time>
      </trkpt>
      <trkpt lat="42.60374" lon="1.86831">
        <ele>2092.93</ele>
        <time>2025-02-15T14:21:02Z</time>
      </trkpt>
      <trkpt lat="42.60375" lon="1.86837">
        <ele>2094.37</ele>
        <time>2025-02-15T14:21:17Z</time>
      </trkpt>
      <trkpt lat="42.60377" lon="1.86843">
        <ele>2095.81</ele>
        <time>2025-02-15T14:21:31Z</time>
      </trkpt>
      <trkpt lat="42.60379" lon="1.86851">
        <ele>2097.25</ele>
        <time>2025-02-15T14:21:49Z</time>
      </trkpt>
      <trkpt lat="42.60378" lon="1.86856">
        <ele>2098.7</ele>
        <time>2025-02-15T14:22:05Z</time>
      </trkpt>
      <trkpt lat="42.60381" lon="1.86852">
        <ele>2099.18</ele>
        <time>2025-02-15T14:22:16Z</time>
      </trkpt>
      <trkpt lat="42.60381" lon="1.86852">
        <ele>2099.18</ele>
        <time>2025-02-15T14:22:31Z</time>
      </trkpt>
      <trkpt lat="42.60383" lon="1.8685">
        <ele>2099.18</ele>
        <time>2025-02-15T14:22:42Z</time>
      </trkpt>
      <trkpt lat="42.60385" lon="1.86849">
        <ele>2099.18</ele>
        <time>2025-02-15T14:22:57Z</time>
      </trkpt>
      <trkpt lat="42.60384" lon="1.86848">
        <ele>2099.18</ele>
        <time>2025-02-15T14:23:14Z</time>
      </trkpt>
      <trkpt lat="42.60382" lon="1.8685">
        <ele>2099.18</ele>
        <time>2025-02-15T14:23:32Z</time>
      </trkpt>
      <trkpt lat="42.60382" lon="1.86851">
        <ele>2099.18</ele>
        <time>2025-02-15T14:23:48Z</time>
      </trkpt>
      <trkpt lat="42.60383" lon="1.86845">
        <ele>2099.18</ele>
        <time>2025-02-15T14:24:11Z</time>
      </trkpt>
      <trkpt lat="42.60382" lon="1.86847">
        <ele>2098.7</ele>
        <time>2025-02-15T14:24:25Z</time>
      </trkpt>
      <trkpt lat="42.60383" lon="1.86847">
        <ele>2098.7</ele>
        <time>2025-02-15T14:24:51Z</time>
      </trkpt>
      <trkpt lat="42.60386" lon="1.86844">
        <ele>2098.7</ele>
        <time>2025-02-15T14:25:16Z</time>
      </trkpt>
      <trkpt lat="42.60387" lon="1.86844">
        <ele>2098.7</ele>
        <time>2025-02-15T14:25:42Z</time>
      </trkpt>
      <trkpt lat="42.60387" lon="1.86846">
        <ele>2098.7</ele>
        <time>2025-02-15T14:26:01Z</time>
      </trkpt>
      <trkpt lat="42.60392" lon="1.86848">
        <ele>2098.21</ele>
        <time>2025-02-15T14:26:21Z</time>
      </trkpt>
      <trkpt lat="42.60396" lon="1.86841">
        <ele>2098.7</ele>
        <time>2025-02-15T14:26:43Z</time>
      </trkpt>
      <trkpt lat="42.60388" lon="1.86844">
        <ele>2098.7</ele>
        <time>2025-02-15T14:27:04Z</time>
      </trkpt>
      <trkpt lat="42.60392" lon="1.86844">
        <ele>2098.21</ele>
        <time>2025-02-15T14:27:27Z</time>
      </trkpt>
      <trkpt lat="42.60396" lon="1.86851">
        <ele>2098.21</ele>
        <time>2025-02-15T14:27:53Z</time>
      </trkpt>
      <trkpt lat="42.60393" lon="1.86856">
        <ele>2098.21</ele>
        <time>2025-02-15T14:28:20Z</time>
      </trkpt>
      <trkpt lat="42.60397" lon="1.8685">
        <ele>2097.73</ele>
        <time>2025-02-15T14:28:41Z</time>
      </trkpt>
      <trkpt lat="42.60394" lon="1.86861">
        <ele>2097.73</ele>
        <time>2025-02-15T14:29:14Z</time>
      </trkpt>
      <trkpt lat="42.60392" lon="1.86859">
        <ele>2096.77</ele>
        <time>2025-02-15T14:29:49Z</time>
      </trkpt>
      <trkpt lat="42.60388" lon="1.86863">
        <ele>2096.77</ele>
        <time>2025-02-15T14:30:25Z</time>
      </trkpt>
      <trkpt lat="42.60389" lon="1.86867">
        <ele>2096.77</ele>
        <time>2025-02-15T14:31:00Z</time>
      </trkpt>
      <trkpt lat="42.60383" lon="1.86867">
        <ele>2096.29</ele>
        <time>2025-02-15T14:31:26Z</time>
      </trkpt>
      <trkpt lat="42.60383" lon="1.86875">
        <ele>2096.29</ele>
        <time>2025-02-15T14:31:50Z</time>
      </trkpt>
      <trkpt lat="42.60388" lon="1.86867">
        <ele>2096.29</ele>
        <time>2025-02-15T14:32:19Z</time>
      </trkpt>
      <trkpt lat="42.60383" lon="1.86872">
        <ele>2096.29</ele>
        <time>2025-02-15T14:32:41Z</time>
      </trkpt>
      <trkpt lat="42.60374" lon="1.86874">
        <ele>2096.29</ele>
        <time>2025-02-15T14:33:11Z</time>
      </trkpt>
      <trkpt lat="42.60375" lon="1.86875">
        <ele>2096.77</ele>
        <time>2025-02-15T14:33:42Z</time>
      </trkpt>
      <trkpt lat="42.60382" lon="1.86864">
        <ele>2096.77</ele>
        <time>2025-02-15T14:34:16Z</time>
      </trkpt>
      <trkpt lat="42.60386" lon="1.86863">
        <ele>2096.77</ele>
        <time>2025-02-15T14:34:51Z</time>
      </trkpt>
      <trkpt lat="42.60386" lon="1.8686">
        <ele>2096.77</ele>
        <time>2025-02-15T14:35:23Z</time>
      </trkpt>
      <trkpt lat="42.60387" lon="1.86862">
        <ele>2096.77</ele>
        <time>2025-02-15T14:35:51Z</time>
      </trkpt>
      <trkpt lat="42.60396" lon="1.86859">
        <ele>2096.77</ele>
        <time>2025-02-15T14:36:20Z</time>
      </trkpt>
      <trkpt lat="42.60399" lon="1.86857">
        <ele>2096.77</ele>
        <time>2025-02-15T14:36:49Z</time>
      </trkpt>
      <trkpt lat="42.60392" lon="1.86857">
        <ele>2096.77</ele>
        <time>2025-02-15T14:37:15Z</time>
      </trkpt>
      <trkpt lat="42.60385" lon="1.86861">
        <ele>2096.77</ele>
        <time>2025-02-15T14:37:42Z</time>
      </trkpt>
      <trkpt lat="42.60386" lon="1.86863">
        <ele>2096.77</ele>
        <time>2025-02-15T14:38:15Z</time>
      </trkpt>
      <trkpt lat="42.60387" lon="1.86862">
        <ele>2096.29</ele>
        <time>2025-02-15T14:38:59Z</time>
      </trkpt>
      <trkpt lat="42.60271" lon="1.86947">
        <ele>2036.69</ele>
        <time>2025-02-16T07:58:39Z</time>
      </trkpt>
      <trkpt lat="42.60273" lon="1.8694">
        <ele>2036.21</ele>
        <time>2025-02-16T07:58:53Z</time>
      </trkpt>
      <trkpt lat="42.60279" lon="1.86931">
        <ele>2033.33</ele>
        <time>2025-02-16T07:59:09Z</time>
      </trkpt>
      <trkpt lat="42.60278" lon="1.86931">
        <ele>2032.84</ele>
        <time>2025-02-16T07:59:12Z</time>
      </trkpt>
      <trkpt lat="42.6027" lon="1.86932">
        <ele>2030.44</ele>
        <time>2025-02-16T07:59:26Z</time>
      </trkpt>
      <trkpt lat="42.60267" lon="1.86934">
        <ele>2029.96</ele>
        <time>2025-02-16T07:59:30Z</time>
      </trkpt>
      <trkpt lat="42.60263" lon="1.86936">
        <ele>2029.48</ele>
        <time>2025-02-16T07:59:41Z</time>
      </trkpt>
      <trkpt lat="42.60261" lon="1.86939">
        <ele>2027.08</ele>
        <time>2025-02-16T07:59:47Z</time>
      </trkpt>
      <trkpt lat="42.60254" lon="1.86939">
        <ele>2024.19</ele>
        <time>2025-02-16T07:59:58Z</time>
      </trkpt>
      <trkpt lat="42.60251" lon="1.86937">
        <ele>2021.79</ele>
        <time>2025-02-16T08:00:13Z</time>
      </trkpt>
      <trkpt lat="42.60244" lon="1.86928">
        <ele>2019.39</ele>
        <time>2025-02-16T08:00:28Z</time>
      </trkpt>
      <trkpt lat="42.60243" lon="1.86927">
        <ele>2019.39</ele>
        <time>2025-02-16T08:00:29Z</time>
      </trkpt>
      <trkpt lat="42.60239" lon="1.86914">
        <ele>2018.43</ele>
        <time>2025-02-16T08:00:44Z</time>
      </trkpt>
      <trkpt lat="42.60238" lon="1.86913">
        <ele>2017.94</ele>
        <time>2025-02-16T08:00:45Z</time>
      </trkpt>
      <trkpt lat="42.60237" lon="1.86892">
        <ele>2016.5</ele>
        <time>2025-02-16T08:01:00Z</time>
      </trkpt>
      <trkpt lat="42.60236" lon="1.86875">
        <ele>2015.06</ele>
        <time>2025-02-16T08:01:15Z</time>
      </trkpt>
      <trkpt lat="42.60236" lon="1.86873">
        <ele>2015.06</ele>
        <time>2025-02-16T08:01:17Z</time>
      </trkpt>
      <trkpt lat="42.60236" lon="1.86867">
        <ele>2014.1</ele>
        <time>2025-02-16T08:01:22Z</time>
      </trkpt>
      <trkpt lat="42.60236" lon="1.86853">
        <ele>2012.66</ele>
        <time>2025-02-16T08:01:36Z</time>
      </trkpt>
      <trkpt lat="42.60233" lon="1.86839">
        <ele>2011.7</ele>
        <time>2025-02-16T08:01:52Z</time>
      </trkpt>
      <trkpt lat="42.60232" lon="1.86829">
        <ele>2011.22</ele>
        <time>2025-02-16T08:02:06Z</time>
      </trkpt>
      <trkpt lat="42.60234" lon="1.86819">
        <ele>2010.73</ele>
        <time>2025-02-16T08:02:21Z</time>
      </trkpt>
      <trkpt lat="42.60235" lon="1.86812">
        <ele>2009.77</ele>
        <time>2025-02-16T08:02:41Z</time>
      </trkpt>
      <trkpt lat="42.60235" lon="1.86806">
        <ele>2009.77</ele>
        <time>2025-02-16T08:03:01Z</time>
      </trkpt>
      <trkpt lat="42.60235" lon="1.86799">
        <ele>2009.77</ele>
        <time>2025-02-16T08:03:18Z</time>
      </trkpt>
      <trkpt lat="42.60237" lon="1.86788">
        <ele>2008.81</ele>
        <time>2025-02-16T08:03:34Z</time>
      </trkpt>
      <trkpt lat="42.60241" lon="1.86771">
        <ele>2006.89</ele>
        <time>2025-02-16T08:03:52Z</time>
      </trkpt>
      <trkpt lat="42.60239" lon="1.86756">
        <ele>2006.41</ele>
        <time>2025-02-16T08:04:08Z</time>
      </trkpt>
      <trkpt lat="42.60235" lon="1.86739">
        <ele>2004.97</ele>
        <time>2025-02-16T08:04:23Z</time>
      </trkpt>
      <trkpt lat="42.6023" lon="1.86727">
        <ele>2004.49</ele>
        <time>2025-02-16T08:04:38Z</time>
      </trkpt>
      <trkpt lat="42.60223" lon="1.86715">
        <ele>2004.01</ele>
        <time>2025-02-16T08:04:52Z</time>
      </trkpt>
      <trkpt lat="42.6022" lon="1.86702">
        <ele>2003.04</ele>
        <time>2025-02-16T08:05:08Z</time>
      </trkpt>
      <trkpt lat="42.60219" lon="1.86697">
        <ele>2003.04</ele>
        <time>2025-02-16T08:05:23Z</time>
      </trkpt>
      <trkpt lat="42.60219" lon="1.86693">
        <ele>2003.52</ele>
        <time>2025-02-16T08:05:50Z</time>
      </trkpt>
      <trkpt lat="42.60217" lon="1.86692">
        <ele>2003.52</ele>
        <time>2025-02-16T08:06:16Z</time>
      </trkpt>
      <trkpt lat="42.60216" lon="1.86695">
        <ele>2003.52</ele>
        <time>2025-02-16T08:06:39Z</time>
      </trkpt>
      <trkpt lat="42.60217" lon="1.86696">
        <ele>2003.52</ele>
        <time>2025-02-16T08:06:40Z</time>
      </trkpt>
      <trkpt lat="42.60219" lon="1.86693">
        <ele>2003.04</ele>
        <time>2025-02-16T08:06:53Z</time>
      </trkpt>
      <trkpt lat="42.60218" lon="1.86696">
        <ele>2003.52</ele>
        <time>2025-02-16T08:07:20Z</time>
      </trkpt>
      <trkpt lat="42.60219" lon="1.86695">
        <ele>2003.52</ele>
        <time>2025-02-16T08:07:59Z</time>
      </trkpt>
      <trkpt lat="42.6022" lon="1.86694">
        <ele>2004.01</ele>
        <time>2025-02-16T08:08:44Z</time>
      </trkpt>
      <trkpt lat="42.60223" lon="1.86694">
        <ele>2004.01</ele>
        <time>2025-02-16T08:08:58Z</time>
      </trkpt>
      <trkpt lat="42.60223" lon="1.86695">
        <ele>2004.01</ele>
        <time>2025-02-16T08:09:15Z</time>
      </trkpt>
      <trkpt lat="42.60225" lon="1.86694">
        <ele>2004.01</ele>
        <time>2025-02-16T08:09:37Z</time>
      </trkpt>
      <trkpt lat="42.60224" lon="1.86693">
        <ele>2004.49</ele>
        <time>2025-02-16T08:10:02Z</time>
      </trkpt>
      <trkpt lat="42.60223" lon="1.86694">
        <ele>2004.49</ele>
        <time>2025-02-16T08:10:24Z</time>
      </trkpt>
      <trkpt lat="42.60224" lon="1.86693">
        <ele>2004.97</ele>
        <time>2025-02-16T08:10:47Z</time>
      </trkpt>
      <trkpt lat="42.60218" lon="1.86691">
        <ele>2004.97</ele>
        <time>2025-02-16T08:11:06Z</time>
      </trkpt>
      <trkpt lat="42.60214" lon="1.86688">
        <ele>2006.41</ele>
        <time>2025-02-16T08:11:16Z</time>
      </trkpt>
      <trkpt lat="42.60207" lon="1.86682">
        <ele>2007.85</ele>
        <time>2025-02-16T08:11:29Z</time>
      </trkpt>
      <trkpt lat="42.60203" lon="1.86677">
        <ele>2008.81</ele>
        <time>2025-02-16T08:11:38Z</time>
      </trkpt>
      <trkpt lat="42.60199" lon="1.86671">
        <ele>2009.29</ele>
        <time>2025-02-16T08:11:48Z</time>
      </trkpt>
      <trkpt lat="42.602" lon="1.86675">
        <ele>2010.73</ele>
        <time>2025-02-16T08:11:59Z</time>
      </trkpt>
      <trkpt lat="42.60199" lon="1.86681">
        <ele>2012.18</ele>
        <time>2025-02-16T08:12:11Z</time>
      </trkpt>
      <trkpt lat="42.602" lon="1.86688">
        <ele>2013.62</ele>
        <time>2025-02-16T08:12:25Z</time>
      </trkpt>
      <trkpt lat="42.602" lon="1.86691">
        <ele>2014.1</ele>
        <time>2025-02-16T08:12:30Z</time>
      </trkpt>
      <trkpt lat="42.60199" lon="1.86695">
        <ele>2015.06</ele>
        <time>2025-02-16T08:12:39Z</time>
      </trkpt>
      <trkpt lat="42.60198" lon="1.86697">
        <ele>2016.02</ele>
        <time>2025-02-16T08:12:49Z</time>
      </trkpt>
      <trkpt lat="42.60188" lon="1.86688">
        <ele>2017.94</ele>
        <time>2025-02-16T08:13:08Z</time>
      </trkpt>
      <trkpt lat="42.60185" lon="1.86676">
        <ele>2019.39</ele>
        <time>2025-02-16T08:13:28Z</time>
      </trkpt>
      <trkpt lat="42.60179" lon="1.86664">
        <ele>2020.83</ele>
        <time>2025-02-16T08:13:49Z</time>
      </trkpt>
      <trkpt lat="42.60176" lon="1.86654">
        <ele>2022.27</ele>
        <time>2025-02-16T08:14:07Z</time>
      </trkpt>
      <trkpt lat="42.60173" lon="1.8664">
        <ele>2024.19</ele>
        <time>2025-02-16T08:14:29Z</time>
      </trkpt>
      <trkpt lat="42.60172" lon="1.86627">
        <ele>2024.67</ele>
        <time>2025-02-16T08:14:48Z</time>
      </trkpt>
      <trkpt lat="42.60171" lon="1.86612">
        <ele>2025.64</ele>
        <time>2025-02-16T08:15:08Z</time>
      </trkpt>
      <trkpt lat="42.60168" lon="1.866">
        <ele>2027.08</ele>
        <time>2025-02-16T08:15:29Z</time>
      </trkpt>
      <trkpt lat="42.60166" lon="1.86589">
        <ele>2028.04</ele>
        <time>2025-02-16T08:15:49Z</time>
      </trkpt>
      <trkpt lat="42.60163" lon="1.8658">
        <ele>2029</ele>
        <time>2025-02-16T08:16:08Z</time>
      </trkpt>
      <trkpt lat="42.60163" lon="1.86586">
        <ele>2029.96</ele>
        <time>2025-02-16T08:16:26Z</time>
      </trkpt>
      <trkpt lat="42.60162" lon="1.86593">
        <ele>2031.4</ele>
        <time>2025-02-16T08:16:51Z</time>
      </trkpt>
      <trkpt lat="42.60158" lon="1.86602">
        <ele>2033.33</ele>
        <time>2025-02-16T08:17:14Z</time>
      </trkpt>
      <trkpt lat="42.60156" lon="1.8661">
        <ele>2034.77</ele>
        <time>2025-02-16T08:17:36Z</time>
      </trkpt>
      <trkpt lat="42.60156" lon="1.86619">
        <ele>2036.21</ele>
        <time>2025-02-16T08:18:02Z</time>
      </trkpt>
      <trkpt lat="42.60153" lon="1.8663">
        <ele>2037.65</ele>
        <time>2025-02-16T08:18:24Z</time>
      </trkpt>
      <trkpt lat="42.60151" lon="1.86639">
        <ele>2039.57</ele>
        <time>2025-02-16T08:18:46Z</time>
      </trkpt>
      <trkpt lat="42.6015" lon="1.86647">
        <ele>2041.02</ele>
        <time>2025-02-16T08:19:09Z</time>
      </trkpt>
      <trkpt lat="42.60148" lon="1.86656">
        <ele>2042.94</ele>
        <time>2025-02-16T08:19:30Z</time>
      </trkpt>
      <trkpt lat="42.60147" lon="1.86665">
        <ele>2044.38</ele>
        <time>2025-02-16T08:19:54Z</time>
      </trkpt>
      <trkpt lat="42.60142" lon="1.86662">
        <ele>2045.82</ele>
        <time>2025-02-16T08:20:16Z</time>
      </trkpt>
      <trkpt lat="42.6014" lon="1.8665">
        <ele>2047.75</ele>
        <time>2025-02-16T08:20:38Z</time>
      </trkpt>
      <trkpt lat="42.60136" lon="1.86641">
        <ele>2049.19</ele>
        <time>2025-02-16T08:20:58Z</time>
      </trkpt>
      <trkpt lat="42.60135" lon="1.86631">
        <ele>2050.15</ele>
        <time>2025-02-16T08:21:18Z</time>
      </trkpt>
      <trkpt lat="42.60135" lon="1.86626">
        <ele>2051.59</ele>
        <time>2025-02-16T08:21:39Z</time>
      </trkpt>
      <trkpt lat="42.60132" lon="1.8662">
        <ele>2052.55</ele>
        <time>2025-02-16T08:22:04Z</time>
      </trkpt>
      <trkpt lat="42.60129" lon="1.86627">
        <ele>2054.47</ele>
        <time>2025-02-16T08:22:26Z</time>
      </trkpt>
      <trkpt lat="42.60126" lon="1.86637">
        <ele>2056.4</ele>
        <time>2025-02-16T08:22:49Z</time>
      </trkpt>
      <trkpt lat="42.60123" lon="1.86644">
        <ele>2057.84</ele>
        <time>2025-02-16T08:23:10Z</time>
      </trkpt>
      <trkpt lat="42.60117" lon="1.86634">
        <ele>2059.76</ele>
        <time>2025-02-16T08:23:31Z</time>
      </trkpt>
      <trkpt lat="42.60115" lon="1.86626">
        <ele>2061.2</ele>
        <time>2025-02-16T08:23:48Z</time>
      </trkpt>
      <trkpt lat="42.60113" lon="1.86617">
        <ele>2062.65</ele>
        <time>2025-02-16T08:24:06Z</time>
      </trkpt>
      <trkpt lat="42.6011" lon="1.86609">
        <ele>2064.09</ele>
        <time>2025-02-16T08:24:25Z</time>
      </trkpt>
      <trkpt lat="42.60106" lon="1.86605">
        <ele>2064.57</ele>
        <time>2025-02-16T08:24:46Z</time>
      </trkpt>
      <trkpt lat="42.60104" lon="1.86604">
        <ele>2065.53</ele>
        <time>2025-02-16T08:25:13Z</time>
      </trkpt>
      <trkpt lat="42.60102" lon="1.86616">
        <ele>2067.93</ele>
        <time>2025-02-16T08:25:34Z</time>
      </trkpt>
      <trkpt lat="42.60102" lon="1.86631">
        <ele>2070.82</ele>
        <time>2025-02-16T08:25:57Z</time>
      </trkpt>
      <trkpt lat="42.60099" lon="1.86642">
        <ele>2072.74</ele>
        <time>2025-02-16T08:26:18Z</time>
      </trkpt>
      <trkpt lat="42.60101" lon="1.86657">
        <ele>2074.18</ele>
        <time>2025-02-16T08:26:40Z</time>
      </trkpt>
      <trkpt lat="42.60097" lon="1.86668">
        <ele>2076.59</ele>
        <time>2025-02-16T08:26:58Z</time>
      </trkpt>
      <trkpt lat="42.60094" lon="1.86679">
        <ele>2078.99</ele>
        <time>2025-02-16T08:27:21Z</time>
      </trkpt>
      <trkpt lat="42.60092" lon="1.86681">
        <ele>2080.43</ele>
        <time>2025-02-16T08:27:39Z</time>
      </trkpt>
      <trkpt lat="42.60087" lon="1.86674">
        <ele>2082.35</ele>
        <time>2025-02-16T08:27:59Z</time>
      </trkpt>
      <trkpt lat="42.60083" lon="1.86668">
        <ele>2083.79</ele>
        <time>2025-02-16T08:28:19Z</time>
      </trkpt>
      <trkpt lat="42.6008" lon="1.86659">
        <ele>2086.68</ele>
        <time>2025-02-16T08:28:41Z</time>
      </trkpt>
      <trkpt lat="42.60075" lon="1.8665">
        <ele>2088.6</ele>
        <time>2025-02-16T08:29:02Z</time>
      </trkpt>
      <trkpt lat="42.60071" lon="1.86646">
        <ele>2090.04</ele>
        <time>2025-02-16T08:29:24Z</time>
      </trkpt>
      <trkpt lat="42.60069" lon="1.86646">
        <ele>2090.04</ele>
        <time>2025-02-16T08:29:51Z</time>
      </trkpt>
      <trkpt lat="42.60069" lon="1.86646">
        <ele>2089.56</ele>
        <time>2025-02-16T08:30:05Z</time>
      </trkpt>
      <trkpt lat="42.60071" lon="1.86644">
        <ele>2089.56</ele>
        <time>2025-02-16T08:30:39Z</time>
      </trkpt>
      <trkpt lat="42.60071" lon="1.86644">
        <ele>2090.04</ele>
        <time>2025-02-16T08:31:10Z</time>
      </trkpt>
      <trkpt lat="42.60071" lon="1.86647">
        <ele>2090.04</ele>
        <time>2025-02-16T08:31:26Z</time>
      </trkpt>
      <trkpt lat="42.60067" lon="1.86647">
        <ele>2090.52</ele>
        <time>2025-02-16T08:31:55Z</time>
      </trkpt>
      <trkpt lat="42.60067" lon="1.86651">
        <ele>2090.52</ele>
        <time>2025-02-16T08:32:26Z</time>
      </trkpt>
      <trkpt lat="42.60071" lon="1.86647">
        <ele>2090.52</ele>
        <time>2025-02-16T08:32:38Z</time>
      </trkpt>
      <trkpt lat="42.6007" lon="1.86645">
        <ele>2091</ele>
        <time>2025-02-16T08:32:57Z</time>
      </trkpt>
      <trkpt lat="42.6007" lon="1.86643">
        <ele>2091</ele>
        <time>2025-02-16T08:33:18Z</time>
      </trkpt>
      <trkpt lat="42.60069" lon="1.8664">
        <ele>2091.49</ele>
        <time>2025-02-16T08:33:49Z</time>
      </trkpt>
      <trkpt lat="42.60069" lon="1.86646">
        <ele>2093.89</ele>
        <time>2025-02-16T08:34:04Z</time>
      </trkpt>
      <trkpt lat="42.6007" lon="1.86654">
        <ele>2094.85</ele>
        <time>2025-02-16T08:34:20Z</time>
      </trkpt>
      <trkpt lat="42.6007" lon="1.86664">
        <ele>2096.29</ele>
        <time>2025-02-16T08:34:40Z</time>
      </trkpt>
      <trkpt lat="42.60068" lon="1.86672">
        <ele>2097.73</ele>
        <time>2025-02-16T08:34:55Z</time>
      </trkpt>
      <trkpt lat="42.60061" lon="1.8667">
        <ele>2099.66</ele>
        <time>2025-02-16T08:35:13Z</time>
      </trkpt>
      <trkpt lat="42.60055" lon="1.8666">
        <ele>2101.58</ele>
        <time>2025-02-16T08:35:32Z</time>
      </trkpt>
      <trkpt lat="42.6005" lon="1.86654">
        <ele>2103.5</ele>
        <time>2025-02-16T08:35:49Z</time>
      </trkpt>
      <trkpt lat="42.60045" lon="1.86648">
        <ele>2104.46</ele>
        <time>2025-02-16T08:36:07Z</time>
      </trkpt>
      <trkpt lat="42.60044" lon="1.8666">
        <ele>2106.39</ele>
        <time>2025-02-16T08:36:24Z</time>
      </trkpt>
      <trkpt lat="42.60045" lon="1.86665">
        <ele>2107.83</ele>
        <time>2025-02-16T08:36:38Z</time>
      </trkpt>
      <trkpt lat="42.60045" lon="1.86673">
        <ele>2109.27</ele>
        <time>2025-02-16T08:36:55Z</time>
      </trkpt>
      <trkpt lat="42.60041" lon="1.86672">
        <ele>2110.71</ele>
        <time>2025-02-16T08:37:07Z</time>
      </trkpt>
      <trkpt lat="42.60034" lon="1.86664">
        <ele>2111.67</ele>
        <time>2025-02-16T08:37:23Z</time>
      </trkpt>
      <trkpt lat="42.6003" lon="1.86662">
        <ele>2113.6</ele>
        <time>2025-02-16T08:37:40Z</time>
      </trkpt>
      <trkpt lat="42.6003" lon="1.86667">
        <ele>2115.04</ele>
        <time>2025-02-16T08:37:56Z</time>
      </trkpt>
      <trkpt lat="42.60027" lon="1.86676">
        <ele>2117.44</ele>
        <time>2025-02-16T08:38:12Z</time>
      </trkpt>
      <trkpt lat="42.60025" lon="1.86682">
        <ele>2118.4</ele>
        <time>2025-02-16T08:38:26Z</time>
      </trkpt>
      <trkpt lat="42.60023" lon="1.86687">
        <ele>2119.84</ele>
        <time>2025-02-16T08:38:40Z</time>
      </trkpt>
      <trkpt lat="42.60021" lon="1.86691">
        <ele>2120.81</ele>
        <time>2025-02-16T08:38:52Z</time>
      </trkpt>
      <trkpt lat="42.60017" lon="1.8669">
        <ele>2122.25</ele>
        <time>2025-02-16T08:39:10Z</time>
      </trkpt>
      <trkpt lat="42.60008" lon="1.86687">
        <ele>2124.65</ele>
        <time>2025-02-16T08:39:27Z</time>
      </trkpt>
      <trkpt lat="42.60006" lon="1.86688">
        <ele>2125.61</ele>
        <time>2025-02-16T08:39:45Z</time>
      </trkpt>
      <trkpt lat="42.59996" lon="1.86681">
        <ele>2127.53</ele>
        <time>2025-02-16T08:40:04Z</time>
      </trkpt>
      <trkpt lat="42.59986" lon="1.86674">
        <ele>2129.46</ele>
        <time>2025-02-16T08:40:24Z</time>
      </trkpt>
      <trkpt lat="42.59976" lon="1.8667">
        <ele>2130.9</ele>
        <time>2025-02-16T08:40:42Z</time>
      </trkpt>
      <trkpt lat="42.59964" lon="1.86669">
        <ele>2132.82</ele>
        <time>2025-02-16T08:40:59Z</time>
      </trkpt>
      <trkpt lat="42.59952" lon="1.8666">
        <ele>2134.74</ele>
        <time>2025-02-16T08:41:18Z</time>
      </trkpt>
      <trkpt lat="42.59945" lon="1.86647">
        <ele>2136.19</ele>
        <time>2025-02-16T08:41:34Z</time>
      </trkpt>
      <trkpt lat="42.59941" lon="1.86637">
        <ele>2138.11</ele>
        <time>2025-02-16T08:41:51Z</time>
      </trkpt>
      <trkpt lat="42.59932" lon="1.86637">
        <ele>2139.55</ele>
        <time>2025-02-16T08:42:14Z</time>
      </trkpt>
      <trkpt lat="42.59927" lon="1.86637">
        <ele>2140.03</ele>
        <time>2025-02-16T08:42:21Z</time>
      </trkpt>
      <trkpt lat="42.59918" lon="1.86634">
        <ele>2140.99</ele>
        <time>2025-02-16T08:42:36Z</time>
      </trkpt>
      <trkpt lat="42.59911" lon="1.8663">
        <ele>2143.4</ele>
        <time>2025-02-16T08:42:53Z</time>
      </trkpt>
      <trkpt lat="42.59903" lon="1.8663">
        <ele>2145.8</ele>
        <time>2025-02-16T08:43:11Z</time>
      </trkpt>
      <trkpt lat="42.59897" lon="1.86629">
        <ele>2146.76</ele>
        <time>2025-02-16T08:43:28Z</time>
      </trkpt>
      <trkpt lat="42.59889" lon="1.86623">
        <ele>2148.68</ele>
        <time>2025-02-16T08:43:48Z</time>
      </trkpt>
      <trkpt lat="42.59882" lon="1.86621">
        <ele>2150.61</ele>
        <time>2025-02-16T08:44:02Z</time>
      </trkpt>
      <trkpt lat="42.59874" lon="1.86613">
        <ele>2152.05</ele>
        <time>2025-02-16T08:44:19Z</time>
      </trkpt>
      <trkpt lat="42.59869" lon="1.86607">
        <ele>2153.49</ele>
        <time>2025-02-16T08:44:36Z</time>
      </trkpt>
      <trkpt lat="42.59861" lon="1.86602">
        <ele>2155.41</ele>
        <time>2025-02-16T08:44:53Z</time>
      </trkpt>
      <trkpt lat="42.59855" lon="1.86595">
        <ele>2155.89</ele>
        <time>2025-02-16T08:45:08Z</time>
      </trkpt>
      <trkpt lat="42.59848" lon="1.86585">
        <ele>2155.89</ele>
        <time>2025-02-16T08:45:25Z</time>
      </trkpt>
      <trkpt lat="42.59841" lon="1.86579">
        <ele>2154.45</ele>
        <time>2025-02-16T08:45:43Z</time>
      </trkpt>
      <trkpt lat="42.59838" lon="1.86575">
        <ele>2153.97</ele>
        <time>2025-02-16T08:46:08Z</time>
      </trkpt>
      <trkpt lat="42.5983" lon="1.86566">
        <ele>2153.97</ele>
        <time>2025-02-16T08:46:39Z</time>
      </trkpt>
      <trkpt lat="42.5982" lon="1.86557">
        <ele>2153.49</ele>
        <time>2025-02-16T08:46:55Z</time>
      </trkpt>
      <trkpt lat="42.59812" lon="1.86545">
        <ele>2154.93</ele>
        <time>2025-02-16T08:47:13Z</time>
      </trkpt>
      <trkpt lat="42.59805" lon="1.86531">
        <ele>2154.93</ele>
        <time>2025-02-16T08:47:32Z</time>
      </trkpt>
      <trkpt lat="42.59796" lon="1.86519">
        <ele>2155.89</ele>
        <time>2025-02-16T08:47:50Z</time>
      </trkpt>
      <trkpt lat="42.59789" lon="1.86513">
        <ele>2156.37</ele>
        <time>2025-02-16T08:48:05Z</time>
      </trkpt>
      <trkpt lat="42.59782" lon="1.86501">
        <ele>2156.86</ele>
        <time>2025-02-16T08:48:23Z</time>
      </trkpt>
      <trkpt lat="42.59773" lon="1.86492">
        <ele>2158.3</ele>
        <time>2025-02-16T08:48:45Z</time>
      </trkpt>
      <trkpt lat="42.59764" lon="1.86484">
        <ele>2159.74</ele>
        <time>2025-02-16T08:49:04Z</time>
      </trkpt>
      <trkpt lat="42.59759" lon="1.86482">
        <ele>2162.14</ele>
        <time>2025-02-16T08:49:20Z</time>
      </trkpt>
      <trkpt lat="42.59749" lon="1.86478">
        <ele>2164.06</ele>
        <time>2025-02-16T08:49:40Z</time>
      </trkpt>
      <trkpt lat="42.59742" lon="1.86477">
        <ele>2165.99</ele>
        <time>2025-02-16T08:49:57Z</time>
      </trkpt>
      <trkpt lat="42.59736" lon="1.86474">
        <ele>2167.43</ele>
        <time>2025-02-16T08:50:13Z</time>
      </trkpt>
      <trkpt lat="42.59731" lon="1.86463">
        <ele>2167.91</ele>
        <time>2025-02-16T08:50:32Z</time>
      </trkpt>
      <trkpt lat="42.5973" lon="1.86457">
        <ele>2167.91</ele>
        <time>2025-02-16T08:50:48Z</time>
      </trkpt>
      <trkpt lat="42.59724" lon="1.86445">
        <ele>2168.39</ele>
        <time>2025-02-16T08:51:07Z</time>
      </trkpt>
      <trkpt lat="42.59715" lon="1.86432">
        <ele>2168.39</ele>
        <time>2025-02-16T08:51:25Z</time>
      </trkpt>
      <trkpt lat="42.59716" lon="1.86432">
        <ele>2168.39</ele>
        <time>2025-02-16T08:51:42Z</time>
      </trkpt>
      <trkpt lat="42.59709" lon="1.86431">
        <ele>2168.87</ele>
        <time>2025-02-16T08:52:02Z</time>
      </trkpt>
      <trkpt lat="42.59698" lon="1.86426">
        <ele>2170.79</ele>
        <time>2025-02-16T08:52:21Z</time>
      </trkpt>
      <trkpt lat="42.59688" lon="1.86423">
        <ele>2172.72</ele>
        <time>2025-02-16T08:52:42Z</time>
      </trkpt>
      <trkpt lat="42.59681" lon="1.86424">
        <ele>2174.64</ele>
        <time>2025-02-16T08:53:03Z</time>
      </trkpt>
      <trkpt lat="42.59673" lon="1.86426">
        <ele>2177.04</ele>
        <time>2025-02-16T08:53:18Z</time>
      </trkpt>
      <trkpt lat="42.59666" lon="1.86429">
        <ele>2179.93</ele>
        <time>2025-02-16T08:53:37Z</time>
      </trkpt>
      <trkpt lat="42.5966" lon="1.86426">
        <ele>2181.85</ele>
        <time>2025-02-16T08:53:55Z</time>
      </trkpt>
      <trkpt lat="42.59654" lon="1.86422">
        <ele>2183.29</ele>
        <time>2025-02-16T08:54:11Z</time>
      </trkpt>
      <trkpt lat="42.59649" lon="1.8642">
        <ele>2185.21</ele>
        <time>2025-02-16T08:54:27Z</time>
      </trkpt>
      <trkpt lat="42.59644" lon="1.86419">
        <ele>2187.14</ele>
        <time>2025-02-16T08:54:43Z</time>
      </trkpt>
      <trkpt lat="42.5964" lon="1.86422">
        <ele>2189.06</ele>
        <time>2025-02-16T08:54:59Z</time>
      </trkpt>
      <trkpt lat="42.59634" lon="1.86423">
        <ele>2191.46</ele>
        <time>2025-02-16T08:55:16Z</time>
      </trkpt>
      <trkpt lat="42.59628" lon="1.86423">
        <ele>2193.87</ele>
        <time>2025-02-16T08:55:35Z</time>
      </trkpt>
      <trkpt lat="42.59624" lon="1.86424">
        <ele>2195.31</ele>
        <time>2025-02-16T08:55:49Z</time>
      </trkpt>
      <trkpt lat="42.59621" lon="1.86423">
        <ele>2197.23</ele>
        <time>2025-02-16T08:56:02Z</time>
      </trkpt>
      <trkpt lat="42.59617" lon="1.86424">
        <ele>2199.15</ele>
        <time>2025-02-16T08:56:18Z</time>
      </trkpt>
      <trkpt lat="42.59613" lon="1.86422">
        <ele>2201.08</ele>
        <time>2025-02-16T08:56:33Z</time>
      </trkpt>
      <trkpt lat="42.59607" lon="1.86414">
        <ele>2203</ele>
        <time>2025-02-16T08:56:50Z</time>
      </trkpt>
      <trkpt lat="42.59604" lon="1.86405">
        <ele>2204.44</ele>
        <time>2025-02-16T08:57:06Z</time>
      </trkpt>
      <trkpt lat="42.596" lon="1.86396">
        <ele>2206.84</ele>
        <time>2025-02-16T08:57:25Z</time>
      </trkpt>
      <trkpt lat="42.59596" lon="1.86391">
        <ele>2208.29</ele>
        <time>2025-02-16T08:57:39Z</time>
      </trkpt>
      <trkpt lat="42.59596" lon="1.86393">
        <ele>2208.29</ele>
        <time>2025-02-16T08:58:06Z</time>
      </trkpt>
      <trkpt lat="42.59595" lon="1.86395">
        <ele>2208.29</ele>
        <time>2025-02-16T08:58:43Z</time>
      </trkpt>
      <trkpt lat="42.59598" lon="1.86393">
        <ele>2208.77</ele>
        <time>2025-02-16T08:59:16Z</time>
      </trkpt>
      <trkpt lat="42.59596" lon="1.86391">
        <ele>2208.77</ele>
        <time>2025-02-16T08:59:47Z</time>
      </trkpt>
      <trkpt lat="42.59597" lon="1.86392">
        <ele>2209.25</ele>
        <time>2025-02-16T09:00:19Z</time>
      </trkpt>
      <trkpt lat="42.59595" lon="1.8639">
        <ele>2209.25</ele>
        <time>2025-02-16T09:00:41Z</time>
      </trkpt>
      <trkpt lat="42.59595" lon="1.8639">
        <ele>2209.25</ele>
        <time>2025-02-16T09:01:12Z</time>
      </trkpt>
      <trkpt lat="42.59596" lon="1.86389">
        <ele>2209.25</ele>
        <time>2025-02-16T09:01:42Z</time>
      </trkpt>
      <trkpt lat="42.59599" lon="1.86388">
        <ele>2209.25</ele>
        <time>2025-02-16T09:02:09Z</time>
      </trkpt>
      <trkpt lat="42.59597" lon="1.86389">
        <ele>2209.25</ele>
        <time>2025-02-16T09:02:40Z</time>
      </trkpt>
      <trkpt lat="42.59598" lon="1.8639">
        <ele>2209.73</ele>
        <time>2025-02-16T09:03:10Z</time>
      </trkpt>
      <trkpt lat="42.59594" lon="1.86388">
        <ele>2209.73</ele>
        <time>2025-02-16T09:03:39Z</time>
      </trkpt>
      <trkpt lat="42.59587" lon="1.86384">
        <ele>2208.29</ele>
        <time>2025-02-16T09:03:56Z</time>
      </trkpt>
      <trkpt lat="42.59586" lon="1.86382">
        <ele>2208.29</ele>
        <time>2025-02-16T09:04:13Z</time>
      </trkpt>
      <trkpt lat="42.59574" lon="1.86367">
        <ele>2206.36</ele>
        <time>2025-02-16T09:04:29Z</time>
      </trkpt>
      <trkpt lat="42.59565" lon="1.86352">
        <ele>2204.92</ele>
        <time>2025-02-16T09:04:45Z</time>
      </trkpt>
      <trkpt lat="42.59562" lon="1.86336">
        <ele>2202.52</ele>
        <time>2025-02-16T09:04:59Z</time>
      </trkpt>
      <trkpt lat="42.59557" lon="1.86325">
        <ele>2202.52</ele>
        <time>2025-02-16T09:05:13Z</time>
      </trkpt>
      <trkpt lat="42.5955" lon="1.86309">
        <ele>2202.52</ele>
        <time>2025-02-16T09:05:28Z</time>
      </trkpt>
      <trkpt lat="42.59547" lon="1.86296">
        <ele>2203.48</ele>
        <time>2025-02-16T09:05:42Z</time>
      </trkpt>
      <trkpt lat="42.59545" lon="1.86281">
        <ele>2203.48</ele>
        <time>2025-02-16T09:05:56Z</time>
      </trkpt>
      <trkpt lat="42.59542" lon="1.86273">
        <ele>2203.96</ele>
        <time>2025-02-16T09:06:10Z</time>
      </trkpt>
      <trkpt lat="42.59533" lon="1.86264">
        <ele>2204.92</ele>
        <time>2025-02-16T09:06:29Z</time>
      </trkpt>
      <trkpt lat="42.59525" lon="1.8625">
        <ele>2206.36</ele>
        <time>2025-02-16T09:06:49Z</time>
      </trkpt>
      <trkpt lat="42.59517" lon="1.86239">
        <ele>2207.81</ele>
        <time>2025-02-16T09:07:06Z</time>
      </trkpt>
      <trkpt lat="42.59511" lon="1.86234">
        <ele>2207.81</ele>
        <time>2025-02-16T09:07:22Z</time>
      </trkpt>
      <trkpt lat="42.59502" lon="1.86223">
        <ele>2208.77</ele>
        <time>2025-02-16T09:07:38Z</time>
      </trkpt>
      <trkpt lat="42.59493" lon="1.86211">
        <ele>2210.21</ele>
        <time>2025-02-16T09:07:56Z</time>
      </trkpt>
      <trkpt lat="42.59486" lon="1.86202">
        <ele>2212.13</ele>
        <time>2025-02-16T09:08:14Z</time>
      </trkpt>
      <trkpt lat="42.5948" lon="1.86195">
        <ele>2214.05</ele>
        <time>2025-02-16T09:08:33Z</time>
      </trkpt>
      <trkpt lat="42.59474" lon="1.8619">
        <ele>2215.98</ele>
        <time>2025-02-16T09:08:50Z</time>
      </trkpt>
      <trkpt lat="42.59466" lon="1.86184">
        <ele>2217.9</ele>
        <time>2025-02-16T09:09:09Z</time>
      </trkpt>
      <trkpt lat="42.5946" lon="1.8618">
        <ele>2219.34</ele>
        <time>2025-02-16T09:09:24Z</time>
      </trkpt>
      <trkpt lat="42.59456" lon="1.86176">
        <ele>2222.22</ele>
        <time>2025-02-16T09:09:40Z</time>
      </trkpt>
      <trkpt lat="42.59451" lon="1.8617">
        <ele>2223.67</ele>
        <time>2025-02-16T09:09:58Z</time>
      </trkpt>
      <trkpt lat="42.59444" lon="1.86164">
        <ele>2225.11</ele>
        <time>2025-02-16T09:10:15Z</time>
      </trkpt>
      <trkpt lat="42.59438" lon="1.86161">
        <ele>2225.59</ele>
        <time>2025-02-16T09:10:29Z</time>
      </trkpt>
      <trkpt lat="42.59436" lon="1.8616">
        <ele>2226.55</ele>
        <time>2025-02-16T09:10:36Z</time>
      </trkpt>
      <trkpt lat="42.59427" lon="1.86152">
        <ele>2227.51</ele>
        <time>2025-02-16T09:10:51Z</time>
      </trkpt>
      <trkpt lat="42.59421" lon="1.86146">
        <ele>2228.95</ele>
        <time>2025-02-16T09:11:08Z</time>
      </trkpt>
      <trkpt lat="42.59418" lon="1.86141">
        <ele>2230.88</ele>
        <time>2025-02-16T09:11:21Z</time>
      </trkpt>
      <trkpt lat="42.59411" lon="1.86136">
        <ele>2232.8</ele>
        <time>2025-02-16T09:11:41Z</time>
      </trkpt>
      <trkpt lat="42.59399" lon="1.86133">
        <ele>2234.24</ele>
        <time>2025-02-16T09:11:59Z</time>
      </trkpt>
      <trkpt lat="42.59391" lon="1.86127">
        <ele>2235.68</ele>
        <time>2025-02-16T09:12:18Z</time>
      </trkpt>
      <trkpt lat="42.59383" lon="1.86125">
        <ele>2238.09</ele>
        <time>2025-02-16T09:12:34Z</time>
      </trkpt>
      <trkpt lat="42.59375" lon="1.86121">
        <ele>2239.53</ele>
        <time>2025-02-16T09:12:51Z</time>
      </trkpt>
      <trkpt lat="42.59363" lon="1.86115">
        <ele>2240.97</ele>
        <time>2025-02-16T09:13:08Z</time>
      </trkpt>
      <trkpt lat="42.59351" lon="1.86106">
        <ele>2241.45</ele>
        <time>2025-02-16T09:13:25Z</time>
      </trkpt>
      <trkpt lat="42.59338" lon="1.86101">
        <ele>2241.45</ele>
        <time>2025-02-16T09:13:40Z</time>
      </trkpt>
      <trkpt lat="42.59327" lon="1.86098">
        <ele>2241.45</ele>
        <time>2025-02-16T09:13:54Z</time>
      </trkpt>
      <trkpt lat="42.59316" lon="1.86094">
        <ele>2241.93</ele>
        <time>2025-02-16T09:14:09Z</time>
      </trkpt>
      <trkpt lat="42.59302" lon="1.86088">
        <ele>2243.37</ele>
        <time>2025-02-16T09:14:25Z</time>
      </trkpt>
      <trkpt lat="42.59294" lon="1.86082">
        <ele>2244.82</ele>
        <time>2025-02-16T09:14:43Z</time>
      </trkpt>
      <trkpt lat="42.59288" lon="1.86077">
        <ele>2247.22</ele>
        <time>2025-02-16T09:15:01Z</time>
      </trkpt>
      <trkpt lat="42.59281" lon="1.86075">
        <ele>2249.62</ele>
        <time>2025-02-16T09:15:22Z</time>
      </trkpt>
      <trkpt lat="42.59272" lon="1.86066">
        <ele>2251.54</ele>
        <time>2025-02-16T09:15:44Z</time>
      </trkpt>
      <trkpt lat="42.5926" lon="1.86062">
        <ele>2252.03</ele>
        <time>2025-02-16T09:16:00Z</time>
      </trkpt>
      <trkpt lat="42.59248" lon="1.86059">
        <ele>2252.51</ele>
        <time>2025-02-16T09:16:16Z</time>
      </trkpt>
      <trkpt lat="42.59234" lon="1.86056">
        <ele>2252.99</ele>
        <time>2025-02-16T09:16:34Z</time>
      </trkpt>
      <trkpt lat="42.59221" lon="1.86054">
        <ele>2254.43</ele>
        <time>2025-02-16T09:16:53Z</time>
      </trkpt>
      <trkpt lat="42.59209" lon="1.86048">
        <ele>2254.43</ele>
        <time>2025-02-16T09:17:09Z</time>
      </trkpt>
      <trkpt lat="42.59198" lon="1.86042">
        <ele>2254.91</ele>
        <time>2025-02-16T09:17:23Z</time>
      </trkpt>
      <trkpt lat="42.59186" lon="1.86035">
        <ele>2256.35</ele>
        <time>2025-02-16T09:17:40Z</time>
      </trkpt>
      <trkpt lat="42.59175" lon="1.86032">
        <ele>2256.83</ele>
        <time>2025-02-16T09:17:56Z</time>
      </trkpt>
      <trkpt lat="42.59164" lon="1.86026">
        <ele>2257.79</ele>
        <time>2025-02-16T09:18:13Z</time>
      </trkpt>
      <trkpt lat="42.59152" lon="1.86022">
        <ele>2259.24</ele>
        <time>2025-02-16T09:18:31Z</time>
      </trkpt>
      <trkpt lat="42.59142" lon="1.86027">
        <ele>2260.2</ele>
        <time>2025-02-16T09:18:48Z</time>
      </trkpt>
      <trkpt lat="42.59132" lon="1.86029">
        <ele>2261.64</ele>
        <time>2025-02-16T09:19:06Z</time>
      </trkpt>
      <trkpt lat="42.59122" lon="1.86029">
        <ele>2262.6</ele>
        <time>2025-02-16T09:19:22Z</time>
      </trkpt>
      <trkpt lat="42.59122" lon="1.86026">
        <ele>2263.08</ele>
        <time>2025-02-16T09:19:38Z</time>
      </trkpt>
      <trkpt lat="42.59123" lon="1.86026">
        <ele>2263.08</ele>
        <time>2025-02-16T09:19:52Z</time>
      </trkpt>
      <trkpt lat="42.59116" lon="1.86026">
        <ele>2264.04</ele>
        <time>2025-02-16T09:20:09Z</time>
      </trkpt>
      <trkpt lat="42.59116" lon="1.86027">
        <ele>2264.52</ele>
        <time>2025-02-16T09:20:32Z</time>
      </trkpt>
      <trkpt lat="42.59115" lon="1.86027">
        <ele>2264.52</ele>
        <time>2025-02-16T09:21:02Z</time>
      </trkpt>
      <trkpt lat="42.59114" lon="1.86024">
        <ele>2264.52</ele>
        <time>2025-02-16T09:21:33Z</time>
      </trkpt>
      <trkpt lat="42.59116" lon="1.86025">
        <ele>2264.52</ele>
        <time>2025-02-16T09:21:54Z</time>
      </trkpt>
      <trkpt lat="42.59115" lon="1.86024">
        <ele>2265</ele>
        <time>2025-02-16T09:22:21Z</time>
      </trkpt>
      <trkpt lat="42.59114" lon="1.86025">
        <ele>2265</ele>
        <time>2025-02-16T09:22:51Z</time>
      </trkpt>
      <trkpt lat="42.59112" lon="1.86024">
        <ele>2265.48</ele>
        <time>2025-02-16T09:23:21Z</time>
      </trkpt>
      <trkpt lat="42.59112" lon="1.86027">
        <ele>2265.48</ele>
        <time>2025-02-16T09:23:49Z</time>
      </trkpt>
      <trkpt lat="42.59113" lon="1.86025">
        <ele>2265.48</ele>
        <time>2025-02-16T09:24:25Z</time>
      </trkpt>
      <trkpt lat="42.59112" lon="1.86026">
        <ele>2265.96</ele>
        <time>2025-02-16T09:24:53Z</time>
      </trkpt>
      <trkpt lat="42.59111" lon="1.86024">
        <ele>2265.96</ele>
        <time>2025-02-16T09:25:13Z</time>
      </trkpt>
      <trkpt lat="42.59111" lon="1.86023">
        <ele>2265.96</ele>
        <time>2025-02-16T09:25:40Z</time>
      </trkpt>
      <trkpt lat="42.5911" lon="1.86024">
        <ele>2265.96</ele>
        <time>2025-02-16T09:26:06Z</time>
      </trkpt>
      <trkpt lat="42.59103" lon="1.86021">
        <ele>2266.45</ele>
        <time>2025-02-16T09:26:26Z</time>
      </trkpt>
      <trkpt lat="42.59096" lon="1.8602">
        <ele>2268.37</ele>
        <time>2025-02-16T09:26:41Z</time>
      </trkpt>
      <trkpt lat="42.59088" lon="1.86018">
        <ele>2270.29</ele>
        <time>2025-02-16T09:26:55Z</time>
      </trkpt>
      <trkpt lat="42.59081" lon="1.86019">
        <ele>2272.21</ele>
        <time>2025-02-16T09:27:11Z</time>
      </trkpt>
      <trkpt lat="42.59076" lon="1.8602">
        <ele>2274.14</ele>
        <time>2025-02-16T09:27:25Z</time>
      </trkpt>
      <trkpt lat="42.5907" lon="1.86016">
        <ele>2276.54</ele>
        <time>2025-02-16T09:27:43Z</time>
      </trkpt>
      <trkpt lat="42.59065" lon="1.86014">
        <ele>2277.98</ele>
        <time>2025-02-16T09:27:59Z</time>
      </trkpt>
      <trkpt lat="42.59062" lon="1.86013">
        <ele>2280.38</ele>
        <time>2025-02-16T09:28:15Z</time>
      </trkpt>
      <trkpt lat="42.59057" lon="1.86014">
        <ele>2281.83</ele>
        <time>2025-02-16T09:28:31Z</time>
      </trkpt>
      <trkpt lat="42.59053" lon="1.86012">
        <ele>2283.27</ele>
        <time>2025-02-16T09:28:46Z</time>
      </trkpt>
      <trkpt lat="42.59047" lon="1.86011">
        <ele>2285.19</ele>
        <time>2025-02-16T09:29:02Z</time>
      </trkpt>
      <trkpt lat="42.59042" lon="1.86007">
        <ele>2287.11</ele>
        <time>2025-02-16T09:29:20Z</time>
      </trkpt>
      <trkpt lat="42.59039" lon="1.85999">
        <ele>2289.52</ele>
        <time>2025-02-16T09:29:41Z</time>
      </trkpt>
      <trkpt lat="42.59033" lon="1.85996">
        <ele>2291.44</ele>
        <time>2025-02-16T09:29:59Z</time>
      </trkpt>
      <trkpt lat="42.5903" lon="1.8599">
        <ele>2293.36</ele>
        <time>2025-02-16T09:30:15Z</time>
      </trkpt>
      <trkpt lat="42.59025" lon="1.85988">
        <ele>2295.77</ele>
        <time>2025-02-16T09:30:33Z</time>
      </trkpt>
      <trkpt lat="42.59019" lon="1.85987">
        <ele>2297.21</ele>
        <time>2025-02-16T09:30:48Z</time>
      </trkpt>
      <trkpt lat="42.59014" lon="1.85988">
        <ele>2299.13</ele>
        <time>2025-02-16T09:31:06Z</time>
      </trkpt>
      <trkpt lat="42.5901" lon="1.85989">
        <ele>2301.05</ele>
        <time>2025-02-16T09:31:22Z</time>
      </trkpt>
      <trkpt lat="42.59004" lon="1.85988">
        <ele>2302.98</ele>
        <time>2025-02-16T09:31:39Z</time>
      </trkpt>
      <trkpt lat="42.59001" lon="1.8599">
        <ele>2304.9</ele>
        <time>2025-02-16T09:31:57Z</time>
      </trkpt>
      <trkpt lat="42.58997" lon="1.85991">
        <ele>2306.34</ele>
        <time>2025-02-16T09:32:15Z</time>
      </trkpt>
      <trkpt lat="42.58988" lon="1.85991">
        <ele>2308.74</ele>
        <time>2025-02-16T09:32:33Z</time>
      </trkpt>
      <trkpt lat="42.58982" lon="1.8599">
        <ele>2310.19</ele>
        <time>2025-02-16T09:32:50Z</time>
      </trkpt>
      <trkpt lat="42.58974" lon="1.85989">
        <ele>2311.63</ele>
        <time>2025-02-16T09:33:04Z</time>
      </trkpt>
      <trkpt lat="42.58968" lon="1.85987">
        <ele>2313.07</ele>
        <time>2025-02-16T09:33:17Z</time>
      </trkpt>
      <trkpt lat="42.58964" lon="1.85979">
        <ele>2314.03</ele>
        <time>2025-02-16T09:33:32Z</time>
      </trkpt>
      <trkpt lat="42.58958" lon="1.85973">
        <ele>2315.95</ele>
        <time>2025-02-16T09:33:50Z</time>
      </trkpt>
      <trkpt lat="42.58956" lon="1.85967">
        <ele>2317.4</ele>
        <time>2025-02-16T09:34:07Z</time>
      </trkpt>
      <trkpt lat="42.58951" lon="1.85959">
        <ele>2319.32</ele>
        <time>2025-02-16T09:34:24Z</time>
      </trkpt>
      <trkpt lat="42.58947" lon="1.85955">
        <ele>2321.24</ele>
        <time>2025-02-16T09:34:41Z</time>
      </trkpt>
      <trkpt lat="42.58943" lon="1.85949">
        <ele>2323.16</ele>
        <time>2025-02-16T09:34:59Z</time>
      </trkpt>
      <trkpt lat="42.58941" lon="1.85942">
        <ele>2325.57</ele>
        <time>2025-02-16T09:35:17Z</time>
      </trkpt>
      <trkpt lat="42.58937" lon="1.85934">
        <ele>2327.49</ele>
        <time>2025-02-16T09:35:36Z</time>
      </trkpt>
      <trkpt lat="42.58931" lon="1.85933">
        <ele>2328.45</ele>
        <time>2025-02-16T09:35:52Z</time>
      </trkpt>
      <trkpt lat="42.58925" lon="1.85929">
        <ele>2330.37</ele>
        <time>2025-02-16T09:36:09Z</time>
      </trkpt>
      <trkpt lat="42.58917" lon="1.85923">
        <ele>2332.3</ele>
        <time>2025-02-16T09:36:27Z</time>
      </trkpt>
      <trkpt lat="42.58914" lon="1.85918">
        <ele>2333.74</ele>
        <time>2025-02-16T09:36:46Z</time>
      </trkpt>
      <trkpt lat="42.5891" lon="1.85909">
        <ele>2335.66</ele>
        <time>2025-02-16T09:37:04Z</time>
      </trkpt>
      <trkpt lat="42.58906" lon="1.85905">
        <ele>2337.58</ele>
        <time>2025-02-16T09:37:21Z</time>
      </trkpt>
      <trkpt lat="42.58903" lon="1.85899">
        <ele>2339.51</ele>
        <time>2025-02-16T09:37:43Z</time>
      </trkpt>
      <trkpt lat="42.58901" lon="1.85894">
        <ele>2341.43</ele>
        <time>2025-02-16T09:37:58Z</time>
      </trkpt>
      <trkpt lat="42.589" lon="1.85891">
        <ele>2342.39</ele>
        <time>2025-02-16T09:38:11Z</time>
      </trkpt>
      <trkpt lat="42.58899" lon="1.85887">
        <ele>2343.83</ele>
        <time>2025-02-16T09:38:25Z</time>
      </trkpt>
      <trkpt lat="42.58897" lon="1.85883">
        <ele>2345.75</ele>
        <time>2025-02-16T09:38:41Z</time>
      </trkpt>
      <trkpt lat="42.58894" lon="1.85879">
        <ele>2346.72</ele>
        <time>2025-02-16T09:38:57Z</time>
      </trkpt>
      <trkpt lat="42.58893" lon="1.85877">
        <ele>2348.64</ele>
        <time>2025-02-16T09:39:13Z</time>
      </trkpt>
      <trkpt lat="42.58891" lon="1.85873">
        <ele>2350.56</ele>
        <time>2025-02-16T09:39:30Z</time>
      </trkpt>
      <trkpt lat="42.58886" lon="1.85869">
        <ele>2352.48</ele>
        <time>2025-02-16T09:39:47Z</time>
      </trkpt>
      <trkpt lat="42.58878" lon="1.85867">
        <ele>2353.44</ele>
        <time>2025-02-16T09:40:06Z</time>
      </trkpt>
      <trkpt lat="42.58872" lon="1.85866">
        <ele>2354.89</ele>
        <time>2025-02-16T09:40:23Z</time>
      </trkpt>
      <trkpt lat="42.58871" lon="1.85865">
        <ele>2354.89</ele>
        <time>2025-02-16T09:40:56Z</time>
      </trkpt>
      <trkpt lat="42.58871" lon="1.85866">
        <ele>2354.89</ele>
        <time>2025-02-16T09:41:22Z</time>
      </trkpt>
      <trkpt lat="42.58871" lon="1.85866">
        <ele>2354.89</ele>
        <time>2025-02-16T09:41:48Z</time>
      </trkpt>
      <trkpt lat="42.58873" lon="1.85865">
        <ele>2354.89</ele>
        <time>2025-02-16T09:42:11Z</time>
      </trkpt>
      <trkpt lat="42.58872" lon="1.85867">
        <ele>2354.89</ele>
        <time>2025-02-16T09:42:44Z</time>
      </trkpt>
      <trkpt lat="42.58873" lon="1.85866">
        <ele>2355.37</ele>
        <time>2025-02-16T09:43:15Z</time>
      </trkpt>
      <trkpt lat="42.58872" lon="1.85868">
        <ele>2355.37</ele>
        <time>2025-02-16T09:43:45Z</time>
      </trkpt>
      <trkpt lat="42.58873" lon="1.85864">
        <ele>2355.37</ele>
        <time>2025-02-16T09:44:15Z</time>
      </trkpt>
      <trkpt lat="42.58875" lon="1.85864">
        <ele>2355.37</ele>
        <time>2025-02-16T09:44:40Z</time>
      </trkpt>
      <trkpt lat="42.58872" lon="1.85866">
        <ele>2355.37</ele>
        <time>2025-02-16T09:45:10Z</time>
      </trkpt>
      <trkpt lat="42.58871" lon="1.85865">
        <ele>2355.85</ele>
        <time>2025-02-16T09:45:32Z</time>
      </trkpt>
      <trkpt lat="42.58872" lon="1.85864">
        <ele>2355.85</ele>
        <time>2025-02-16T09:46:02Z</time>
      </trkpt>
      <trkpt lat="42.58873" lon="1.85862">
        <ele>2355.85</ele>
        <time>2025-02-16T09:46:32Z</time>
      </trkpt>
      <trkpt lat="42.58873" lon="1.85863">
        <ele>2355.85</ele>
        <time>2025-02-16T09:46:57Z</time>
      </trkpt>
      <trkpt lat="42.58872" lon="1.85863">
        <ele>2356.33</ele>
        <time>2025-02-16T09:47:25Z</time>
      </trkpt>
      <trkpt lat="42.58871" lon="1.85862">
        <ele>2356.33</ele>
        <time>2025-02-16T09:48:00Z</time>
      </trkpt>
      <trkpt lat="42.58871" lon="1.85862">
        <ele>2355.37</ele>
        <time>2025-02-16T09:48:34Z</time>
      </trkpt>
      <trkpt lat="42.58871" lon="1.85862">
        <ele>2355.85</ele>
        <time>2025-02-16T09:49:06Z</time>
      </trkpt>
      <trkpt lat="42.58871" lon="1.85862">
        <ele>2355.85</ele>
        <time>2025-02-16T09:49:40Z</time>
      </trkpt>
      <trkpt lat="42.58863" lon="1.85858">
        <ele>2355.85</ele>
        <time>2025-02-16T09:49:56Z</time>
      </trkpt>
      <trkpt lat="42.58862" lon="1.85859">
        <ele>2356.33</ele>
        <time>2025-02-16T09:50:15Z</time>
      </trkpt>
      <trkpt lat="42.58858" lon="1.85856">
        <ele>2356.33</ele>
        <time>2025-02-16T09:50:36Z</time>
      </trkpt>
      <trkpt lat="42.58856" lon="1.85855">
        <ele>2357.77</ele>
        <time>2025-02-16T09:50:39Z</time>
      </trkpt>
      <trkpt lat="42.58849" lon="1.85852">
        <ele>2359.21</ele>
        <time>2025-02-16T09:50:58Z</time>
      </trkpt>
      <trkpt lat="42.5884" lon="1.85852">
        <ele>2361.14</ele>
        <time>2025-02-16T09:51:16Z</time>
      </trkpt>
      <trkpt lat="42.58831" lon="1.85851">
        <ele>2363.06</ele>
        <time>2025-02-16T09:51:33Z</time>
      </trkpt>
      <trkpt lat="42.58823" lon="1.85851">
        <ele>2364.98</ele>
        <time>2025-02-16T09:51:49Z</time>
      </trkpt>
      <trkpt lat="42.58813" lon="1.8585">
        <ele>2366.9</ele>
        <time>2025-02-16T09:52:08Z</time>
      </trkpt>
      <trkpt lat="42.58805" lon="1.85848">
        <ele>2367.86</ele>
        <time>2025-02-16T09:52:24Z</time>
      </trkpt>
      <trkpt lat="42.58796" lon="1.85846">
        <ele>2369.31</ele>
        <time>2025-02-16T09:52:40Z</time>
      </trkpt>
      <trkpt lat="42.58791" lon="1.85843">
        <ele>2370.27</ele>
        <time>2025-02-16T09:52:57Z</time>
      </trkpt>
      <trkpt lat="42.58782" lon="1.85838">
        <ele>2372.19</ele>
        <time>2025-02-16T09:53:17Z</time>
      </trkpt>
      <trkpt lat="42.58774" lon="1.85833">
        <ele>2374.59</ele>
        <time>2025-02-16T09:53:37Z</time>
      </trkpt>
      <trkpt lat="42.58768" lon="1.85827">
        <ele>2376.52</ele>
        <time>2025-02-16T09:53:54Z</time>
      </trkpt>
      <trkpt lat="42.58759" lon="1.85823">
        <ele>2378.44</ele>
        <time>2025-02-16T09:54:12Z</time>
      </trkpt>
      <trkpt lat="42.58752" lon="1.85818">
        <ele>2380.36</ele>
        <time>2025-02-16T09:54:27Z</time>
      </trkpt>
      <trkpt lat="42.58741" lon="1.85812">
        <ele>2381.32</ele>
        <time>2025-02-16T09:54:46Z</time>
      </trkpt>
      <trkpt lat="42.58732" lon="1.85806">
        <ele>2382.28</ele>
        <time>2025-02-16T09:55:02Z</time>
      </trkpt>
      <trkpt lat="42.58719" lon="1.85801">
        <ele>2384.21</ele>
        <time>2025-02-16T09:55:25Z</time>
      </trkpt>
      <trkpt lat="42.58708" lon="1.85799">
        <ele>2385.65</ele>
        <time>2025-02-16T09:55:43Z</time>
      </trkpt>
      <trkpt lat="42.587" lon="1.85797">
        <ele>2387.09</ele>
        <time>2025-02-16T09:55:57Z</time>
      </trkpt>
      <trkpt lat="42.58691" lon="1.85796">
        <ele>2388.53</ele>
        <time>2025-02-16T09:56:12Z</time>
      </trkpt>
      <trkpt lat="42.5868" lon="1.85791">
        <ele>2390.94</ele>
        <time>2025-02-16T09:56:31Z</time>
      </trkpt>
      <trkpt lat="42.58672" lon="1.85788">
        <ele>2391.9</ele>
        <time>2025-02-16T09:56:46Z</time>
      </trkpt>
      <trkpt lat="42.58664" lon="1.85785">
        <ele>2393.34</ele>
        <time>2025-02-16T09:57:00Z</time>
      </trkpt>
      <trkpt lat="42.58651" lon="1.85782">
        <ele>2394.3</ele>
        <time>2025-02-16T09:57:18Z</time>
      </trkpt>
      <trkpt lat="42.58638" lon="1.85777">
        <ele>2396.7</ele>
        <time>2025-02-16T09:57:38Z</time>
      </trkpt>
      <trkpt lat="42.58628" lon="1.85774">
        <ele>2397.67</ele>
        <time>2025-02-16T09:57:55Z</time>
      </trkpt>
      <trkpt lat="42.58619" lon="1.85771">
        <ele>2399.11</ele>
        <time>2025-02-16T09:58:11Z</time>
      </trkpt>
      <trkpt lat="42.5861" lon="1.85768">
        <ele>2401.03</ele>
        <time>2025-02-16T09:58:28Z</time>
      </trkpt>
      <trkpt lat="42.58599" lon="1.85762">
        <ele>2402.95</ele>
        <time>2025-02-16T09:58:47Z</time>
      </trkpt>
      <trkpt lat="42.58589" lon="1.85754">
        <ele>2404.39</ele>
        <time>2025-02-16T09:59:05Z</time>
      </trkpt>
      <trkpt lat="42.58579" lon="1.85747">
        <ele>2405.84</ele>
        <time>2025-02-16T09:59:24Z</time>
      </trkpt>
      <trkpt lat="42.58571" lon="1.8574">
        <ele>2407.28</ele>
        <time>2025-02-16T09:59:43Z</time>
      </trkpt>
      <trkpt lat="42.58566" lon="1.85738">
        <ele>2408.72</ele>
        <time>2025-02-16T09:59:59Z</time>
      </trkpt>
      <trkpt lat="42.58562" lon="1.85738">
        <ele>2410.64</ele>
        <time>2025-02-16T10:00:17Z</time>
      </trkpt>
      <trkpt lat="42.58562" lon="1.85739">
        <ele>2410.64</ele>
        <time>2025-02-16T10:00:37Z</time>
      </trkpt>
      <trkpt lat="42.58558" lon="1.85738">
        <ele>2412.09</ele>
        <time>2025-02-16T10:00:52Z</time>
      </trkpt>
      <trkpt lat="42.58556" lon="1.85734">
        <ele>2413.53</ele>
        <time>2025-02-16T10:01:11Z</time>
      </trkpt>
      <trkpt lat="42.5855" lon="1.85734">
        <ele>2415.45</ele>
        <time>2025-02-16T10:01:26Z</time>
      </trkpt>
      <trkpt lat="42.58547" lon="1.85729">
        <ele>2417.37</ele>
        <time>2025-02-16T10:01:43Z</time>
      </trkpt>
      <trkpt lat="42.58546" lon="1.85721">
        <ele>2418.81</ele>
        <time>2025-02-16T10:01:59Z</time>
      </trkpt>
      <trkpt lat="42.58543" lon="1.85719">
        <ele>2421.22</ele>
        <time>2025-02-16T10:02:16Z</time>
      </trkpt>
      <trkpt lat="42.58539" lon="1.85717">
        <ele>2422.66</ele>
        <time>2025-02-16T10:02:33Z</time>
      </trkpt>
      <trkpt lat="42.58532" lon="1.85713">
        <ele>2424.58</ele>
        <time>2025-02-16T10:02:52Z</time>
      </trkpt>
      <trkpt lat="42.58523" lon="1.8571">
        <ele>2426.5</ele>
        <time>2025-02-16T10:03:11Z</time>
      </trkpt>
      <trkpt lat="42.58514" lon="1.85704">
        <ele>2427.47</ele>
        <time>2025-02-16T10:03:27Z</time>
      </trkpt>
      <trkpt lat="42.58505" lon="1.85697">
        <ele>2429.39</ele>
        <time>2025-02-16T10:03:44Z</time>
      </trkpt>
      <trkpt lat="42.58498" lon="1.85694">
        <ele>2430.35</ele>
        <time>2025-02-16T10:03:59Z</time>
      </trkpt>
      <trkpt lat="42.58489" lon="1.8569">
        <ele>2433.23</ele>
        <time>2025-02-16T10:04:19Z</time>
      </trkpt>
      <trkpt lat="42.58482" lon="1.85688">
        <ele>2435.16</ele>
        <time>2025-02-16T10:04:35Z</time>
      </trkpt>
      <trkpt lat="42.58477" lon="1.85684">
        <ele>2436.6</ele>
        <time>2025-02-16T10:04:51Z</time>
      </trkpt>
      <trkpt lat="42.58471" lon="1.85681">
        <ele>2437.56</ele>
        <time>2025-02-16T10:05:05Z</time>
      </trkpt>
      <trkpt lat="42.58468" lon="1.8568">
        <ele>2438.52</ele>
        <time>2025-02-16T10:05:24Z</time>
      </trkpt>
      <trkpt lat="42.58464" lon="1.85677">
        <ele>2439.48</ele>
        <time>2025-02-16T10:05:43Z</time>
      </trkpt>
      <trkpt lat="42.58452" lon="1.85668">
        <ele>2440.44</ele>
        <time>2025-02-16T10:06:01Z</time>
      </trkpt>
      <trkpt lat="42.58447" lon="1.85664">
        <ele>2441.41</ele>
        <time>2025-02-16T10:06:17Z</time>
      </trkpt>
      <trkpt lat="42.58445" lon="1.85665">
        <ele>2441.89</ele>
        <time>2025-02-16T10:06:48Z</time>
      </trkpt>
      <trkpt lat="42.58444" lon="1.85663">
        <ele>2441.89</ele>
        <time>2025-02-16T10:07:20Z</time>
      </trkpt>
      <trkpt lat="42.58444" lon="1.85663">
        <ele>2441.89</ele>
        <time>2025-02-16T10:07:49Z</time>
      </trkpt>
      <trkpt lat="42.58443" lon="1.85664">
        <ele>2441.89</ele>
        <time>2025-02-16T10:08:20Z</time>
      </trkpt>
      <trkpt lat="42.58435" lon="1.85661">
        <ele>2442.37</ele>
        <time>2025-02-16T10:08:38Z</time>
      </trkpt>
      <trkpt lat="42.58432" lon="1.85656">
        <ele>2442.37</ele>
        <time>2025-02-16T10:08:45Z</time>
      </trkpt>
      <trkpt lat="42.58428" lon="1.85646">
        <ele>2442.85</ele>
        <time>2025-02-16T10:08:58Z</time>
      </trkpt>
      <trkpt lat="42.58422" lon="1.85641">
        <ele>2442.85</ele>
        <time>2025-02-16T10:09:11Z</time>
      </trkpt>
      <trkpt lat="42.58417" lon="1.85631">
        <ele>2440.44</ele>
        <time>2025-02-16T10:09:32Z</time>
      </trkpt>
      <trkpt lat="42.58409" lon="1.85614">
        <ele>2442.37</ele>
        <time>2025-02-16T10:09:49Z</time>
      </trkpt>
      <trkpt lat="42.58407" lon="1.85606">
        <ele>2443.33</ele>
        <time>2025-02-16T10:10:07Z</time>
      </trkpt>
      <trkpt lat="42.58404" lon="1.85596">
        <ele>2444.77</ele>
        <time>2025-02-16T10:10:24Z</time>
      </trkpt>
      <trkpt lat="42.58402" lon="1.85587">
        <ele>2446.21</ele>
        <time>2025-02-16T10:10:39Z</time>
      </trkpt>
      <trkpt lat="42.58402" lon="1.85584">
        <ele>2446.69</ele>
        <time>2025-02-16T10:10:58Z</time>
      </trkpt>
      <trkpt lat="42.58399" lon="1.85576">
        <ele>2447.17</ele>
        <time>2025-02-16T10:11:17Z</time>
      </trkpt>
      <trkpt lat="42.58397" lon="1.85567">
        <ele>2449.1</ele>
        <time>2025-02-16T10:11:33Z</time>
      </trkpt>
      <trkpt lat="42.58396" lon="1.85559">
        <ele>2451.02</ele>
        <time>2025-02-16T10:11:47Z</time>
      </trkpt>
      <trkpt lat="42.58396" lon="1.85551">
        <ele>2452.94</ele>
        <time>2025-02-16T10:12:04Z</time>
      </trkpt>
      <trkpt lat="42.58396" lon="1.85546">
        <ele>2454.38</ele>
        <time>2025-02-16T10:12:18Z</time>
      </trkpt>
      <trkpt lat="42.58393" lon="1.85539">
        <ele>2455.82</ele>
        <time>2025-02-16T10:12:34Z</time>
      </trkpt>
      <trkpt lat="42.58391" lon="1.85532">
        <ele>2457.75</ele>
        <time>2025-02-16T10:12:50Z</time>
      </trkpt>
      <trkpt lat="42.58389" lon="1.85525">
        <ele>2459.19</ele>
        <time>2025-02-16T10:13:05Z</time>
      </trkpt>
      <trkpt lat="42.58387" lon="1.85519">
        <ele>2460.63</ele>
        <time>2025-02-16T10:13:18Z</time>
      </trkpt>
      <trkpt lat="42.58386" lon="1.85511">
        <ele>2462.07</ele>
        <time>2025-02-16T10:13:32Z</time>
      </trkpt>
      <trkpt lat="42.58382" lon="1.85505">
        <ele>2463.04</ele>
        <time>2025-02-16T10:13:46Z</time>
      </trkpt>
      <trkpt lat="42.58379" lon="1.855">
        <ele>2464</ele>
        <time>2025-02-16T10:14:00Z</time>
      </trkpt>
      <trkpt lat="42.58373" lon="1.85497">
        <ele>2466.4</ele>
        <time>2025-02-16T10:14:18Z</time>
      </trkpt>
      <trkpt lat="42.58367" lon="1.85496">
        <ele>2467.84</ele>
        <time>2025-02-16T10:14:34Z</time>
      </trkpt>
      <trkpt lat="42.58363" lon="1.85496">
        <ele>2469.28</ele>
        <time>2025-02-16T10:14:52Z</time>
      </trkpt>
      <trkpt lat="42.58357" lon="1.85493">
        <ele>2471.21</ele>
        <time>2025-02-16T10:15:12Z</time>
      </trkpt>
      <trkpt lat="42.5835" lon="1.85489">
        <ele>2473.61</ele>
        <time>2025-02-16T10:15:32Z</time>
      </trkpt>
      <trkpt lat="42.58348" lon="1.85483">
        <ele>2475.05</ele>
        <time>2025-02-16T10:15:48Z</time>
      </trkpt>
      <trkpt lat="42.58344" lon="1.85477">
        <ele>2476.49</ele>
        <time>2025-02-16T10:16:06Z</time>
      </trkpt>
      <trkpt lat="42.5834" lon="1.85476">
        <ele>2478.42</ele>
        <time>2025-02-16T10:16:22Z</time>
      </trkpt>
      <trkpt lat="42.58337" lon="1.85475">
        <ele>2479.38</ele>
        <time>2025-02-16T10:16:39Z</time>
      </trkpt>
      <trkpt lat="42.58331" lon="1.85471">
        <ele>2481.78</ele>
        <time>2025-02-16T10:16:56Z</time>
      </trkpt>
      <trkpt lat="42.58329" lon="1.85467">
        <ele>2482.26</ele>
        <time>2025-02-16T10:17:13Z</time>
      </trkpt>
      <trkpt lat="42.58325" lon="1.85463">
        <ele>2484.18</ele>
        <time>2025-02-16T10:17:30Z</time>
      </trkpt>
      <trkpt lat="42.58321" lon="1.8546">
        <ele>2485.63</ele>
        <time>2025-02-16T10:17:46Z</time>
      </trkpt>
      <trkpt lat="42.58318" lon="1.85458">
        <ele>2487.55</ele>
        <time>2025-02-16T10:18:02Z</time>
      </trkpt>
      <trkpt lat="42.58317" lon="1.85451">
        <ele>2488.99</ele>
        <time>2025-02-16T10:18:17Z</time>
      </trkpt>
      <trkpt lat="42.58314" lon="1.85452">
        <ele>2490.43</ele>
        <time>2025-02-16T10:18:31Z</time>
      </trkpt>
      <trkpt lat="42.58312" lon="1.85448">
        <ele>2492.36</ele>
        <time>2025-02-16T10:18:47Z</time>
      </trkpt>
      <trkpt lat="42.58309" lon="1.85442">
        <ele>2492.84</ele>
        <time>2025-02-16T10:19:07Z</time>
      </trkpt>
      <trkpt lat="42.58306" lon="1.85435">
        <ele>2494.76</ele>
        <time>2025-02-16T10:19:23Z</time>
      </trkpt>
      <trkpt lat="42.58304" lon="1.8543">
        <ele>2497.16</ele>
        <time>2025-02-16T10:19:39Z</time>
      </trkpt>
      <trkpt lat="42.58302" lon="1.85428">
        <ele>2498.6</ele>
        <time>2025-02-16T10:19:53Z</time>
      </trkpt>
      <trkpt lat="42.583" lon="1.85423">
        <ele>2500.53</ele>
        <time>2025-02-16T10:20:08Z</time>
      </trkpt>
      <trkpt lat="42.58297" lon="1.85419">
        <ele>2501.49</ele>
        <time>2025-02-16T10:20:22Z</time>
      </trkpt>
      <trkpt lat="42.58296" lon="1.85413">
        <ele>2502.93</ele>
        <time>2025-02-16T10:20:36Z</time>
      </trkpt>
      <trkpt lat="42.58293" lon="1.85407">
        <ele>2504.37</ele>
        <time>2025-02-16T10:20:51Z</time>
      </trkpt>
      <trkpt lat="42.5829" lon="1.85404">
        <ele>2505.81</ele>
        <time>2025-02-16T10:21:06Z</time>
      </trkpt>
      <trkpt lat="42.58288" lon="1.85399">
        <ele>2507.26</ele>
        <time>2025-02-16T10:21:20Z</time>
      </trkpt>
      <trkpt lat="42.58285" lon="1.85393">
        <ele>2508.7</ele>
        <time>2025-02-16T10:21:36Z</time>
      </trkpt>
      <trkpt lat="42.58281" lon="1.85387">
        <ele>2510.14</ele>
        <time>2025-02-16T10:21:53Z</time>
      </trkpt>
      <trkpt lat="42.58277" lon="1.85382">
        <ele>2511.58</ele>
        <time>2025-02-16T10:22:13Z</time>
      </trkpt>
      <trkpt lat="42.58274" lon="1.85376">
        <ele>2513.02</ele>
        <time>2025-02-16T10:22:28Z</time>
      </trkpt>
      <trkpt lat="42.58272" lon="1.85373">
        <ele>2513.98</ele>
        <time>2025-02-16T10:22:44Z</time>
      </trkpt>
      <trkpt lat="42.58267" lon="1.85367">
        <ele>2515.91</ele>
        <time>2025-02-16T10:23:00Z</time>
      </trkpt>
      <trkpt lat="42.58262" lon="1.85362">
        <ele>2517.35</ele>
        <time>2025-02-16T10:23:19Z</time>
      </trkpt>
      <trkpt lat="42.58258" lon="1.85357">
        <ele>2518.79</ele>
        <time>2025-02-16T10:23:34Z</time>
      </trkpt>
      <trkpt lat="42.58253" lon="1.8535">
        <ele>2521.19</ele>
        <time>2025-02-16T10:23:53Z</time>
      </trkpt>
      <trkpt lat="42.5825" lon="1.85345">
        <ele>2522.16</ele>
        <time>2025-02-16T10:24:06Z</time>
      </trkpt>
      <trkpt lat="42.58245" lon="1.85339">
        <ele>2523.6</ele>
        <time>2025-02-16T10:24:23Z</time>
      </trkpt>
      <trkpt lat="42.58241" lon="1.85332">
        <ele>2525.04</ele>
        <time>2025-02-16T10:24:38Z</time>
      </trkpt>
      <trkpt lat="42.58236" lon="1.85323">
        <ele>2526.48</ele>
        <time>2025-02-16T10:24:53Z</time>
      </trkpt>
      <trkpt lat="42.58232" lon="1.85312">
        <ele>2527.92</ele>
        <time>2025-02-16T10:25:09Z</time>
      </trkpt>
      <trkpt lat="42.5823" lon="1.85314">
        <ele>2528.4</ele>
        <time>2025-02-16T10:25:25Z</time>
      </trkpt>
      <trkpt lat="42.58229" lon="1.85313">
        <ele>2528.4</ele>
        <time>2025-02-16T10:25:38Z</time>
      </trkpt>
      <trkpt lat="42.58231" lon="1.85309">
        <ele>2528.4</ele>
        <time>2025-02-16T10:26:00Z</time>
      </trkpt>
      <trkpt lat="42.5823" lon="1.85312">
        <ele>2528.89</ele>
        <time>2025-02-16T10:26:23Z</time>
      </trkpt>
      <trkpt lat="42.58232" lon="1.85314">
        <ele>2528.89</ele>
        <time>2025-02-16T10:26:51Z</time>
      </trkpt>
      <trkpt lat="42.58232" lon="1.85313">
        <ele>2528.89</ele>
        <time>2025-02-16T10:27:10Z</time>
      </trkpt>
      <trkpt lat="42.5823" lon="1.85313">
        <ele>2528.89</ele>
        <time>2025-02-16T10:27:35Z</time>
      </trkpt>
      <trkpt lat="42.58223" lon="1.85315">
        <ele>2528.89</ele>
        <time>2025-02-16T10:28:05Z</time>
      </trkpt>
      <trkpt lat="42.58227" lon="1.85315">
        <ele>2529.37</ele>
        <time>2025-02-16T10:28:38Z</time>
      </trkpt>
      <trkpt lat="42.58228" lon="1.85313">
        <ele>2529.37</ele>
        <time>2025-02-16T10:29:11Z</time>
      </trkpt>
      <trkpt lat="42.5823" lon="1.85316">
        <ele>2529.37</ele>
        <time>2025-02-16T10:29:46Z</time>
      </trkpt>
      <trkpt lat="42.58228" lon="1.85313">
        <ele>2529.37</ele>
        <time>2025-02-16T10:30:12Z</time>
      </trkpt>
      <trkpt lat="42.5823" lon="1.85315">
        <ele>2529.37</ele>
        <time>2025-02-16T10:30:35Z</time>
      </trkpt>
      <trkpt lat="42.58225" lon="1.85314">
        <ele>2529.37</ele>
        <time>2025-02-16T10:31:06Z</time>
      </trkpt>
      <trkpt lat="42.58229" lon="1.85318">
        <ele>2529.37</ele>
        <time>2025-02-16T10:31:29Z</time>
      </trkpt>
      <trkpt lat="42.58228" lon="1.85316">
        <ele>2529.37</ele>
        <time>2025-02-16T10:32:00Z</time>
      </trkpt>
      <trkpt lat="42.58237" lon="1.85315">
        <ele>2529.85</ele>
        <time>2025-02-16T10:32:16Z</time>
      </trkpt>
      <trkpt lat="42.58249" lon="1.85315">
        <ele>2531.29</ele>
        <time>2025-02-16T10:32:31Z</time>
      </trkpt>
      <trkpt lat="42.58256" lon="1.85314">
        <ele>2532.25</ele>
        <time>2025-02-16T10:32:45Z</time>
      </trkpt>
      <trkpt lat="42.58265" lon="1.85312">
        <ele>2534.65</ele>
        <time>2025-02-16T10:33:00Z</time>
      </trkpt>
      <trkpt lat="42.58272" lon="1.85311">
        <ele>2536.58</ele>
        <time>2025-02-16T10:33:18Z</time>
      </trkpt>
      <trkpt lat="42.58273" lon="1.85309">
        <ele>2538.02</ele>
        <time>2025-02-16T10:33:35Z</time>
      </trkpt>
      <trkpt lat="42.58276" lon="1.85306">
        <ele>2539.46</ele>
        <time>2025-02-16T10:33:51Z</time>
      </trkpt>
      <trkpt lat="42.5828" lon="1.85306">
        <ele>2541.38</ele>
        <time>2025-02-16T10:34:07Z</time>
      </trkpt>
      <trkpt lat="42.58283" lon="1.85303">
        <ele>2543.31</ele>
        <time>2025-02-16T10:34:24Z</time>
      </trkpt>
      <trkpt lat="42.58286" lon="1.85301">
        <ele>2544.75</ele>
        <time>2025-02-16T10:34:38Z</time>
      </trkpt>
      <trkpt lat="42.58291" lon="1.85296">
        <ele>2546.67</ele>
        <time>2025-02-16T10:34:55Z</time>
      </trkpt>
      <trkpt lat="42.58297" lon="1.85292">
        <ele>2548.59</ele>
        <time>2025-02-16T10:35:12Z</time>
      </trkpt>
      <trkpt lat="42.58304" lon="1.85287">
        <ele>2550.03</ele>
        <time>2025-02-16T10:35:29Z</time>
      </trkpt>
      <trkpt lat="42.58312" lon="1.85283">
        <ele>2551.48</ele>
        <time>2025-02-16T10:35:47Z</time>
      </trkpt>
      <trkpt lat="42.58315" lon="1.85282">
        <ele>2553.4</ele>
        <time>2025-02-16T10:36:02Z</time>
      </trkpt>
      <trkpt lat="42.58318" lon="1.85281">
        <ele>2554.84</ele>
        <time>2025-02-16T10:36:15Z</time>
      </trkpt>
      <trkpt lat="42.58323" lon="1.85278">
        <ele>2555.8</ele>
        <time>2025-02-16T10:36:30Z</time>
      </trkpt>
      <trkpt lat="42.58326" lon="1.85277">
        <ele>2557.24</ele>
        <time>2025-02-16T10:36:44Z</time>
      </trkpt>
      <trkpt lat="42.58332" lon="1.85275">
        <ele>2558.69</ele>
        <time>2025-02-16T10:37:00Z</time>
      </trkpt>
      <trkpt lat="42.58336" lon="1.85272">
        <ele>2560.13</ele>
        <time>2025-02-16T10:37:15Z</time>
      </trkpt>
      <trkpt lat="42.58337" lon="1.85268">
        <ele>2562.05</ele>
        <time>2025-02-16T10:37:30Z</time>
      </trkpt>
      <trkpt lat="42.58342" lon="1.85266">
        <ele>2563.01</ele>
        <time>2025-02-16T10:37:45Z</time>
      </trkpt>
      <trkpt lat="42.58347" lon="1.85263">
        <ele>2564.93</ele>
        <time>2025-02-16T10:38:00Z</time>
      </trkpt>
      <trkpt lat="42.58351" lon="1.8526">
        <ele>2566.38</ele>
        <time>2025-02-16T10:38:16Z</time>
      </trkpt>
      <trkpt lat="42.58355" lon="1.85253">
        <ele>2567.82</ele>
        <time>2025-02-16T10:38:32Z</time>
      </trkpt>
      <trkpt lat="42.5836" lon="1.85248">
        <ele>2569.26</ele>
        <time>2025-02-16T10:38:48Z</time>
      </trkpt>
      <trkpt lat="42.58365" lon="1.85245">
        <ele>2570.7</ele>
        <time>2025-02-16T10:39:03Z</time>
      </trkpt>
      <trkpt lat="42.58369" lon="1.8524">
        <ele>2571.66</ele>
        <time>2025-02-16T10:39:18Z</time>
      </trkpt>
      <trkpt lat="42.58374" lon="1.85235">
        <ele>2573.59</ele>
        <time>2025-02-16T10:39:35Z</time>
      </trkpt>
      <trkpt lat="42.58381" lon="1.85229">
        <ele>2575.03</ele>
        <time>2025-02-16T10:39:52Z</time>
      </trkpt>
      <trkpt lat="42.58388" lon="1.85226">
        <ele>2575.51</ele>
        <time>2025-02-16T10:40:05Z</time>
      </trkpt>
      <trkpt lat="42.58394" lon="1.8522">
        <ele>2576.95</ele>
        <time>2025-02-16T10:40:21Z</time>
      </trkpt>
      <trkpt lat="42.584" lon="1.85214">
        <ele>2578.39</ele>
        <time>2025-02-16T10:40:37Z</time>
      </trkpt>
      <trkpt lat="42.58405" lon="1.8521">
        <ele>2579.84</ele>
        <time>2025-02-16T10:40:51Z</time>
      </trkpt>
      <trkpt lat="42.5841" lon="1.85204">
        <ele>2581.28</ele>
        <time>2025-02-16T10:41:08Z</time>
      </trkpt>
      <trkpt lat="42.58415" lon="1.85198">
        <ele>2582.72</ele>
        <time>2025-02-16T10:41:23Z</time>
      </trkpt>
      <trkpt lat="42.5842" lon="1.85191">
        <ele>2583.68</ele>
        <time>2025-02-16T10:41:38Z</time>
      </trkpt>
      <trkpt lat="42.58424" lon="1.85185">
        <ele>2585.12</ele>
        <time>2025-02-16T10:41:53Z</time>
      </trkpt>
      <trkpt lat="42.58428" lon="1.85181">
        <ele>2585.6</ele>
        <time>2025-02-16T10:42:12Z</time>
      </trkpt>
      <trkpt lat="42.58426" lon="1.8518">
        <ele>2585.6</ele>
        <time>2025-02-16T10:42:35Z</time>
      </trkpt>
      <trkpt lat="42.5843" lon="1.85177">
        <ele>2586.56</ele>
        <time>2025-02-16T10:42:49Z</time>
      </trkpt>
      <trkpt lat="42.58436" lon="1.85169">
        <ele>2588.49</ele>
        <time>2025-02-16T10:43:05Z</time>
      </trkpt>
      <trkpt lat="42.5844" lon="1.8516">
        <ele>2589.45</ele>
        <time>2025-02-16T10:43:21Z</time>
      </trkpt>
      <trkpt lat="42.58443" lon="1.85153">
        <ele>2590.89</ele>
        <time>2025-02-16T10:43:37Z</time>
      </trkpt>
      <trkpt lat="42.58447" lon="1.85144">
        <ele>2591.85</ele>
        <time>2025-02-16T10:43:54Z</time>
      </trkpt>
      <trkpt lat="42.58449" lon="1.85137">
        <ele>2593.29</ele>
        <time>2025-02-16T10:44:11Z</time>
      </trkpt>
      <trkpt lat="42.58454" lon="1.85138">
        <ele>2594.25</ele>
        <time>2025-02-16T10:44:27Z</time>
      </trkpt>
      <trkpt lat="42.58458" lon="1.8514">
        <ele>2594.74</ele>
        <time>2025-02-16T10:44:44Z</time>
      </trkpt>
      <trkpt lat="42.5846" lon="1.85141">
        <ele>2594.74</ele>
        <time>2025-02-16T10:45:09Z</time>
      </trkpt>
      <trkpt lat="42.5846" lon="1.85141">
        <ele>2594.74</ele>
        <time>2025-02-16T10:45:35Z</time>
      </trkpt>
      <trkpt lat="42.58459" lon="1.85141">
        <ele>2595.22</ele>
        <time>2025-02-16T10:46:00Z</time>
      </trkpt>
      <trkpt lat="42.58461" lon="1.85141">
        <ele>2595.7</ele>
        <time>2025-02-16T10:46:26Z</time>
      </trkpt>
      <trkpt lat="42.58461" lon="1.85142">
        <ele>2595.7</ele>
        <time>2025-02-16T10:46:54Z</time>
      </trkpt>
      <trkpt lat="42.58462" lon="1.85142">
        <ele>2595.22</ele>
        <time>2025-02-16T10:47:17Z</time>
      </trkpt>
      <trkpt lat="42.58462" lon="1.85142">
        <ele>2595.22</ele>
        <time>2025-02-16T10:47:41Z</time>
      </trkpt>
      <trkpt lat="42.58461" lon="1.85142">
        <ele>2595.22</ele>
        <time>2025-02-16T10:48:02Z</time>
      </trkpt>
      <trkpt lat="42.58462" lon="1.85142">
        <ele>2595.22</ele>
        <time>2025-02-16T10:48:25Z</time>
      </trkpt>
      <trkpt lat="42.58463" lon="1.85143">
        <ele>2595.22</ele>
        <time>2025-02-16T10:48:43Z</time>
      </trkpt>
      <trkpt lat="42.58461" lon="1.85144">
        <ele>2595.22</ele>
        <time>2025-02-16T10:49:01Z</time>
      </trkpt>
      <trkpt lat="42.58461" lon="1.85144">
        <ele>2595.22</ele>
        <time>2025-02-16T10:49:18Z</time>
      </trkpt>
      <trkpt lat="42.58461" lon="1.85144">
        <ele>2595.22</ele>
        <time>2025-02-16T10:49:42Z</time>
      </trkpt>
      <trkpt lat="42.5846" lon="1.85145">
        <ele>2595.22</ele>
        <time>2025-02-16T10:50:08Z</time>
      </trkpt>
      <trkpt lat="42.58461" lon="1.85147">
        <ele>2595.22</ele>
        <time>2025-02-16T10:50:28Z</time>
      </trkpt>
      <trkpt lat="42.58462" lon="1.85146">
        <ele>2595.22</ele>
        <time>2025-02-16T10:50:45Z</time>
      </trkpt>
      <trkpt lat="42.58463" lon="1.85147">
        <ele>2593.77</ele>
        <time>2025-02-16T10:51:02Z</time>
      </trkpt>
      <trkpt lat="42.58463" lon="1.85146">
        <ele>2593.77</ele>
        <time>2025-02-16T10:51:30Z</time>
      </trkpt>
      <trkpt lat="42.58464" lon="1.85146">
        <ele>2593.77</ele>
        <time>2025-02-16T10:52:00Z</time>
      </trkpt>
      <trkpt lat="42.58462" lon="1.85145">
        <ele>2593.77</ele>
        <time>2025-02-16T10:52:33Z</time>
      </trkpt>
      <trkpt lat="42.58462" lon="1.85147">
        <ele>2593.77</ele>
        <time>2025-02-16T10:53:11Z</time>
      </trkpt>
      <trkpt lat="42.58463" lon="1.85147">
        <ele>2593.77</ele>
        <time>2025-02-16T10:53:43Z</time>
      </trkpt>
      <trkpt lat="42.58463" lon="1.85147">
        <ele>2593.77</ele>
        <time>2025-02-16T10:54:29Z</time>
      </trkpt>
      <trkpt lat="42.58463" lon="1.85147">
        <ele>2593.77</ele>
        <time>2025-02-16T10:55:19Z</time>
      </trkpt>
      <trkpt lat="42.58463" lon="1.85144">
        <ele>2593.77</ele>
        <time>2025-02-16T10:56:06Z</time>
      </trkpt>
      <trkpt lat="42.58463" lon="1.85144">
        <ele>2593.77</ele>
        <time>2025-02-16T10:56:37Z</time>
      </trkpt>
      <trkpt lat="42.58462" lon="1.85145">
        <ele>2593.77</ele>
        <time>2025-02-16T10:57:13Z</time>
      </trkpt>
      <trkpt lat="42.58461" lon="1.85144">
        <ele>2593.77</ele>
        <time>2025-02-16T10:57:53Z</time>
      </trkpt>
      <trkpt lat="42.58461" lon="1.85145">
        <ele>2594.25</ele>
        <time>2025-02-16T10:58:27Z</time>
      </trkpt>
      <trkpt lat="42.58462" lon="1.85145">
        <ele>2594.25</ele>
        <time>2025-02-16T10:59:12Z</time>
      </trkpt>
      <trkpt lat="42.58462" lon="1.85144">
        <ele>2594.25</ele>
        <time>2025-02-16T10:59:53Z</time>
      </trkpt>
      <trkpt lat="42.58462" lon="1.85145">
        <ele>2594.25</ele>
        <time>2025-02-16T11:00:36Z</time>
      </trkpt>
      <trkpt lat="42.58462" lon="1.85145">
        <ele>2594.25</ele>
        <time>2025-02-16T11:01:13Z</time>
      </trkpt>
      <trkpt lat="42.58462" lon="1.85145">
        <ele>2594.74</ele>
        <time>2025-02-16T11:01:51Z</time>
      </trkpt>
      <trkpt lat="42.58461" lon="1.85145">
        <ele>2594.74</ele>
        <time>2025-02-16T11:02:27Z</time>
      </trkpt>
      <trkpt lat="42.58461" lon="1.85145">
        <ele>2594.74</ele>
        <time>2025-02-16T11:03:04Z</time>
      </trkpt>
      <trkpt lat="42.58461" lon="1.85145">
        <ele>2594.74</ele>
        <time>2025-02-16T11:03:49Z</time>
      </trkpt>
      <trkpt lat="42.58461" lon="1.85145">
        <ele>2595.7</ele>
        <time>2025-02-16T11:04:28Z</time>
      </trkpt>
      <trkpt lat="42.58461" lon="1.85145">
        <ele>2595.7</ele>
        <time>2025-02-16T11:05:05Z</time>
      </trkpt>
      <trkpt lat="42.58461" lon="1.85145">
        <ele>2595.7</ele>
        <time>2025-02-16T11:05:36Z</time>
      </trkpt>
      <trkpt lat="42.5846" lon="1.85145">
        <ele>2595.7</ele>
        <time>2025-02-16T11:06:10Z</time>
      </trkpt>
      <trkpt lat="42.5846" lon="1.85144">
        <ele>2595.7</ele>
        <time>2025-02-16T11:06:40Z</time>
      </trkpt>
      <trkpt lat="42.58461" lon="1.85145">
        <ele>2595.7</ele>
        <time>2025-02-16T11:07:23Z</time>
      </trkpt>
      <trkpt lat="42.58461" lon="1.85145">
        <ele>2595.7</ele>
        <time>2025-02-16T11:08:02Z</time>
      </trkpt>
      <trkpt lat="42.58462" lon="1.85145">
        <ele>2595.7</ele>
        <time>2025-02-16T11:08:41Z</time>
      </trkpt>
      <trkpt lat="42.58462" lon="1.85144">
        <ele>2595.7</ele>
        <time>2025-02-16T11:09:17Z</time>
      </trkpt>
      <trkpt lat="42.58462" lon="1.85144">
        <ele>2595.7</ele>
        <time>2025-02-16T11:09:58Z</time>
      </trkpt>
      <trkpt lat="42.58462" lon="1.85144">
        <ele>2595.7</ele>
        <time>2025-02-16T11:10:37Z</time>
      </trkpt>
      <trkpt lat="42.58462" lon="1.85145">
        <ele>2595.7</ele>
        <time>2025-02-16T11:11:10Z</time>
      </trkpt>
      <trkpt lat="42.58462" lon="1.85145">
        <ele>2595.7</ele>
        <time>2025-02-16T11:11:42Z</time>
      </trkpt>
      <trkpt lat="42.58462" lon="1.85145">
        <ele>2596.18</ele>
        <time>2025-02-16T11:12:19Z</time>
      </trkpt>
      <trkpt lat="42.58462" lon="1.85145">
        <ele>2596.18</ele>
        <time>2025-02-16T11:13:00Z</time>
      </trkpt>
      <trkpt lat="42.58463" lon="1.85145">
        <ele>2596.18</ele>
        <time>2025-02-16T11:13:30Z</time>
      </trkpt>
      <trkpt lat="42.58463" lon="1.85145">
        <ele>2596.66</ele>
        <time>2025-02-16T11:14:09Z</time>
      </trkpt>
      <trkpt lat="42.58464" lon="1.85144">
        <ele>2597.14</ele>
        <time>2025-02-16T11:14:44Z</time>
      </trkpt>
      <trkpt lat="42.58462" lon="1.85144">
        <ele>2597.14</ele>
        <time>2025-02-16T11:15:17Z</time>
      </trkpt>
      <trkpt lat="42.58462" lon="1.85144">
        <ele>2597.14</ele>
        <time>2025-02-16T11:15:41Z</time>
      </trkpt>
      <trkpt lat="42.58462" lon="1.85144">
        <ele>2597.14</ele>
        <time>2025-02-16T11:16:11Z</time>
      </trkpt>
      <trkpt lat="42.58461" lon="1.85145">
        <ele>2597.62</ele>
        <time>2025-02-16T11:16:44Z</time>
      </trkpt>
      <trkpt lat="42.58462" lon="1.85144">
        <ele>2597.62</ele>
        <time>2025-02-16T11:17:17Z</time>
      </trkpt>
      <trkpt lat="42.58461" lon="1.85145">
        <ele>2597.62</ele>
        <time>2025-02-16T11:17:53Z</time>
      </trkpt>
      <trkpt lat="42.58461" lon="1.85145">
        <ele>2597.62</ele>
        <time>2025-02-16T11:18:26Z</time>
      </trkpt>
      <trkpt lat="42.5846" lon="1.85146">
        <ele>2597.62</ele>
        <time>2025-02-16T11:19:02Z</time>
      </trkpt>
      <trkpt lat="42.58459" lon="1.85146">
        <ele>2597.62</ele>
        <time>2025-02-16T11:19:27Z</time>
      </trkpt>
      <trkpt lat="42.5846" lon="1.85146">
        <ele>2598.1</ele>
        <time>2025-02-16T11:20:04Z</time>
      </trkpt>
      <trkpt lat="42.58461" lon="1.85146">
        <ele>2599.06</ele>
        <time>2025-02-16T11:20:26Z</time>
      </trkpt>
      <trkpt lat="42.58459" lon="1.85148">
        <ele>2598.58</ele>
        <time>2025-02-16T11:20:40Z</time>
      </trkpt>
      <trkpt lat="42.58457" lon="1.85147">
        <ele>2599.06</ele>
        <time>2025-02-16T11:21:03Z</time>
      </trkpt>
      <trkpt lat="42.58457" lon="1.85147">
        <ele>2599.06</ele>
        <time>2025-02-16T11:21:20Z</time>
      </trkpt>
      <trkpt lat="42.58457" lon="1.85148">
        <ele>2599.06</ele>
        <time>2025-02-16T11:21:45Z</time>
      </trkpt>
      <trkpt lat="42.58457" lon="1.85148">
        <ele>2599.06</ele>
        <time>2025-02-16T11:22:04Z</time>
      </trkpt>
      <trkpt lat="42.58458" lon="1.85147">
        <ele>2599.06</ele>
        <time>2025-02-16T11:22:25Z</time>
      </trkpt>
      <trkpt lat="42.58458" lon="1.85148">
        <ele>2599.06</ele>
        <time>2025-02-16T11:22:54Z</time>
      </trkpt>
      <trkpt lat="42.58456" lon="1.85145">
        <ele>2599.06</ele>
        <time>2025-02-16T11:23:15Z</time>
      </trkpt>
      <trkpt lat="42.58456" lon="1.85144">
        <ele>2599.06</ele>
        <time>2025-02-16T11:23:37Z</time>
      </trkpt>
      <trkpt lat="42.58455" lon="1.85143">
        <ele>2599.06</ele>
        <time>2025-02-16T11:23:58Z</time>
      </trkpt>
      <trkpt lat="42.58451" lon="1.85138">
        <ele>2598.1</ele>
        <time>2025-02-16T11:24:09Z</time>
      </trkpt>
      <trkpt lat="42.58448" lon="1.85145">
        <ele>2596.18</ele>
        <time>2025-02-16T11:24:23Z</time>
      </trkpt>
      <trkpt lat="42.58444" lon="1.85159">
        <ele>2593.77</ele>
        <time>2025-02-16T11:24:35Z</time>
      </trkpt>
      <trkpt lat="42.5844" lon="1.85166">
        <ele>2591.85</ele>
        <time>2025-02-16T11:24:48Z</time>
      </trkpt>
      <trkpt lat="42.58436" lon="1.85172">
        <ele>2591.37</ele>
        <time>2025-02-16T11:24:54Z</time>
      </trkpt>
      <trkpt lat="42.58435" lon="1.85173">
        <ele>2591.37</ele>
        <time>2025-02-16T11:24:56Z</time>
      </trkpt>
      <trkpt lat="42.58427" lon="1.85183">
        <ele>2588.97</ele>
        <time>2025-02-16T11:25:10Z</time>
      </trkpt>
      <trkpt lat="42.58419" lon="1.85195">
        <ele>2586.56</ele>
        <time>2025-02-16T11:25:26Z</time>
      </trkpt>
      <trkpt lat="42.58411" lon="1.85205">
        <ele>2584.64</ele>
        <time>2025-02-16T11:25:39Z</time>
      </trkpt>
      <trkpt lat="42.58402" lon="1.85215">
        <ele>2581.76</ele>
        <time>2025-02-16T11:25:54Z</time>
      </trkpt>
      <trkpt lat="42.58393" lon="1.85223">
        <ele>2579.84</ele>
        <time>2025-02-16T11:26:08Z</time>
      </trkpt>
      <trkpt lat="42.5839" lon="1.85225">
        <ele>2579.35</ele>
        <time>2025-02-16T11:26:12Z</time>
      </trkpt>
      <trkpt lat="42.58382" lon="1.85229">
        <ele>2577.91</ele>
        <time>2025-02-16T11:26:23Z</time>
      </trkpt>
      <trkpt lat="42.58379" lon="1.85232">
        <ele>2577.43</ele>
        <time>2025-02-16T11:26:27Z</time>
      </trkpt>
      <trkpt lat="42.58368" lon="1.85245">
        <ele>2574.55</ele>
        <time>2025-02-16T11:26:44Z</time>
      </trkpt>
      <trkpt lat="42.5836" lon="1.85253">
        <ele>2572.14</ele>
        <time>2025-02-16T11:26:58Z</time>
      </trkpt>
      <trkpt lat="42.58353" lon="1.85262">
        <ele>2569.26</ele>
        <time>2025-02-16T11:27:13Z</time>
      </trkpt>
      <trkpt lat="42.58347" lon="1.85265">
        <ele>2568.3</ele>
        <time>2025-02-16T11:27:24Z</time>
      </trkpt>
      <trkpt lat="42.58339" lon="1.85271">
        <ele>2564.93</ele>
        <time>2025-02-16T11:27:39Z</time>
      </trkpt>
      <trkpt lat="42.58331" lon="1.85275">
        <ele>2562.05</ele>
        <time>2025-02-16T11:27:52Z</time>
      </trkpt>
      <trkpt lat="42.58323" lon="1.85279">
        <ele>2559.65</ele>
        <time>2025-02-16T11:28:06Z</time>
      </trkpt>
      <trkpt lat="42.58316" lon="1.85282">
        <ele>2557.24</ele>
        <time>2025-02-16T11:28:23Z</time>
      </trkpt>
      <trkpt lat="42.58308" lon="1.85288">
        <ele>2553.88</ele>
        <time>2025-02-16T11:28:37Z</time>
      </trkpt>
      <trkpt lat="42.583" lon="1.85292">
        <ele>2551.96</ele>
        <time>2025-02-16T11:28:51Z</time>
      </trkpt>
      <trkpt lat="42.58296" lon="1.85292">
        <ele>2551.48</ele>
        <time>2025-02-16T11:29:10Z</time>
      </trkpt>
      <trkpt lat="42.5829" lon="1.85298">
        <ele>2550.51</ele>
        <time>2025-02-16T11:29:30Z</time>
      </trkpt>
      <trkpt lat="42.58284" lon="1.85302">
        <ele>2547.63</ele>
        <time>2025-02-16T11:29:42Z</time>
      </trkpt>
      <trkpt lat="42.58279" lon="1.85304">
        <ele>2544.27</ele>
        <time>2025-02-16T11:29:56Z</time>
      </trkpt>
      <trkpt lat="42.58271" lon="1.85307">
        <ele>2540.9</ele>
        <time>2025-02-16T11:30:08Z</time>
      </trkpt>
      <trkpt lat="42.58261" lon="1.85308">
        <ele>2538.02</ele>
        <time>2025-02-16T11:30:21Z</time>
      </trkpt>
      <trkpt lat="42.58253" lon="1.8531">
        <ele>2535.13</ele>
        <time>2025-02-16T11:30:33Z</time>
      </trkpt>
      <trkpt lat="42.5824" lon="1.85314">
        <ele>2532.73</ele>
        <time>2025-02-16T11:30:48Z</time>
      </trkpt>
      <trkpt lat="42.58229" lon="1.85318">
        <ele>2531.29</ele>
        <time>2025-02-16T11:31:02Z</time>
      </trkpt>
      <trkpt lat="42.58231" lon="1.85321">
        <ele>2531.29</ele>
        <time>2025-02-16T11:31:17Z</time>
      </trkpt>
      <trkpt lat="42.58229" lon="1.85316">
        <ele>2530.33</ele>
        <time>2025-02-16T11:31:33Z</time>
      </trkpt>
      <trkpt lat="42.58231" lon="1.85319">
        <ele>2530.33</ele>
        <time>2025-02-16T11:32:10Z</time>
      </trkpt>
      <trkpt lat="42.58229" lon="1.85319">
        <ele>2530.33</ele>
        <time>2025-02-16T11:32:42Z</time>
      </trkpt>
      <trkpt lat="42.58226" lon="1.8532">
        <ele>2530.33</ele>
        <time>2025-02-16T11:32:55Z</time>
      </trkpt>
      <trkpt lat="42.58224" lon="1.85319">
        <ele>2531.77</ele>
        <time>2025-02-16T11:33:11Z</time>
      </trkpt>
      <trkpt lat="42.58228" lon="1.85319">
        <ele>2531.77</ele>
        <time>2025-02-16T11:33:30Z</time>
      </trkpt>
      <trkpt lat="42.5823" lon="1.85316">
        <ele>2531.77</ele>
        <time>2025-02-16T11:33:51Z</time>
      </trkpt>
      <trkpt lat="42.58234" lon="1.85315">
        <ele>2531.77</ele>
        <time>2025-02-16T11:34:06Z</time>
      </trkpt>
      <trkpt lat="42.58235" lon="1.85314">
        <ele>2530.33</ele>
        <time>2025-02-16T11:34:15Z</time>
      </trkpt>
      <trkpt lat="42.58235" lon="1.85313">
        <ele>2529.85</ele>
        <time>2025-02-16T11:34:36Z</time>
      </trkpt>
      <trkpt lat="42.58234" lon="1.85309">
        <ele>2528.89</ele>
        <time>2025-02-16T11:34:53Z</time>
      </trkpt>
      <trkpt lat="42.58234" lon="1.85306">
        <ele>2527.44</ele>
        <time>2025-02-16T11:35:21Z</time>
      </trkpt>
      <trkpt lat="42.58235" lon="1.85305">
        <ele>2527.44</ele>
        <time>2025-02-16T11:35:44Z</time>
      </trkpt>
      <trkpt lat="42.58234" lon="1.85305">
        <ele>2526.96</ele>
        <time>2025-02-16T11:36:18Z</time>
      </trkpt>
      <trkpt lat="42.58232" lon="1.85309">
        <ele>2526.96</ele>
        <time>2025-02-16T11:36:51Z</time>
      </trkpt>
      <trkpt lat="42.58232" lon="1.85306">
        <ele>2526.96</ele>
        <time>2025-02-16T11:37:23Z</time>
      </trkpt>
      <trkpt lat="42.58229" lon="1.85302">
        <ele>2525.04</ele>
        <time>2025-02-16T11:37:44Z</time>
      </trkpt>
      <trkpt lat="42.58228" lon="1.85303">
        <ele>2525.04</ele>
        <time>2025-02-16T11:38:18Z</time>
      </trkpt>
      <trkpt lat="42.58227" lon="1.85292">
        <ele>2522.16</ele>
        <time>2025-02-16T11:38:35Z</time>
      </trkpt>
      <trkpt lat="42.58222" lon="1.85279">
        <ele>2519.27</ele>
        <time>2025-02-16T11:38:54Z</time>
      </trkpt>
      <trkpt lat="42.58217" lon="1.8527">
        <ele>2516.39</ele>
        <time>2025-02-16T11:39:08Z</time>
      </trkpt>
      <trkpt lat="42.58211" lon="1.85258">
        <ele>2513.02</ele>
        <time>2025-02-16T11:39:25Z</time>
      </trkpt>
      <trkpt lat="42.58207" lon="1.85251">
        <ele>2511.58</ele>
        <time>2025-02-16T11:39:45Z</time>
      </trkpt>
      <trkpt lat="42.58205" lon="1.85238">
        <ele>2508.22</ele>
        <time>2025-02-16T11:40:01Z</time>
      </trkpt>
      <trkpt lat="42.58206" lon="1.85224">
        <ele>2505.33</ele>
        <time>2025-02-16T11:40:17Z</time>
      </trkpt>
      <trkpt lat="42.58205" lon="1.85213">
        <ele>2501.97</ele>
        <time>2025-02-16T11:40:30Z</time>
      </trkpt>
      <trkpt lat="42.58207" lon="1.85204">
        <ele>2498.6</ele>
        <time>2025-02-16T11:40:44Z</time>
      </trkpt>
      <trkpt lat="42.58209" lon="1.85193">
        <ele>2494.76</ele>
        <time>2025-02-16T11:41:00Z</time>
      </trkpt>
      <trkpt lat="42.58208" lon="1.85183">
        <ele>2491.87</ele>
        <time>2025-02-16T11:41:17Z</time>
      </trkpt>
      <trkpt lat="42.58207" lon="1.85171">
        <ele>2488.51</ele>
        <time>2025-02-16T11:41:35Z</time>
      </trkpt>
      <trkpt lat="42.58207" lon="1.85159">
        <ele>2486.11</ele>
        <time>2025-02-16T11:41:50Z</time>
      </trkpt>
      <trkpt lat="42.58202" lon="1.85143">
        <ele>2483.7</ele>
        <time>2025-02-16T11:42:09Z</time>
      </trkpt>
      <trkpt lat="42.58193" lon="1.8513">
        <ele>2480.82</ele>
        <time>2025-02-16T11:42:28Z</time>
      </trkpt>
      <trkpt lat="42.58191" lon="1.85122">
        <ele>2477.45</ele>
        <time>2025-02-16T11:42:46Z</time>
      </trkpt>
      <trkpt lat="42.58192" lon="1.85113">
        <ele>2474.09</ele>
        <time>2025-02-16T11:42:59Z</time>
      </trkpt>
      <trkpt lat="42.58193" lon="1.85103">
        <ele>2471.21</ele>
        <time>2025-02-16T11:43:12Z</time>
      </trkpt>
      <trkpt lat="42.58195" lon="1.85097">
        <ele>2469.76</ele>
        <time>2025-02-16T11:43:32Z</time>
      </trkpt>
      <trkpt lat="42.58195" lon="1.85087">
        <ele>2466.88</ele>
        <time>2025-02-16T11:43:47Z</time>
      </trkpt>
      <trkpt lat="42.58197" lon="1.85078">
        <ele>2463.52</ele>
        <time>2025-02-16T11:44:02Z</time>
      </trkpt>
      <trkpt lat="42.58201" lon="1.85068">
        <ele>2460.63</ele>
        <time>2025-02-16T11:44:15Z</time>
      </trkpt>
      <trkpt lat="42.58202" lon="1.85058">
        <ele>2457.27</ele>
        <time>2025-02-16T11:44:30Z</time>
      </trkpt>
      <trkpt lat="42.58199" lon="1.85049">
        <ele>2455.34</ele>
        <time>2025-02-16T11:44:48Z</time>
      </trkpt>
      <trkpt lat="42.58197" lon="1.85045">
        <ele>2453.9</ele>
        <time>2025-02-16T11:45:12Z</time>
      </trkpt>
      <trkpt lat="42.58194" lon="1.85034">
        <ele>2450.54</ele>
        <time>2025-02-16T11:45:27Z</time>
      </trkpt>
      <trkpt lat="42.58187" lon="1.8502">
        <ele>2447.65</ele>
        <time>2025-02-16T11:45:44Z</time>
      </trkpt>
      <trkpt lat="42.58181" lon="1.85005">
        <ele>2445.73</ele>
        <time>2025-02-16T11:46:02Z</time>
      </trkpt>
      <trkpt lat="42.58178" lon="1.84988">
        <ele>2444.29</ele>
        <time>2025-02-16T11:46:17Z</time>
      </trkpt>
      <trkpt lat="42.58177" lon="1.84968">
        <ele>2442.85</ele>
        <time>2025-02-16T11:46:37Z</time>
      </trkpt>
      <trkpt lat="42.58175" lon="1.84965">
        <ele>2442.37</ele>
        <time>2025-02-16T11:46:59Z</time>
      </trkpt>
      <trkpt lat="42.58171" lon="1.84956">
        <ele>2441.89</ele>
        <time>2025-02-16T11:47:23Z</time>
      </trkpt>
      <trkpt lat="42.58168" lon="1.84936">
        <ele>2439.48</ele>
        <time>2025-02-16T11:47:43Z</time>
      </trkpt>
      <trkpt lat="42.58164" lon="1.84918">
        <ele>2436.12</ele>
        <time>2025-02-16T11:48:01Z</time>
      </trkpt>
      <trkpt lat="42.58164" lon="1.84915">
        <ele>2436.12</ele>
        <time>2025-02-16T11:48:03Z</time>
      </trkpt>
      <trkpt lat="42.58159" lon="1.84895">
        <ele>2433.23</ele>
        <time>2025-02-16T11:48:19Z</time>
      </trkpt>
      <trkpt lat="42.58149" lon="1.84874">
        <ele>2431.79</ele>
        <time>2025-02-16T11:48:38Z</time>
      </trkpt>
      <trkpt lat="42.58143" lon="1.84856">
        <ele>2431.31</ele>
        <time>2025-02-16T11:48:53Z</time>
      </trkpt>
      <trkpt lat="42.58136" lon="1.84835">
        <ele>2429.87</ele>
        <time>2025-02-16T11:49:09Z</time>
      </trkpt>
      <trkpt lat="42.58131" lon="1.84816">
        <ele>2428.91</ele>
        <time>2025-02-16T11:49:25Z</time>
      </trkpt>
      <trkpt lat="42.58122" lon="1.84797">
        <ele>2426.99</ele>
        <time>2025-02-16T11:49:42Z</time>
      </trkpt>
      <trkpt lat="42.58116" lon="1.84781">
        <ele>2426.02</ele>
        <time>2025-02-16T11:49:56Z</time>
      </trkpt>
      <trkpt lat="42.58107" lon="1.84756">
        <ele>2424.1</ele>
        <time>2025-02-16T11:50:15Z</time>
      </trkpt>
      <trkpt lat="42.58099" lon="1.84732">
        <ele>2421.7</ele>
        <time>2025-02-16T11:50:35Z</time>
      </trkpt>
      <trkpt lat="42.58094" lon="1.84715">
        <ele>2419.78</ele>
        <time>2025-02-16T11:50:50Z</time>
      </trkpt>
      <trkpt lat="42.58087" lon="1.84693">
        <ele>2418.33</ele>
        <time>2025-02-16T11:51:08Z</time>
      </trkpt>
      <trkpt lat="42.58081" lon="1.84671">
        <ele>2417.85</ele>
        <time>2025-02-16T11:51:25Z</time>
      </trkpt>
      <trkpt lat="42.58072" lon="1.84652">
        <ele>2417.37</ele>
        <time>2025-02-16T11:51:41Z</time>
      </trkpt>
      <trkpt lat="42.58065" lon="1.84632">
        <ele>2415.93</ele>
        <time>2025-02-16T11:51:57Z</time>
      </trkpt>
      <trkpt lat="42.58052" lon="1.84614">
        <ele>2415.93</ele>
        <time>2025-02-16T11:52:14Z</time>
      </trkpt>
      <trkpt lat="42.58042" lon="1.84601">
        <ele>2415.45</ele>
        <time>2025-02-16T11:52:31Z</time>
      </trkpt>
      <trkpt lat="42.58041" lon="1.84597">
        <ele>2414.97</ele>
        <time>2025-02-16T11:53:00Z</time>
      </trkpt>
      <trkpt lat="42.58042" lon="1.84597">
        <ele>2414.97</ele>
        <time>2025-02-16T11:53:30Z</time>
      </trkpt>
      <trkpt lat="42.58044" lon="1.846">
        <ele>2414.97</ele>
        <time>2025-02-16T11:54:04Z</time>
      </trkpt>
      <trkpt lat="42.58043" lon="1.846">
        <ele>2414.97</ele>
        <time>2025-02-16T11:54:38Z</time>
      </trkpt>
      <trkpt lat="42.58039" lon="1.84597">
        <ele>2414.97</ele>
        <time>2025-02-16T11:55:16Z</time>
      </trkpt>
      <trkpt lat="42.58038" lon="1.84601">
        <ele>2414.97</ele>
        <time>2025-02-16T11:55:51Z</time>
      </trkpt>
      <trkpt lat="42.58042" lon="1.84598">
        <ele>2414.97</ele>
        <time>2025-02-16T11:56:21Z</time>
      </trkpt>
      <trkpt lat="42.58042" lon="1.84597">
        <ele>2414.97</ele>
        <time>2025-02-16T11:56:55Z</time>
      </trkpt>
      <trkpt lat="42.58041" lon="1.84599">
        <ele>2414.97</ele>
        <time>2025-02-16T11:57:33Z</time>
      </trkpt>
      <trkpt lat="42.58038" lon="1.846">
        <ele>2414.97</ele>
        <time>2025-02-16T11:58:05Z</time>
      </trkpt>
      <trkpt lat="42.58037" lon="1.84592">
        <ele>2414.97</ele>
        <time>2025-02-16T11:58:29Z</time>
      </trkpt>
      <trkpt lat="42.5803" lon="1.84581">
        <ele>2414.01</ele>
        <time>2025-02-16T11:58:45Z</time>
      </trkpt>
      <trkpt lat="42.58025" lon="1.8457">
        <ele>2413.05</ele>
        <time>2025-02-16T11:59:02Z</time>
      </trkpt>
      <trkpt lat="42.58012" lon="1.84571">
        <ele>2414.01</ele>
        <time>2025-02-16T11:59:19Z</time>
      </trkpt>
      <trkpt lat="42.58005" lon="1.84571">
        <ele>2415.93</ele>
        <time>2025-02-16T11:59:38Z</time>
      </trkpt>
      <trkpt lat="42.58001" lon="1.8457">
        <ele>2416.89</ele>
        <time>2025-02-16T11:59:57Z</time>
      </trkpt>
      <trkpt lat="42.57994" lon="1.84568">
        <ele>2418.33</ele>
        <time>2025-02-16T12:00:16Z</time>
      </trkpt>
      <trkpt lat="42.57997" lon="1.84564">
        <ele>2418.81</ele>
        <time>2025-02-16T12:00:45Z</time>
      </trkpt>
      <trkpt lat="42.57998" lon="1.84563">
        <ele>2418.81</ele>
        <time>2025-02-16T12:01:14Z</time>
      </trkpt>
      <trkpt lat="42.5799" lon="1.84562">
        <ele>2417.85</ele>
        <time>2025-02-16T12:01:32Z</time>
      </trkpt>
      <trkpt lat="42.57989" lon="1.84562">
        <ele>2417.85</ele>
        <time>2025-02-16T12:01:33Z</time>
      </trkpt>
      <trkpt lat="42.57974" lon="1.84557">
        <ele>2416.41</ele>
        <time>2025-02-16T12:01:53Z</time>
      </trkpt>
      <trkpt lat="42.5796" lon="1.84554">
        <ele>2414.01</ele>
        <time>2025-02-16T12:02:12Z</time>
      </trkpt>
      <trkpt lat="42.57943" lon="1.8455">
        <ele>2411.12</ele>
        <time>2025-02-16T12:02:33Z</time>
      </trkpt>
      <trkpt lat="42.5793" lon="1.84545">
        <ele>2411.12</ele>
        <time>2025-02-16T12:02:52Z</time>
      </trkpt>
      <trkpt lat="42.57917" lon="1.84537">
        <ele>2411.12</ele>
        <time>2025-02-16T12:03:11Z</time>
      </trkpt>
      <trkpt lat="42.57903" lon="1.84529">
        <ele>2411.12</ele>
        <time>2025-02-16T12:03:31Z</time>
      </trkpt>
      <trkpt lat="42.57893" lon="1.84523">
        <ele>2410.16</ele>
        <time>2025-02-16T12:03:48Z</time>
      </trkpt>
      <trkpt lat="42.57884" lon="1.84518">
        <ele>2407.76</ele>
        <time>2025-02-16T12:04:04Z</time>
      </trkpt>
      <trkpt lat="42.57876" lon="1.84508">
        <ele>2405.36</ele>
        <time>2025-02-16T12:04:20Z</time>
      </trkpt>
      <trkpt lat="42.57872" lon="1.84494">
        <ele>2403.91</ele>
        <time>2025-02-16T12:04:35Z</time>
      </trkpt>
      <trkpt lat="42.57864" lon="1.84482">
        <ele>2401.51</ele>
        <time>2025-02-16T12:04:51Z</time>
      </trkpt>
      <trkpt lat="42.5786" lon="1.84467">
        <ele>2398.63</ele>
        <time>2025-02-16T12:05:08Z</time>
      </trkpt>
      <trkpt lat="42.57857" lon="1.84457">
        <ele>2395.74</ele>
        <time>2025-02-16T12:05:22Z</time>
      </trkpt>
      <trkpt lat="42.57855" lon="1.84446">
        <ele>2392.38</ele>
        <time>2025-02-16T12:05:38Z</time>
      </trkpt>
      <trkpt lat="42.57854" lon="1.84441">
        <ele>2390.46</ele>
        <time>2025-02-16T12:05:59Z</time>
      </trkpt>
      <trkpt lat="42.57853" lon="1.84433">
        <ele>2386.61</ele>
        <time>2025-02-16T12:06:16Z</time>
      </trkpt>
      <trkpt lat="42.57852" lon="1.84425">
        <ele>2383.73</ele>
        <time>2025-02-16T12:06:30Z</time>
      </trkpt>
      <trkpt lat="42.5785" lon="1.84414">
        <ele>2379.88</ele>
        <time>2025-02-16T12:06:46Z</time>
      </trkpt>
      <trkpt lat="42.57849" lon="1.84404">
        <ele>2376.52</ele>
        <time>2025-02-16T12:07:00Z</time>
      </trkpt>
      <trkpt lat="42.57846" lon="1.84395">
        <ele>2373.63</ele>
        <time>2025-02-16T12:07:13Z</time>
      </trkpt>
      <trkpt lat="42.57844" lon="1.84385">
        <ele>2370.27</ele>
        <time>2025-02-16T12:07:26Z</time>
      </trkpt>
      <trkpt lat="42.57841" lon="1.84375">
        <ele>2366.9</ele>
        <time>2025-02-16T12:07:39Z</time>
      </trkpt>
      <trkpt lat="42.57837" lon="1.84364">
        <ele>2363.54</ele>
        <time>2025-02-16T12:07:55Z</time>
      </trkpt>
      <trkpt lat="42.57836" lon="1.84355">
        <ele>2360.65</ele>
        <time>2025-02-16T12:08:09Z</time>
      </trkpt>
      <trkpt lat="42.57835" lon="1.84345">
        <ele>2357.29</ele>
        <time>2025-02-16T12:08:23Z</time>
      </trkpt>
      <trkpt lat="42.57833" lon="1.84334">
        <ele>2354.41</ele>
        <time>2025-02-16T12:08:39Z</time>
      </trkpt>
      <trkpt lat="42.5783" lon="1.8432">
        <ele>2351.52</ele>
        <time>2025-02-16T12:08:56Z</time>
      </trkpt>
      <trkpt lat="42.57829" lon="1.84318">
        <ele>2350.56</ele>
        <time>2025-02-16T12:09:16Z</time>
      </trkpt>
      <trkpt lat="42.57828" lon="1.84317">
        <ele>2350.56</ele>
        <time>2025-02-16T12:09:51Z</time>
      </trkpt>
      <trkpt lat="42.57829" lon="1.84317">
        <ele>2350.08</ele>
        <time>2025-02-16T12:10:26Z</time>
      </trkpt>
      <trkpt lat="42.57829" lon="1.84316">
        <ele>2349.6</ele>
        <time>2025-02-16T12:10:55Z</time>
      </trkpt>
      <trkpt lat="42.57826" lon="1.84301">
        <ele>2346.23</ele>
        <time>2025-02-16T12:11:08Z</time>
      </trkpt>
      <trkpt lat="42.57823" lon="1.84286">
        <ele>2343.83</ele>
        <time>2025-02-16T12:11:25Z</time>
      </trkpt>
      <trkpt lat="42.57818" lon="1.84276">
        <ele>2340.47</ele>
        <time>2025-02-16T12:11:39Z</time>
      </trkpt>
      <trkpt lat="42.57812" lon="1.84265">
        <ele>2337.1</ele>
        <time>2025-02-16T12:11:54Z</time>
      </trkpt>
      <trkpt lat="42.57806" lon="1.84254">
        <ele>2333.74</ele>
        <time>2025-02-16T12:12:10Z</time>
      </trkpt>
      <trkpt lat="42.57799" lon="1.84244">
        <ele>2330.37</ele>
        <time>2025-02-16T12:12:24Z</time>
      </trkpt>
      <trkpt lat="42.57792" lon="1.84233">
        <ele>2327.97</ele>
        <time>2025-02-16T12:12:40Z</time>
      </trkpt>
      <trkpt lat="42.57788" lon="1.84222">
        <ele>2325.09</ele>
        <time>2025-02-16T12:12:53Z</time>
      </trkpt>
      <trkpt lat="42.57782" lon="1.84203">
        <ele>2322.68</ele>
        <time>2025-02-16T12:13:11Z</time>
      </trkpt>
      <trkpt lat="42.57777" lon="1.84188">
        <ele>2319.8</ele>
        <time>2025-02-16T12:13:28Z</time>
      </trkpt>
      <trkpt lat="42.57772" lon="1.84174">
        <ele>2316.43</ele>
        <time>2025-02-16T12:13:45Z</time>
      </trkpt>
      <trkpt lat="42.57772" lon="1.84163">
        <ele>2313.07</ele>
        <time>2025-02-16T12:14:01Z</time>
      </trkpt>
      <trkpt lat="42.5777" lon="1.84153">
        <ele>2310.19</ele>
        <time>2025-02-16T12:14:14Z</time>
      </trkpt>
      <trkpt lat="42.5777" lon="1.84142">
        <ele>2306.82</ele>
        <time>2025-02-16T12:14:27Z</time>
      </trkpt>
      <trkpt lat="42.57768" lon="1.8413">
        <ele>2303.46</ele>
        <time>2025-02-16T12:14:41Z</time>
      </trkpt>
      <trkpt lat="42.57767" lon="1.84117">
        <ele>2300.09</ele>
        <time>2025-02-16T12:14:54Z</time>
      </trkpt>
      <trkpt lat="42.57766" lon="1.84103">
        <ele>2296.73</ele>
        <time>2025-02-16T12:15:08Z</time>
      </trkpt>
      <trkpt lat="42.57765" lon="1.84088">
        <ele>2293.84</ele>
        <time>2025-02-16T12:15:23Z</time>
      </trkpt>
      <trkpt lat="42.57763" lon="1.84072">
        <ele>2290.48</ele>
        <time>2025-02-16T12:15:38Z</time>
      </trkpt>
      <trkpt lat="42.57763" lon="1.84063">
        <ele>2287.59</ele>
        <time>2025-02-16T12:15:51Z</time>
      </trkpt>
      <trkpt lat="42.57762" lon="1.84048">
        <ele>2283.75</ele>
        <time>2025-02-16T12:16:08Z</time>
      </trkpt>
      <trkpt lat="42.57762" lon="1.84034">
        <ele>2280.87</ele>
        <time>2025-02-16T12:16:23Z</time>
      </trkpt>
      <trkpt lat="42.57762" lon="1.84017">
        <ele>2277.02</ele>
        <time>2025-02-16T12:16:40Z</time>
      </trkpt>
      <trkpt lat="42.57762" lon="1.84008">
        <ele>2275.58</ele>
        <time>2025-02-16T12:16:56Z</time>
      </trkpt>
      <trkpt lat="42.57758" lon="1.84007">
        <ele>2275.58</ele>
        <time>2025-02-16T12:17:36Z</time>
      </trkpt>
      <trkpt lat="42.57758" lon="1.8401">
        <ele>2274.62</ele>
        <time>2025-02-16T12:18:13Z</time>
      </trkpt>
      <trkpt lat="42.57759" lon="1.84009">
        <ele>2274.62</ele>
        <time>2025-02-16T12:18:34Z</time>
      </trkpt>
      <trkpt lat="42.57753" lon="1.84011">
        <ele>2274.62</ele>
        <time>2025-02-16T12:19:12Z</time>
      </trkpt>
      <trkpt lat="42.57754" lon="1.84013">
        <ele>2274.62</ele>
        <time>2025-02-16T12:19:47Z</time>
      </trkpt>
      <trkpt lat="42.57757" lon="1.84007">
        <ele>2274.62</ele>
        <time>2025-02-16T12:20:30Z</time>
      </trkpt>
      <trkpt lat="42.57759" lon="1.84006">
        <ele>2274.62</ele>
        <time>2025-02-16T12:21:07Z</time>
      </trkpt>
      <trkpt lat="42.57757" lon="1.84003">
        <ele>2274.62</ele>
        <time>2025-02-16T12:21:37Z</time>
      </trkpt>
      <trkpt lat="42.57758" lon="1.84003">
        <ele>2274.62</ele>
        <time>2025-02-16T12:22:06Z</time>
      </trkpt>
      <trkpt lat="42.57758" lon="1.83997">
        <ele>2274.14</ele>
        <time>2025-02-16T12:22:26Z</time>
      </trkpt>
      <trkpt lat="42.57757" lon="1.83995">
        <ele>2273.66</ele>
        <time>2025-02-16T12:22:53Z</time>
      </trkpt>
      <trkpt lat="42.57756" lon="1.83989">
        <ele>2271.73</ele>
        <time>2025-02-16T12:23:18Z</time>
      </trkpt>
      <trkpt lat="42.57755" lon="1.83976">
        <ele>2268.85</ele>
        <time>2025-02-16T12:23:36Z</time>
      </trkpt>
      <trkpt lat="42.57751" lon="1.83976">
        <ele>2268.37</ele>
        <time>2025-02-16T12:24:02Z</time>
      </trkpt>
      <trkpt lat="42.57753" lon="1.83962">
        <ele>2265.48</ele>
        <time>2025-02-16T12:24:20Z</time>
      </trkpt>
      <trkpt lat="42.57754" lon="1.8395">
        <ele>2262.6</ele>
        <time>2025-02-16T12:24:35Z</time>
      </trkpt>
      <trkpt lat="42.57753" lon="1.83943">
        <ele>2259.24</ele>
        <time>2025-02-16T12:24:49Z</time>
      </trkpt>
      <trkpt lat="42.5775" lon="1.83939">
        <ele>2258.27</ele>
        <time>2025-02-16T12:25:10Z</time>
      </trkpt>
      <trkpt lat="42.5775" lon="1.83932">
        <ele>2257.31</ele>
        <time>2025-02-16T12:25:34Z</time>
      </trkpt>
      <trkpt lat="42.5775" lon="1.8393">
        <ele>2255.87</ele>
        <time>2025-02-16T12:25:55Z</time>
      </trkpt>
      <trkpt lat="42.5775" lon="1.8392">
        <ele>2253.47</ele>
        <time>2025-02-16T12:26:14Z</time>
      </trkpt>
      <trkpt lat="42.57751" lon="1.83908">
        <ele>2250.1</ele>
        <time>2025-02-16T12:26:29Z</time>
      </trkpt>
      <trkpt lat="42.57752" lon="1.83895">
        <ele>2246.74</ele>
        <time>2025-02-16T12:26:45Z</time>
      </trkpt>
      <trkpt lat="42.57753" lon="1.83877">
        <ele>2243.85</ele>
        <time>2025-02-16T12:27:04Z</time>
      </trkpt>
      <trkpt lat="42.57755" lon="1.83864">
        <ele>2240.97</ele>
        <time>2025-02-16T12:27:18Z</time>
      </trkpt>
      <trkpt lat="42.57759" lon="1.83854">
        <ele>2238.57</ele>
        <time>2025-02-16T12:27:39Z</time>
      </trkpt>
      <trkpt lat="42.57761" lon="1.83843">
        <ele>2235.2</ele>
        <time>2025-02-16T12:27:54Z</time>
      </trkpt>
      <trkpt lat="42.57763" lon="1.83831">
        <ele>2231.84</ele>
        <time>2025-02-16T12:28:09Z</time>
      </trkpt>
      <trkpt lat="42.57763" lon="1.83823">
        <ele>2230.88</ele>
        <time>2025-02-16T12:28:29Z</time>
      </trkpt>
      <trkpt lat="42.57764" lon="1.83817">
        <ele>2229.43</ele>
        <time>2025-02-16T12:29:02Z</time>
      </trkpt>
      <trkpt lat="42.57762" lon="1.83817">
        <ele>2229.43</ele>
        <time>2025-02-16T12:29:32Z</time>
      </trkpt>
      <trkpt lat="42.57765" lon="1.83802">
        <ele>2226.07</ele>
        <time>2025-02-16T12:29:50Z</time>
      </trkpt>
      <trkpt lat="42.5777" lon="1.83786">
        <ele>2222.71</ele>
        <time>2025-02-16T12:30:08Z</time>
      </trkpt>
      <trkpt lat="42.57772" lon="1.8378">
        <ele>2221.26</ele>
        <time>2025-02-16T12:30:24Z</time>
      </trkpt>
      <trkpt lat="42.5777" lon="1.83778">
        <ele>2219.34</ele>
        <time>2025-02-16T12:30:44Z</time>
      </trkpt>
      <trkpt lat="42.57769" lon="1.83774">
        <ele>2219.34</ele>
        <time>2025-02-16T12:30:57Z</time>
      </trkpt>
      <trkpt lat="42.57771" lon="1.83774">
        <ele>2220.3</ele>
        <time>2025-02-16T12:31:02Z</time>
      </trkpt>
      <trkpt lat="42.57772" lon="1.83776">
        <ele>2220.3</ele>
        <time>2025-02-16T12:31:17Z</time>
      </trkpt>
      <trkpt lat="42.57771" lon="1.83777">
        <ele>2220.3</ele>
        <time>2025-02-16T12:31:42Z</time>
      </trkpt>
      <trkpt lat="42.5777" lon="1.83774">
        <ele>2220.3</ele>
        <time>2025-02-16T12:32:12Z</time>
      </trkpt>
      <trkpt lat="42.57771" lon="1.83771">
        <ele>2220.3</ele>
        <time>2025-02-16T12:32:58Z</time>
      </trkpt>
      <trkpt lat="42.57771" lon="1.83773">
        <ele>2220.3</ele>
        <time>2025-02-16T12:33:41Z</time>
      </trkpt>
      <trkpt lat="42.57772" lon="1.83772">
        <ele>2220.3</ele>
        <time>2025-02-16T12:34:29Z</time>
      </trkpt>
      <trkpt lat="42.57771" lon="1.83774">
        <ele>2220.78</ele>
        <time>2025-02-16T12:35:18Z</time>
      </trkpt>
      <trkpt lat="42.5777" lon="1.83772">
        <ele>2220.78</ele>
        <time>2025-02-16T12:36:04Z</time>
      </trkpt>
      <trkpt lat="42.57769" lon="1.8377">
        <ele>2219.34</ele>
        <time>2025-02-16T12:36:57Z</time>
      </trkpt>
      <trkpt lat="42.57769" lon="1.83771">
        <ele>2219.82</ele>
        <time>2025-02-16T12:37:46Z</time>
      </trkpt>
      <trkpt lat="42.57768" lon="1.83772">
        <ele>2219.82</ele>
        <time>2025-02-16T12:38:34Z</time>
      </trkpt>
      <trkpt lat="42.57767" lon="1.83774">
        <ele>2220.3</ele>
        <time>2025-02-16T12:39:19Z</time>
      </trkpt>
      <trkpt lat="42.57766" lon="1.83771">
        <ele>2220.78</ele>
        <time>2025-02-16T12:40:14Z</time>
      </trkpt>
      <trkpt lat="42.57767" lon="1.83774">
        <ele>2220.78</ele>
        <time>2025-02-16T12:41:01Z</time>
      </trkpt>
      <trkpt lat="42.57767" lon="1.83774">
        <ele>2221.26</ele>
        <time>2025-02-16T12:41:47Z</time>
      </trkpt>
      <trkpt lat="42.57765" lon="1.83774">
        <ele>2221.26</ele>
        <time>2025-02-16T12:42:32Z</time>
      </trkpt>
      <trkpt lat="42.57767" lon="1.83776">
        <ele>2221.74</ele>
        <time>2025-02-16T12:43:17Z</time>
      </trkpt>
      <trkpt lat="42.57767" lon="1.83775">
        <ele>2221.26</ele>
        <time>2025-02-16T12:44:03Z</time>
      </trkpt>
      <trkpt lat="42.57766" lon="1.83774">
        <ele>2221.74</ele>
        <time>2025-02-16T12:44:49Z</time>
      </trkpt>
      <trkpt lat="42.57768" lon="1.83775">
        <ele>2221.74</ele>
        <time>2025-02-16T12:45:32Z</time>
      </trkpt>
      <trkpt lat="42.57768" lon="1.83778">
        <ele>2221.74</ele>
        <time>2025-02-16T12:46:32Z</time>
      </trkpt>
      <trkpt lat="42.57768" lon="1.83777">
        <ele>2222.22</ele>
        <time>2025-02-16T12:47:31Z</time>
      </trkpt>
      <trkpt lat="42.57767" lon="1.83776">
        <ele>2222.22</ele>
        <time>2025-02-16T12:48:13Z</time>
      </trkpt>
      <trkpt lat="42.57766" lon="1.83777">
        <ele>2222.71</ele>
        <time>2025-02-16T12:49:03Z</time>
      </trkpt>
      <trkpt lat="42.57767" lon="1.83776">
        <ele>2222.71</ele>
        <time>2025-02-16T12:49:47Z</time>
      </trkpt>
      <trkpt lat="42.57769" lon="1.83775">
        <ele>2222.71</ele>
        <time>2025-02-16T12:50:29Z</time>
      </trkpt>
      <trkpt lat="42.57767" lon="1.83774">
        <ele>2222.71</ele>
        <time>2025-02-16T12:51:19Z</time>
      </trkpt>
      <trkpt lat="42.57765" lon="1.83773">
        <ele>2222.71</ele>
        <time>2025-02-16T12:52:13Z</time>
      </trkpt>
      <trkpt lat="42.57768" lon="1.83776">
        <ele>2222.71</ele>
        <time>2025-02-16T12:52:59Z</time>
      </trkpt>
      <trkpt lat="42.57768" lon="1.83778">
        <ele>2222.22</ele>
        <time>2025-02-16T12:53:47Z</time>
      </trkpt>
      <trkpt lat="42.57769" lon="1.83778">
        <ele>2222.22</ele>
        <time>2025-02-16T12:54:34Z</time>
      </trkpt>
      <trkpt lat="42.57768" lon="1.83778">
        <ele>2222.22</ele>
        <time>2025-02-16T12:55:16Z</time>
      </trkpt>
      <trkpt lat="42.57767" lon="1.83779">
        <ele>2221.74</ele>
        <time>2025-02-16T12:55:56Z</time>
      </trkpt>
      <trkpt lat="42.57768" lon="1.83777">
        <ele>2221.74</ele>
        <time>2025-02-16T12:56:39Z</time>
      </trkpt>
      <trkpt lat="42.57768" lon="1.83777">
        <ele>2221.74</ele>
        <time>2025-02-16T12:57:24Z</time>
      </trkpt>
      <trkpt lat="42.57767" lon="1.83777">
        <ele>2221.26</ele>
        <time>2025-02-16T12:58:13Z</time>
      </trkpt>
      <trkpt lat="42.57769" lon="1.83775">
        <ele>2221.26</ele>
        <time>2025-02-16T12:58:51Z</time>
      </trkpt>
      <trkpt lat="42.57769" lon="1.83772">
        <ele>2221.26</ele>
        <time>2025-02-16T12:59:34Z</time>
      </trkpt>
      <trkpt lat="42.5777" lon="1.83775">
        <ele>2220.78</ele>
        <time>2025-02-16T13:00:20Z</time>
      </trkpt>
      <trkpt lat="42.57772" lon="1.83775">
        <ele>2220.78</ele>
        <time>2025-02-16T13:01:01Z</time>
      </trkpt>
      <trkpt lat="42.57771" lon="1.83776">
        <ele>2222.22</ele>
        <time>2025-02-16T13:01:46Z</time>
      </trkpt>
      <trkpt lat="42.57774" lon="1.83778">
        <ele>2222.22</ele>
        <time>2025-02-16T13:02:31Z</time>
      </trkpt>
      <trkpt lat="42.57773" lon="1.83778">
        <ele>2222.22</ele>
        <time>2025-02-16T13:03:10Z</time>
      </trkpt>
      <trkpt lat="42.57771" lon="1.83775">
        <ele>2222.22</ele>
        <time>2025-02-16T13:03:46Z</time>
      </trkpt>
      <trkpt lat="42.57772" lon="1.83779">
        <ele>2222.71</ele>
        <time>2025-02-16T13:04:12Z</time>
      </trkpt>
      <trkpt lat="42.57773" lon="1.83779">
        <ele>2222.71</ele>
        <time>2025-02-16T13:04:44Z</time>
      </trkpt>
      <trkpt lat="42.57772" lon="1.83778">
        <ele>2222.71</ele>
        <time>2025-02-16T13:05:10Z</time>
      </trkpt>
      <trkpt lat="42.57771" lon="1.83779">
        <ele>2223.19</ele>
        <time>2025-02-16T13:05:36Z</time>
      </trkpt>
      <trkpt lat="42.57772" lon="1.83778">
        <ele>2223.67</ele>
        <time>2025-02-16T13:05:49Z</time>
      </trkpt>
      <trkpt lat="42.57772" lon="1.83781">
        <ele>2223.67</ele>
        <time>2025-02-16T13:06:16Z</time>
      </trkpt>
      <trkpt lat="42.57771" lon="1.83774">
        <ele>2224.15</ele>
        <time>2025-02-16T13:06:38Z</time>
      </trkpt>
      <trkpt lat="42.57772" lon="1.83772">
        <ele>2222.71</ele>
        <time>2025-02-16T13:06:56Z</time>
      </trkpt>
      <trkpt lat="42.57773" lon="1.83762">
        <ele>2221.26</ele>
        <time>2025-02-16T13:07:07Z</time>
      </trkpt>
      <trkpt lat="42.5777" lon="1.83751">
        <ele>2219.34</ele>
        <time>2025-02-16T13:07:17Z</time>
      </trkpt>
      <trkpt lat="42.57767" lon="1.83735">
        <ele>2216.94</ele>
        <time>2025-02-16T13:07:31Z</time>
      </trkpt>
      <trkpt lat="42.57763" lon="1.83723">
        <ele>2214.53</ele>
        <time>2025-02-16T13:07:45Z</time>
      </trkpt>
      <trkpt lat="42.5776" lon="1.83713">
        <ele>2213.09</ele>
        <time>2025-02-16T13:07:56Z</time>
      </trkpt>
      <trkpt lat="42.57753" lon="1.837">
        <ele>2211.17</ele>
        <time>2025-02-16T13:08:11Z</time>
      </trkpt>
      <trkpt lat="42.57749" lon="1.83692">
        <ele>2210.21</ele>
        <time>2025-02-16T13:08:24Z</time>
      </trkpt>
      <trkpt lat="42.57743" lon="1.83681">
        <ele>2207.32</ele>
        <time>2025-02-16T13:08:38Z</time>
      </trkpt>
      <trkpt lat="42.57739" lon="1.83671">
        <ele>2205.88</ele>
        <time>2025-02-16T13:08:50Z</time>
      </trkpt>
      <trkpt lat="42.57738" lon="1.83668">
        <ele>2205.4</ele>
        <time>2025-02-16T13:09:02Z</time>
      </trkpt>
      <trkpt lat="42.57735" lon="1.83659">
        <ele>2203.48</ele>
        <time>2025-02-16T13:09:15Z</time>
      </trkpt>
      <trkpt lat="42.57733" lon="1.83653">
        <ele>2202.52</ele>
        <time>2025-02-16T13:09:29Z</time>
      </trkpt>
      <trkpt lat="42.57725" lon="1.83637">
        <ele>2200.11</ele>
        <time>2025-02-16T13:09:45Z</time>
      </trkpt>
      <trkpt lat="42.57719" lon="1.83624">
        <ele>2198.19</ele>
        <time>2025-02-16T13:09:59Z</time>
      </trkpt>
      <trkpt lat="42.57713" lon="1.83609">
        <ele>2196.27</ele>
        <time>2025-02-16T13:10:15Z</time>
      </trkpt>
      <trkpt lat="42.57707" lon="1.83594">
        <ele>2194.83</ele>
        <time>2025-02-16T13:10:29Z</time>
      </trkpt>
      <trkpt lat="42.57703" lon="1.83582">
        <ele>2193.87</ele>
        <time>2025-02-16T13:10:42Z</time>
      </trkpt>
      <trkpt lat="42.57698" lon="1.83571">
        <ele>2192.42</ele>
        <time>2025-02-16T13:10:55Z</time>
      </trkpt>
      <trkpt lat="42.57692" lon="1.83559">
        <ele>2191.46</ele>
        <time>2025-02-16T13:11:08Z</time>
      </trkpt>
      <trkpt lat="42.57688" lon="1.83545">
        <ele>2190.5</ele>
        <time>2025-02-16T13:11:22Z</time>
      </trkpt>
      <trkpt lat="42.57684" lon="1.83536">
        <ele>2189.54</ele>
        <time>2025-02-16T13:11:35Z</time>
      </trkpt>
      <trkpt lat="42.57682" lon="1.83525">
        <ele>2188.1</ele>
        <time>2025-02-16T13:11:47Z</time>
      </trkpt>
      <trkpt lat="42.5768" lon="1.83509">
        <ele>2187.14</ele>
        <time>2025-02-16T13:12:02Z</time>
      </trkpt>
      <trkpt lat="42.57675" lon="1.83495">
        <ele>2186.18</ele>
        <time>2025-02-16T13:12:17Z</time>
      </trkpt>
      <trkpt lat="42.57668" lon="1.83479">
        <ele>2185.21</ele>
        <time>2025-02-16T13:12:32Z</time>
      </trkpt>
      <trkpt lat="42.57665" lon="1.83465">
        <ele>2184.25</ele>
        <time>2025-02-16T13:12:45Z</time>
      </trkpt>
      <trkpt lat="42.5766" lon="1.83451">
        <ele>2182.81</ele>
        <time>2025-02-16T13:12:58Z</time>
      </trkpt>
      <trkpt lat="42.57654" lon="1.83435">
        <ele>2180.89</ele>
        <time>2025-02-16T13:13:14Z</time>
      </trkpt>
      <trkpt lat="42.57651" lon="1.83422">
        <ele>2179.93</ele>
        <time>2025-02-16T13:13:26Z</time>
      </trkpt>
      <trkpt lat="42.57644" lon="1.83405">
        <ele>2178.48</ele>
        <time>2025-02-16T13:13:41Z</time>
      </trkpt>
      <trkpt lat="42.5764" lon="1.8339">
        <ele>2178.48</ele>
        <time>2025-02-16T13:13:55Z</time>
      </trkpt>
      <trkpt lat="42.57635" lon="1.83374">
        <ele>2176.56</ele>
        <time>2025-02-16T13:14:10Z</time>
      </trkpt>
      <trkpt lat="42.57632" lon="1.8336">
        <ele>2176.08</ele>
        <time>2025-02-16T13:14:25Z</time>
      </trkpt>
      <trkpt lat="42.57624" lon="1.83349">
        <ele>2175.12</ele>
        <time>2025-02-16T13:14:36Z</time>
      </trkpt>
      <trkpt lat="42.57622" lon="1.83344">
        <ele>2175.12</ele>
        <time>2025-02-16T13:14:39Z</time>
      </trkpt>
      <trkpt lat="42.57611" lon="1.83329">
        <ele>2173.2</ele>
        <time>2025-02-16T13:14:56Z</time>
      </trkpt>
      <trkpt lat="42.57606" lon="1.83322">
        <ele>2172.72</ele>
        <time>2025-02-16T13:15:05Z</time>
      </trkpt>
      <trkpt lat="42.57597" lon="1.83311">
        <ele>2171.27</ele>
        <time>2025-02-16T13:15:21Z</time>
      </trkpt>
      <trkpt lat="42.57597" lon="1.83311">
        <ele>2172.72</ele>
        <time>2025-02-16T13:15:23Z</time>
      </trkpt>
      <trkpt lat="42.57597" lon="1.83311">
        <ele>2171.27</ele>
        <time>2025-02-16T13:15:27Z</time>
      </trkpt>
      <trkpt lat="42.57597" lon="1.8331">
        <ele>2171.27</ele>
        <time>2025-02-16T13:15:35Z</time>
      </trkpt>
      <trkpt lat="42.57592" lon="1.83301">
        <ele>2169.83</ele>
        <time>2025-02-16T13:15:47Z</time>
      </trkpt>
      <trkpt lat="42.57583" lon="1.83295">
        <ele>2168.39</ele>
        <time>2025-02-16T13:16:02Z</time>
      </trkpt>
      <trkpt lat="42.57572" lon="1.83283">
        <ele>2167.91</ele>
        <time>2025-02-16T13:16:17Z</time>
      </trkpt>
      <trkpt lat="42.5756" lon="1.83268">
        <ele>2165.99</ele>
        <time>2025-02-16T13:16:34Z</time>
      </trkpt>
      <trkpt lat="42.57552" lon="1.83254">
        <ele>2165.03</ele>
        <time>2025-02-16T13:16:48Z</time>
      </trkpt>
      <trkpt lat="42.57545" lon="1.83243">
        <ele>2164.06</ele>
        <time>2025-02-16T13:17:01Z</time>
      </trkpt>
      <trkpt lat="42.5754" lon="1.83235">
        <ele>2162.62</ele>
        <time>2025-02-16T13:17:09Z</time>
      </trkpt>
      <trkpt lat="42.57532" lon="1.83223">
        <ele>2160.7</ele>
        <time>2025-02-16T13:17:24Z</time>
      </trkpt>
      <trkpt lat="42.57526" lon="1.83206">
        <ele>2158.3</ele>
        <time>2025-02-16T13:17:40Z</time>
      </trkpt>
      <trkpt lat="42.57519" lon="1.8319">
        <ele>2156.86</ele>
        <time>2025-02-16T13:17:56Z</time>
      </trkpt>
      <trkpt lat="42.57512" lon="1.83176">
        <ele>2155.41</ele>
        <time>2025-02-16T13:18:10Z</time>
      </trkpt>
      <trkpt lat="42.57508" lon="1.83162">
        <ele>2153.97</ele>
        <time>2025-02-16T13:18:25Z</time>
      </trkpt>
      <trkpt lat="42.57507" lon="1.83162">
        <ele>2153.97</ele>
        <time>2025-02-16T13:18:26Z</time>
      </trkpt>
      <trkpt lat="42.57501" lon="1.83156">
        <ele>2153.49</ele>
        <time>2025-02-16T13:18:38Z</time>
      </trkpt>
      <trkpt lat="42.57486" lon="1.83156">
        <ele>2152.53</ele>
        <time>2025-02-16T13:18:55Z</time>
      </trkpt>
      <trkpt lat="42.57475" lon="1.8315">
        <ele>2153.01</ele>
        <time>2025-02-16T13:19:10Z</time>
      </trkpt>
      <trkpt lat="42.57467" lon="1.83138">
        <ele>2151.57</ele>
        <time>2025-02-16T13:19:24Z</time>
      </trkpt>
      <trkpt lat="42.57465" lon="1.83136">
        <ele>2151.09</ele>
        <time>2025-02-16T13:19:29Z</time>
      </trkpt>
      <trkpt lat="42.57456" lon="1.83123">
        <ele>2150.13</ele>
        <time>2025-02-16T13:19:46Z</time>
      </trkpt>
      <trkpt lat="42.57448" lon="1.83114">
        <ele>2150.61</ele>
        <time>2025-02-16T13:20:00Z</time>
      </trkpt>
      <trkpt lat="42.57438" lon="1.83105">
        <ele>2149.65</ele>
        <time>2025-02-16T13:20:14Z</time>
      </trkpt>
      <trkpt lat="42.57429" lon="1.83091">
        <ele>2148.2</ele>
        <time>2025-02-16T13:20:29Z</time>
      </trkpt>
      <trkpt lat="42.57426" lon="1.83084">
        <ele>2148.2</ele>
        <time>2025-02-16T13:20:42Z</time>
      </trkpt>
      <trkpt lat="42.57426" lon="1.83075">
        <ele>2146.28</ele>
        <time>2025-02-16T13:20:55Z</time>
      </trkpt>
      <trkpt lat="42.57418" lon="1.83061">
        <ele>2143.4</ele>
        <time>2025-02-16T13:21:11Z</time>
      </trkpt>
      <trkpt lat="42.57414" lon="1.83054">
        <ele>2142.92</ele>
        <time>2025-02-16T13:21:21Z</time>
      </trkpt>
      <trkpt lat="42.57406" lon="1.8304">
        <ele>2140.99</ele>
        <time>2025-02-16T13:21:35Z</time>
      </trkpt>
      <trkpt lat="42.57399" lon="1.83024">
        <ele>2138.59</ele>
        <time>2025-02-16T13:21:51Z</time>
      </trkpt>
      <trkpt lat="42.57394" lon="1.83008">
        <ele>2136.67</ele>
        <time>2025-02-16T13:22:04Z</time>
      </trkpt>
      <trkpt lat="42.57389" lon="1.82993">
        <ele>2135.23</ele>
        <time>2025-02-16T13:22:17Z</time>
      </trkpt>
      <trkpt lat="42.57384" lon="1.8298">
        <ele>2133.3</ele>
        <time>2025-02-16T13:22:30Z</time>
      </trkpt>
      <trkpt lat="42.57378" lon="1.82964">
        <ele>2132.34</ele>
        <time>2025-02-16T13:22:46Z</time>
      </trkpt>
      <trkpt lat="42.57372" lon="1.82949">
        <ele>2131.86</ele>
        <time>2025-02-16T13:23:01Z</time>
      </trkpt>
      <trkpt lat="42.57366" lon="1.82933">
        <ele>2130.9</ele>
        <time>2025-02-16T13:23:16Z</time>
      </trkpt>
      <trkpt lat="42.5736" lon="1.82921">
        <ele>2129.46</ele>
        <time>2025-02-16T13:23:31Z</time>
      </trkpt>
      <trkpt lat="42.57354" lon="1.82909">
        <ele>2127.53</ele>
        <time>2025-02-16T13:23:47Z</time>
      </trkpt>
      <trkpt lat="42.57349" lon="1.82898">
        <ele>2125.13</ele>
        <time>2025-02-16T13:24:00Z</time>
      </trkpt>
      <trkpt lat="42.57343" lon="1.8289">
        <ele>2123.69</ele>
        <time>2025-02-16T13:24:13Z</time>
      </trkpt>
      <trkpt lat="42.57338" lon="1.82879">
        <ele>2121.29</ele>
        <time>2025-02-16T13:24:25Z</time>
      </trkpt>
      <trkpt lat="42.57336" lon="1.82877">
        <ele>2121.29</ele>
        <time>2025-02-16T13:24:27Z</time>
      </trkpt>
      <trkpt lat="42.57334" lon="1.82874">
        <ele>2120.32</ele>
        <time>2025-02-16T13:24:30Z</time>
      </trkpt>
      <trkpt lat="42.57327" lon="1.82863">
        <ele>2119.84</ele>
        <time>2025-02-16T13:24:39Z</time>
      </trkpt>
      <trkpt lat="42.57325" lon="1.82861">
        <ele>2119.84</ele>
        <time>2025-02-16T13:24:42Z</time>
      </trkpt>
      <trkpt lat="42.57311" lon="1.82842">
        <ele>2118.4</ele>
        <time>2025-02-16T13:25:01Z</time>
      </trkpt>
      <trkpt lat="42.57309" lon="1.82839">
        <ele>2118.4</ele>
        <time>2025-02-16T13:25:05Z</time>
      </trkpt>
      <trkpt lat="42.57301" lon="1.82816">
        <ele>2117.44</ele>
        <time>2025-02-16T13:25:21Z</time>
      </trkpt>
      <trkpt lat="42.57294" lon="1.82796">
        <ele>2114.56</ele>
        <time>2025-02-16T13:25:39Z</time>
      </trkpt>
      <trkpt lat="42.57291" lon="1.82789">
        <ele>2114.08</ele>
        <time>2025-02-16T13:25:45Z</time>
      </trkpt>
      <trkpt lat="42.57286" lon="1.82774">
        <ele>2112.63</ele>
        <time>2025-02-16T13:25:56Z</time>
      </trkpt>
      <trkpt lat="42.57285" lon="1.82771">
        <ele>2111.19</ele>
        <time>2025-02-16T13:25:59Z</time>
      </trkpt>
      <trkpt lat="42.57284" lon="1.82767">
        <ele>2111.19</ele>
        <time>2025-02-16T13:26:02Z</time>
      </trkpt>
      <trkpt lat="42.57282" lon="1.82761">
        <ele>2110.71</ele>
        <time>2025-02-16T13:26:07Z</time>
      </trkpt>
      <trkpt lat="42.57273" lon="1.82742">
        <ele>2109.27</ele>
        <time>2025-02-16T13:26:22Z</time>
      </trkpt>
      <trkpt lat="42.57269" lon="1.82734">
        <ele>2109.27</ele>
        <time>2025-02-16T13:26:29Z</time>
      </trkpt>
      <trkpt lat="42.5726" lon="1.82717">
        <ele>2106.87</ele>
        <time>2025-02-16T13:26:45Z</time>
      </trkpt>
      <trkpt lat="42.5725" lon="1.82698">
        <ele>2104.46</ele>
        <time>2025-02-16T13:27:02Z</time>
      </trkpt>
      <trkpt lat="42.57246" lon="1.82693">
        <ele>2104.46</ele>
        <time>2025-02-16T13:27:07Z</time>
      </trkpt>
      <trkpt lat="42.57234" lon="1.82673">
        <ele>2103.02</ele>
        <time>2025-02-16T13:27:27Z</time>
      </trkpt>
      <trkpt lat="42.57229" lon="1.82664">
        <ele>2102.06</ele>
        <time>2025-02-16T13:27:40Z</time>
      </trkpt>
      <trkpt lat="42.5722" lon="1.82649">
        <ele>2101.58</ele>
        <time>2025-02-16T13:27:55Z</time>
      </trkpt>
      <trkpt lat="42.57207" lon="1.82628">
        <ele>2099.66</ele>
        <time>2025-02-16T13:28:15Z</time>
      </trkpt>
      <trkpt lat="42.57198" lon="1.82606">
        <ele>2097.25</ele>
        <time>2025-02-16T13:28:33Z</time>
      </trkpt>
      <trkpt lat="42.57192" lon="1.82579">
        <ele>2093.89</ele>
        <time>2025-02-16T13:28:53Z</time>
      </trkpt>
      <trkpt lat="42.5719" lon="1.82574">
        <ele>2093.89</ele>
        <time>2025-02-16T13:28:57Z</time>
      </trkpt>
      <trkpt lat="42.5719" lon="1.82567">
        <ele>2093.41</ele>
        <time>2025-02-16T13:29:02Z</time>
      </trkpt>
      <trkpt lat="42.57181" lon="1.82547">
        <ele>2091.49</ele>
        <time>2025-02-16T13:29:19Z</time>
      </trkpt>
      <trkpt lat="42.57176" lon="1.82526">
        <ele>2090.04</ele>
        <time>2025-02-16T13:29:35Z</time>
      </trkpt>
      <trkpt lat="42.57173" lon="1.82521">
        <ele>2090.04</ele>
        <time>2025-02-16T13:29:40Z</time>
      </trkpt>
      <trkpt lat="42.5717" lon="1.8252">
        <ele>2088.6</ele>
        <time>2025-02-16T13:29:43Z</time>
      </trkpt>
      <trkpt lat="42.57161" lon="1.82511">
        <ele>2089.08</ele>
        <time>2025-02-16T13:30:01Z</time>
      </trkpt>
      <trkpt lat="42.57165" lon="1.82508">
        <ele>2089.08</ele>
        <time>2025-02-16T13:30:14Z</time>
      </trkpt>
      <trkpt lat="42.57163" lon="1.82503">
        <ele>2089.08</ele>
        <time>2025-02-16T13:30:34Z</time>
      </trkpt>
      <trkpt lat="42.57164" lon="1.82502">
        <ele>2089.08</ele>
        <time>2025-02-16T13:30:55Z</time>
      </trkpt>
      <trkpt lat="42.57168" lon="1.82504">
        <ele>2088.6</ele>
        <time>2025-02-16T13:31:22Z</time>
      </trkpt>
      <trkpt lat="42.57169" lon="1.82506">
        <ele>2088.6</ele>
        <time>2025-02-16T13:31:46Z</time>
      </trkpt>
      <trkpt lat="42.5717" lon="1.82506">
        <ele>2088.6</ele>
        <time>2025-02-16T13:32:11Z</time>
      </trkpt>
      <trkpt lat="42.57171" lon="1.82506">
        <ele>2088.12</ele>
        <time>2025-02-16T13:32:32Z</time>
      </trkpt>
      <trkpt lat="42.57171" lon="1.82507">
        <ele>2088.12</ele>
        <time>2025-02-16T13:32:54Z</time>
      </trkpt>
      <trkpt lat="42.5717" lon="1.82508">
        <ele>2088.12</ele>
        <time>2025-02-16T13:33:17Z</time>
      </trkpt>
      <trkpt lat="42.57167" lon="1.82502">
        <ele>2087.16</ele>
        <time>2025-02-16T13:33:28Z</time>
      </trkpt>
      <trkpt lat="42.57164" lon="1.82497">
        <ele>2086.2</ele>
        <time>2025-02-16T13:33:34Z</time>
      </trkpt>
      <trkpt lat="42.57161" lon="1.82481">
        <ele>2083.31</ele>
        <time>2025-02-16T13:33:50Z</time>
      </trkpt>
      <trkpt lat="42.57161" lon="1.82477">
        <ele>2082.35</ele>
        <time>2025-02-16T13:34:05Z</time>
      </trkpt>
      <trkpt lat="42.57153" lon="1.82469">
        <ele>2080.91</ele>
        <time>2025-02-16T13:34:19Z</time>
      </trkpt>
      <trkpt lat="42.57148" lon="1.82461">
        <ele>2079.95</ele>
        <time>2025-02-16T13:34:31Z</time>
      </trkpt>
      <trkpt lat="42.57142" lon="1.82448">
        <ele>2078.03</ele>
        <time>2025-02-16T13:34:45Z</time>
      </trkpt>
      <trkpt lat="42.57137" lon="1.82439">
        <ele>2076.59</ele>
        <time>2025-02-16T13:34:58Z</time>
      </trkpt>
      <trkpt lat="42.57133" lon="1.82419">
        <ele>2074.66</ele>
        <time>2025-02-16T13:35:14Z</time>
      </trkpt>
      <trkpt lat="42.57131" lon="1.82404">
        <ele>2071.78</ele>
        <time>2025-02-16T13:35:30Z</time>
      </trkpt>
      <trkpt lat="42.57127" lon="1.82396">
        <ele>2071.3</ele>
        <time>2025-02-16T13:35:39Z</time>
      </trkpt>
      <trkpt lat="42.57122" lon="1.82382">
        <ele>2068.89</ele>
        <time>2025-02-16T13:35:55Z</time>
      </trkpt>
      <trkpt lat="42.57118" lon="1.82368">
        <ele>2066.97</ele>
        <time>2025-02-16T13:36:08Z</time>
      </trkpt>
      <trkpt lat="42.57117" lon="1.8236">
        <ele>2066.01</ele>
        <time>2025-02-16T13:36:22Z</time>
      </trkpt>
      <trkpt lat="42.57116" lon="1.82357">
        <ele>2066.01</ele>
        <time>2025-02-16T13:36:52Z</time>
      </trkpt>
      <trkpt lat="42.57113" lon="1.82359">
        <ele>2066.01</ele>
        <time>2025-02-16T13:37:16Z</time>
      </trkpt>
      <trkpt lat="42.57115" lon="1.82363">
        <ele>2065.53</ele>
        <time>2025-02-16T13:37:32Z</time>
      </trkpt>
      <trkpt lat="42.57116" lon="1.82363">
        <ele>2065.05</ele>
        <time>2025-02-16T13:37:56Z</time>
      </trkpt>
      <trkpt lat="42.57117" lon="1.82363">
        <ele>2064.57</ele>
        <time>2025-02-16T13:38:25Z</time>
      </trkpt>
      <trkpt lat="42.57118" lon="1.82363">
        <ele>2064.57</ele>
        <time>2025-02-16T13:38:53Z</time>
      </trkpt>
      <trkpt lat="42.5712" lon="1.82363">
        <ele>2064.57</ele>
        <time>2025-02-16T13:39:17Z</time>
      </trkpt>
      <trkpt lat="42.57117" lon="1.82362">
        <ele>2064.09</ele>
        <time>2025-02-16T13:39:31Z</time>
      </trkpt>
      <trkpt lat="42.57117" lon="1.82365">
        <ele>2065.05</ele>
        <time>2025-02-16T13:39:56Z</time>
      </trkpt>
      <trkpt lat="42.57119" lon="1.82366">
        <ele>2065.05</ele>
        <time>2025-02-16T13:40:23Z</time>
      </trkpt>
      <trkpt lat="42.57119" lon="1.82367">
        <ele>2065.05</ele>
        <time>2025-02-16T13:40:35Z</time>
      </trkpt>
      <trkpt lat="42.57119" lon="1.82366">
        <ele>2063.61</ele>
        <time>2025-02-16T13:40:37Z</time>
      </trkpt>
      <trkpt lat="42.57119" lon="1.82364">
        <ele>2063.13</ele>
        <time>2025-02-16T13:41:17Z</time>
      </trkpt>
      <trkpt lat="42.57118" lon="1.82365">
        <ele>2064.09</ele>
        <time>2025-02-16T13:41:52Z</time>
      </trkpt>
      <trkpt lat="42.57117" lon="1.82363">
        <ele>2065.05</ele>
        <time>2025-02-16T13:42:09Z</time>
      </trkpt>
      <trkpt lat="42.57118" lon="1.82363">
        <ele>2065.05</ele>
        <time>2025-02-16T13:42:25Z</time>
      </trkpt>
      <trkpt lat="42.57116" lon="1.82363">
        <ele>2064.57</ele>
        <time>2025-02-16T13:42:45Z</time>
      </trkpt>
      <trkpt lat="42.57116" lon="1.82359">
        <ele>2063.61</ele>
        <time>2025-02-16T13:42:58Z</time>
      </trkpt>
      <trkpt lat="42.5711" lon="1.82343">
        <ele>2060.24</ele>
        <time>2025-02-16T13:43:14Z</time>
      </trkpt>
      <trkpt lat="42.57105" lon="1.82328">
        <ele>2059.28</ele>
        <time>2025-02-16T13:43:28Z</time>
      </trkpt>
      <trkpt lat="42.571" lon="1.82312">
        <ele>2056.4</ele>
        <time>2025-02-16T13:43:42Z</time>
      </trkpt>
      <trkpt lat="42.57097" lon="1.82307">
        <ele>2055.92</ele>
        <time>2025-02-16T13:43:47Z</time>
      </trkpt>
      <trkpt lat="42.5709" lon="1.82302">
        <ele>2054.47</ele>
        <time>2025-02-16T13:43:56Z</time>
      </trkpt>
      <trkpt lat="42.57088" lon="1.82298">
        <ele>2054.47</ele>
        <time>2025-02-16T13:44:00Z</time>
      </trkpt>
      <trkpt lat="42.57077" lon="1.82283">
        <ele>2052.55</ele>
        <time>2025-02-16T13:44:16Z</time>
      </trkpt>
      <trkpt lat="42.57061" lon="1.82271">
        <ele>2050.63</ele>
        <time>2025-02-16T13:44:32Z</time>
      </trkpt>
      <trkpt lat="42.57057" lon="1.82256">
        <ele>2048.71</ele>
        <time>2025-02-16T13:44:42Z</time>
      </trkpt>
      <trkpt lat="42.57056" lon="1.82252">
        <ele>2048.23</ele>
        <time>2025-02-16T13:44:45Z</time>
      </trkpt>
      <trkpt lat="42.57055" lon="1.82247">
        <ele>2047.75</ele>
        <time>2025-02-16T13:44:48Z</time>
      </trkpt>
      <trkpt lat="42.57055" lon="1.82223">
        <ele>2043.9</ele>
        <time>2025-02-16T13:45:05Z</time>
      </trkpt>
      <trkpt lat="42.57052" lon="1.82207">
        <ele>2042.46</ele>
        <time>2025-02-16T13:45:18Z</time>
      </trkpt>
      <trkpt lat="42.5705" lon="1.82203">
        <ele>2041.98</ele>
        <time>2025-02-16T13:45:21Z</time>
      </trkpt>
      <trkpt lat="42.57046" lon="1.82183">
        <ele>2037.65</ele>
        <time>2025-02-16T13:45:37Z</time>
      </trkpt>
      <trkpt lat="42.57041" lon="1.82174">
        <ele>2036.69</ele>
        <time>2025-02-16T13:45:52Z</time>
      </trkpt>
      <trkpt lat="42.57032" lon="1.82165">
        <ele>2035.25</ele>
        <time>2025-02-16T13:46:07Z</time>
      </trkpt>
      <trkpt lat="42.57024" lon="1.82155">
        <ele>2033.81</ele>
        <time>2025-02-16T13:46:22Z</time>
      </trkpt>
      <trkpt lat="42.57015" lon="1.82146">
        <ele>2032.36</ele>
        <time>2025-02-16T13:46:34Z</time>
      </trkpt>
      <trkpt lat="42.56999" lon="1.8213">
        <ele>2029.96</ele>
        <time>2025-02-16T13:46:53Z</time>
      </trkpt>
      <trkpt lat="42.56998" lon="1.82128">
        <ele>2029.48</ele>
        <time>2025-02-16T13:46:55Z</time>
      </trkpt>
      <trkpt lat="42.56992" lon="1.82121">
        <ele>2028.52</ele>
        <time>2025-02-16T13:47:02Z</time>
      </trkpt>
      <trkpt lat="42.56986" lon="1.82115">
        <ele>2027.08</ele>
        <time>2025-02-16T13:47:09Z</time>
      </trkpt>
      <trkpt lat="42.56975" lon="1.82101">
        <ele>2025.64</ele>
        <time>2025-02-16T13:47:24Z</time>
      </trkpt>
      <trkpt lat="42.56969" lon="1.82089">
        <ele>2024.19</ele>
        <time>2025-02-16T13:47:33Z</time>
      </trkpt>
      <trkpt lat="42.56968" lon="1.82087">
        <ele>2024.19</ele>
        <time>2025-02-16T13:47:35Z</time>
      </trkpt>
      <trkpt lat="42.56961" lon="1.82071">
        <ele>2022.75</ele>
        <time>2025-02-16T13:47:47Z</time>
      </trkpt>
      <trkpt lat="42.56954" lon="1.82049">
        <ele>2021.31</ele>
        <time>2025-02-16T13:48:03Z</time>
      </trkpt>
      <trkpt lat="42.56946" lon="1.82027">
        <ele>2018.91</ele>
        <time>2025-02-16T13:48:21Z</time>
      </trkpt>
      <trkpt lat="42.56943" lon="1.82021">
        <ele>2017.94</ele>
        <time>2025-02-16T13:48:26Z</time>
      </trkpt>
      <trkpt lat="42.56934" lon="1.82011">
        <ele>2016.98</ele>
        <time>2025-02-16T13:48:40Z</time>
      </trkpt>
      <trkpt lat="42.56925" lon="1.82001">
        <ele>2016.5</ele>
        <time>2025-02-16T13:48:53Z</time>
      </trkpt>
      <trkpt lat="42.56917" lon="1.81991">
        <ele>2016.5</ele>
        <time>2025-02-16T13:49:04Z</time>
      </trkpt>
      <trkpt lat="42.56914" lon="1.81986">
        <ele>2016.5</ele>
        <time>2025-02-16T13:49:09Z</time>
      </trkpt>
      <trkpt lat="42.56912" lon="1.81983">
        <ele>2016.5</ele>
        <time>2025-02-16T13:49:12Z</time>
      </trkpt>
      <trkpt lat="42.56907" lon="1.81976">
        <ele>2016.5</ele>
        <time>2025-02-16T13:49:19Z</time>
      </trkpt>
      <trkpt lat="42.56904" lon="1.81971">
        <ele>2016.02</ele>
        <time>2025-02-16T13:49:23Z</time>
      </trkpt>
      <trkpt lat="42.56901" lon="1.81968">
        <ele>2016.02</ele>
        <time>2025-02-16T13:49:26Z</time>
      </trkpt>
      <trkpt lat="42.56898" lon="1.81962">
        <ele>2014.58</ele>
        <time>2025-02-16T13:49:32Z</time>
      </trkpt>
      <trkpt lat="42.56885" lon="1.81953">
        <ele>2014.58</ele>
        <time>2025-02-16T13:49:47Z</time>
      </trkpt>
      <trkpt lat="42.56875" lon="1.81942">
        <ele>2013.62</ele>
        <time>2025-02-16T13:50:01Z</time>
      </trkpt>
      <trkpt lat="42.56866" lon="1.8193">
        <ele>2012.66</ele>
        <time>2025-02-16T13:50:15Z</time>
      </trkpt>
      <trkpt lat="42.56859" lon="1.81916">
        <ele>2010.73</ele>
        <time>2025-02-16T13:50:30Z</time>
      </trkpt>
      <trkpt lat="42.56859" lon="1.81915">
        <ele>2010.73</ele>
        <time>2025-02-16T13:50:31Z</time>
      </trkpt>
      <trkpt lat="42.56852" lon="1.81896">
        <ele>2007.85</ele>
        <time>2025-02-16T13:50:48Z</time>
      </trkpt>
      <trkpt lat="42.56844" lon="1.81883">
        <ele>2006.41</ele>
        <time>2025-02-16T13:51:03Z</time>
      </trkpt>
      <trkpt lat="42.56841" lon="1.81876">
        <ele>2005.93</ele>
        <time>2025-02-16T13:51:19Z</time>
      </trkpt>
      <trkpt lat="42.56839" lon="1.81863">
        <ele>2004.49</ele>
        <time>2025-02-16T13:51:33Z</time>
      </trkpt>
      <trkpt lat="42.5684" lon="1.81856">
        <ele>2004.49</ele>
        <time>2025-02-16T13:51:53Z</time>
      </trkpt>
      <trkpt lat="42.56838" lon="1.81856">
        <ele>2003.52</ele>
        <time>2025-02-16T13:52:16Z</time>
      </trkpt>
      <trkpt lat="42.56827" lon="1.81846">
        <ele>2002.08</ele>
        <time>2025-02-16T13:52:32Z</time>
      </trkpt>
      <trkpt lat="42.56818" lon="1.81828">
        <ele>1999.2</ele>
        <time>2025-02-16T13:52:49Z</time>
      </trkpt>
      <trkpt lat="42.56811" lon="1.81816">
        <ele>1997.76</ele>
        <time>2025-02-16T13:53:03Z</time>
      </trkpt>
      <trkpt lat="42.56808" lon="1.81799">
        <ele>1995.83</ele>
        <time>2025-02-16T13:53:17Z</time>
      </trkpt>
      <trkpt lat="42.56799" lon="1.81784">
        <ele>1994.39</ele>
        <time>2025-02-16T13:53:34Z</time>
      </trkpt>
      <trkpt lat="42.56787" lon="1.81771">
        <ele>1992.95</ele>
        <time>2025-02-16T13:53:50Z</time>
      </trkpt>
      <trkpt lat="42.5678" lon="1.81754">
        <ele>1991.03</ele>
        <time>2025-02-16T13:54:06Z</time>
      </trkpt>
      <trkpt lat="42.56776" lon="1.81744">
        <ele>1990.07</ele>
        <time>2025-02-16T13:54:19Z</time>
      </trkpt>
      <trkpt lat="42.56766" lon="1.81731">
        <ele>1988.62</ele>
        <time>2025-02-16T13:54:35Z</time>
      </trkpt>
      <trkpt lat="42.56759" lon="1.81721">
        <ele>1987.66</ele>
        <time>2025-02-16T13:54:47Z</time>
      </trkpt>
      <trkpt lat="42.56755" lon="1.81716">
        <ele>1986.7</ele>
        <time>2025-02-16T13:54:54Z</time>
      </trkpt>
      <trkpt lat="42.56751" lon="1.81708">
        <ele>1986.22</ele>
        <time>2025-02-16T13:55:00Z</time>
      </trkpt>
      <trkpt lat="42.56742" lon="1.81689">
        <ele>1984.3</ele>
        <time>2025-02-16T13:55:16Z</time>
      </trkpt>
      <trkpt lat="42.5674" lon="1.81686">
        <ele>1983.82</ele>
        <time>2025-02-16T13:55:19Z</time>
      </trkpt>
      <trkpt lat="42.56732" lon="1.81682">
        <ele>1983.82</ele>
        <time>2025-02-16T13:55:28Z</time>
      </trkpt>
      <trkpt lat="42.56721" lon="1.8167">
        <ele>1982.86</ele>
        <time>2025-02-16T13:55:43Z</time>
      </trkpt>
      <trkpt lat="42.56707" lon="1.81658">
        <ele>1981.9</ele>
        <time>2025-02-16T13:55:59Z</time>
      </trkpt>
      <trkpt lat="42.56695" lon="1.81647">
        <ele>1980.93</ele>
        <time>2025-02-16T13:56:15Z</time>
      </trkpt>
      <trkpt lat="42.56681" lon="1.81632">
        <ele>1979.97</ele>
        <time>2025-02-16T13:56:31Z</time>
      </trkpt>
      <trkpt lat="42.56668" lon="1.81614">
        <ele>1979.01</ele>
        <time>2025-02-16T13:56:49Z</time>
      </trkpt>
      <trkpt lat="42.56656" lon="1.81599">
        <ele>1978.05</ele>
        <time>2025-02-16T13:57:06Z</time>
      </trkpt>
      <trkpt lat="42.56641" lon="1.81583">
        <ele>1976.61</ele>
        <time>2025-02-16T13:57:24Z</time>
      </trkpt>
      <trkpt lat="42.56627" lon="1.81568">
        <ele>1974.69</ele>
        <time>2025-02-16T13:57:40Z</time>
      </trkpt>
      <trkpt lat="42.56611" lon="1.8155">
        <ele>1973.24</ele>
        <time>2025-02-16T13:57:59Z</time>
      </trkpt>
      <trkpt lat="42.56598" lon="1.81533">
        <ele>1972.28</ele>
        <time>2025-02-16T13:58:17Z</time>
      </trkpt>
      <trkpt lat="42.56589" lon="1.81525">
        <ele>1971.8</ele>
        <time>2025-02-16T13:58:28Z</time>
      </trkpt>
      <trkpt lat="42.56587" lon="1.81525">
        <ele>1971.8</ele>
        <time>2025-02-16T13:58:30Z</time>
      </trkpt>
      <trkpt lat="42.56582" lon="1.81519">
        <ele>1971.8</ele>
        <time>2025-02-16T13:58:42Z</time>
      </trkpt>
      <trkpt lat="42.56576" lon="1.81515">
        <ele>1971.8</ele>
        <time>2025-02-16T13:58:50Z</time>
      </trkpt>
      <trkpt lat="42.56563" lon="1.81507">
        <ele>1971.8</ele>
        <time>2025-02-16T13:59:05Z</time>
      </trkpt>
      <trkpt lat="42.56555" lon="1.81498">
        <ele>1971.32</ele>
        <time>2025-02-16T13:59:16Z</time>
      </trkpt>
      <trkpt lat="42.56544" lon="1.8149">
        <ele>1971.32</ele>
        <time>2025-02-16T13:59:30Z</time>
      </trkpt>
      <trkpt lat="42.56534" lon="1.81478">
        <ele>1970.84</ele>
        <time>2025-02-16T13:59:44Z</time>
      </trkpt>
      <trkpt lat="42.56533" lon="1.81478">
        <ele>1970.84</ele>
        <time>2025-02-16T13:59:45Z</time>
      </trkpt>
      <trkpt lat="42.56528" lon="1.81474">
        <ele>1970.36</ele>
        <time>2025-02-16T13:59:51Z</time>
      </trkpt>
      <trkpt lat="42.5652" lon="1.81467">
        <ele>1969.4</ele>
        <time>2025-02-16T14:00:00Z</time>
      </trkpt>
      <trkpt lat="42.56503" lon="1.8145">
        <ele>1969.4</ele>
        <time>2025-02-16T14:00:18Z</time>
      </trkpt>
      <trkpt lat="42.56493" lon="1.81439">
        <ele>1968.92</ele>
        <time>2025-02-16T14:00:33Z</time>
      </trkpt>
      <trkpt lat="42.56487" lon="1.81432">
        <ele>1968.92</ele>
        <time>2025-02-16T14:00:40Z</time>
      </trkpt>
      <trkpt lat="42.56486" lon="1.8143">
        <ele>1968.92</ele>
        <time>2025-02-16T14:00:42Z</time>
      </trkpt>
      <trkpt lat="42.56471" lon="1.81412">
        <ele>1967.96</ele>
        <time>2025-02-16T14:01:00Z</time>
      </trkpt>
      <trkpt lat="42.56458" lon="1.81394">
        <ele>1966.51</ele>
        <time>2025-02-16T14:01:16Z</time>
      </trkpt>
      <trkpt lat="42.56444" lon="1.81376">
        <ele>1965.07</ele>
        <time>2025-02-16T14:01:34Z</time>
      </trkpt>
      <trkpt lat="42.56436" lon="1.81362">
        <ele>1963.63</ele>
        <time>2025-02-16T14:01:47Z</time>
      </trkpt>
      <trkpt lat="42.56421" lon="1.81344">
        <ele>1961.71</ele>
        <time>2025-02-16T14:02:06Z</time>
      </trkpt>
      <trkpt lat="42.56414" lon="1.81335">
        <ele>1960.75</ele>
        <time>2025-02-16T14:02:21Z</time>
      </trkpt>
      <trkpt lat="42.564" lon="1.81324">
        <ele>1960.27</ele>
        <time>2025-02-16T14:02:37Z</time>
      </trkpt>
      <trkpt lat="42.56388" lon="1.81308">
        <ele>1958.82</ele>
        <time>2025-02-16T14:02:54Z</time>
      </trkpt>
      <trkpt lat="42.56379" lon="1.81298">
        <ele>1958.34</ele>
        <time>2025-02-16T14:03:04Z</time>
      </trkpt>
      <trkpt lat="42.56377" lon="1.81297">
        <ele>1957.86</ele>
        <time>2025-02-16T14:03:06Z</time>
      </trkpt>
      <trkpt lat="42.56364" lon="1.8128">
        <ele>1956.9</ele>
        <time>2025-02-16T14:03:25Z</time>
      </trkpt>
      <trkpt lat="42.56351" lon="1.81264">
        <ele>1955.46</ele>
        <time>2025-02-16T14:03:42Z</time>
      </trkpt>
      <trkpt lat="42.56345" lon="1.81252">
        <ele>1954.02</ele>
        <time>2025-02-16T14:03:52Z</time>
      </trkpt>
      <trkpt lat="42.56344" lon="1.81249">
        <ele>1954.02</ele>
        <time>2025-02-16T14:03:55Z</time>
      </trkpt>
      <trkpt lat="42.56341" lon="1.81243">
        <ele>1952.57</ele>
        <time>2025-02-16T14:04:02Z</time>
      </trkpt>
      <trkpt lat="42.56327" lon="1.81229">
        <ele>1949.69</ele>
        <time>2025-02-16T14:04:20Z</time>
      </trkpt>
      <trkpt lat="42.56317" lon="1.81214">
        <ele>1947.29</ele>
        <time>2025-02-16T14:04:36Z</time>
      </trkpt>
      <trkpt lat="42.5631" lon="1.81203">
        <ele>1944.4</ele>
        <time>2025-02-16T14:04:49Z</time>
      </trkpt>
      <trkpt lat="42.56305" lon="1.81199">
        <ele>1942.96</ele>
        <time>2025-02-16T14:05:04Z</time>
      </trkpt>
      <trkpt lat="42.56303" lon="1.81199">
        <ele>1942.48</ele>
        <time>2025-02-16T14:05:06Z</time>
      </trkpt>
      <trkpt lat="42.56288" lon="1.81188">
        <ele>1939.6</ele>
        <time>2025-02-16T14:05:24Z</time>
      </trkpt>
      <trkpt lat="42.56276" lon="1.81177">
        <ele>1937.67</ele>
        <time>2025-02-16T14:05:40Z</time>
      </trkpt>
      <trkpt lat="42.56266" lon="1.81169">
        <ele>1936.23</ele>
        <time>2025-02-16T14:05:53Z</time>
      </trkpt>
      <trkpt lat="42.56251" lon="1.81152">
        <ele>1934.31</ele>
        <time>2025-02-16T14:06:11Z</time>
      </trkpt>
      <trkpt lat="42.56239" lon="1.81134">
        <ele>1934.79</ele>
        <time>2025-02-16T14:06:29Z</time>
      </trkpt>
      <trkpt lat="42.56232" lon="1.81118">
        <ele>1935.75</ele>
        <time>2025-02-16T14:06:44Z</time>
      </trkpt>
      <trkpt lat="42.56223" lon="1.81106">
        <ele>1935.75</ele>
        <time>2025-02-16T14:07:00Z</time>
      </trkpt>
      <trkpt lat="42.56212" lon="1.81099">
        <ele>1933.35</ele>
        <time>2025-02-16T14:07:15Z</time>
      </trkpt>
      <trkpt lat="42.56199" lon="1.81089">
        <ele>1931.91</ele>
        <time>2025-02-16T14:07:30Z</time>
      </trkpt>
      <trkpt lat="42.56193" lon="1.81083">
        <ele>1931.91</ele>
        <time>2025-02-16T14:07:37Z</time>
      </trkpt>
      <trkpt lat="42.56179" lon="1.81078">
        <ele>1930.95</ele>
        <time>2025-02-16T14:07:53Z</time>
      </trkpt>
      <trkpt lat="42.56176" lon="1.81076">
        <ele>1930.46</ele>
        <time>2025-02-16T14:07:57Z</time>
      </trkpt>
      <trkpt lat="42.56171" lon="1.81073">
        <ele>1930.46</ele>
        <time>2025-02-16T14:08:02Z</time>
      </trkpt>
      <trkpt lat="42.56169" lon="1.81071">
        <ele>1930.46</ele>
        <time>2025-02-16T14:08:04Z</time>
      </trkpt>
      <trkpt lat="42.56155" lon="1.81062">
        <ele>1929.98</ele>
        <time>2025-02-16T14:08:21Z</time>
      </trkpt>
      <trkpt lat="42.56141" lon="1.81053">
        <ele>1929.5</ele>
        <time>2025-02-16T14:08:37Z</time>
      </trkpt>
      <trkpt lat="42.56134" lon="1.81048">
        <ele>1929.5</ele>
        <time>2025-02-16T14:08:45Z</time>
      </trkpt>
      <trkpt lat="42.56129" lon="1.81037">
        <ele>1929.5</ele>
        <time>2025-02-16T14:09:00Z</time>
      </trkpt>
      <trkpt lat="42.56128" lon="1.81037">
        <ele>1930.46</ele>
        <time>2025-02-16T14:09:20Z</time>
      </trkpt>
      <trkpt lat="42.56129" lon="1.81035">
        <ele>1930.46</ele>
        <time>2025-02-16T14:09:40Z</time>
      </trkpt>
      <trkpt lat="42.5613" lon="1.81034">
        <ele>1929.02</ele>
        <time>2025-02-16T14:09:43Z</time>
      </trkpt>
      <trkpt lat="42.56131" lon="1.81036">
        <ele>1928.54</ele>
        <time>2025-02-16T14:10:08Z</time>
      </trkpt>
      <trkpt lat="42.5613" lon="1.81036">
        <ele>1928.54</ele>
        <time>2025-02-16T14:10:09Z</time>
      </trkpt>
      <trkpt lat="42.56129" lon="1.81035">
        <ele>1929.5</ele>
        <time>2025-02-16T14:10:12Z</time>
      </trkpt>
      <trkpt lat="42.56114" lon="1.81028">
        <ele>1929.5</ele>
        <time>2025-02-16T14:10:30Z</time>
      </trkpt>
      <trkpt lat="42.56105" lon="1.81026">
        <ele>1929.5</ele>
        <time>2025-02-16T14:10:44Z</time>
      </trkpt>
      <trkpt lat="42.56097" lon="1.81018">
        <ele>1928.54</ele>
        <time>2025-02-16T14:10:53Z</time>
      </trkpt>
      <trkpt lat="42.56097" lon="1.81017">
        <ele>1928.54</ele>
        <time>2025-02-16T14:10:54Z</time>
      </trkpt>
      <trkpt lat="42.56081" lon="1.81011">
        <ele>1927.1</ele>
        <time>2025-02-16T14:11:10Z</time>
      </trkpt>
      <trkpt lat="42.56062" lon="1.81008">
        <ele>1926.14</ele>
        <time>2025-02-16T14:11:28Z</time>
      </trkpt>
      <trkpt lat="42.56051" lon="1.81009">
        <ele>1925.66</ele>
        <time>2025-02-16T14:11:42Z</time>
      </trkpt>
      <trkpt lat="42.56042" lon="1.8101">
        <ele>1925.66</ele>
        <time>2025-02-16T14:11:55Z</time>
      </trkpt>
      <trkpt lat="42.56035" lon="1.81011">
        <ele>1925.66</ele>
        <time>2025-02-16T14:12:02Z</time>
      </trkpt>
      <trkpt lat="42.56023" lon="1.81019">
        <ele>1925.18</ele>
        <time>2025-02-16T14:12:21Z</time>
      </trkpt>
      <trkpt lat="42.56016" lon="1.81019">
        <ele>1924.7</ele>
        <time>2025-02-16T14:12:30Z</time>
      </trkpt>
      <trkpt lat="42.56003" lon="1.81016">
        <ele>1924.7</ele>
        <time>2025-02-16T14:12:44Z</time>
      </trkpt>
      <trkpt lat="42.55998" lon="1.81017">
        <ele>1924.7</ele>
        <time>2025-02-16T14:12:50Z</time>
      </trkpt>
      <trkpt lat="42.55991" lon="1.81019">
        <ele>1924.7</ele>
        <time>2025-02-16T14:12:57Z</time>
      </trkpt>
      <trkpt lat="42.55978" lon="1.81027">
        <ele>1924.22</ele>
        <time>2025-02-16T14:13:16Z</time>
      </trkpt>
      <trkpt lat="42.55976" lon="1.81024">
        <ele>1923.74</ele>
        <time>2025-02-16T14:13:38Z</time>
      </trkpt>
      <trkpt lat="42.55975" lon="1.81026">
        <ele>1923.74</ele>
        <time>2025-02-16T14:14:13Z</time>
      </trkpt>
      <trkpt lat="42.55973" lon="1.81028">
        <ele>1923.74</ele>
        <time>2025-02-16T14:14:42Z</time>
      </trkpt>
      <trkpt lat="42.55973" lon="1.81027">
        <ele>1923.74</ele>
        <time>2025-02-16T14:15:15Z</time>
      </trkpt>
      <trkpt lat="42.55972" lon="1.81028">
        <ele>1923.74</ele>
        <time>2025-02-16T14:15:47Z</time>
      </trkpt>
    </trkseg>
  </trk>
</gpx>